Date StartTime U_cm/s V_cm/s W_cm/s Ustd_cm/s Vstd_cm/s Wstd_cm/s Uvar_(cm/s)^2 Vvar_(cm/s)^2 Wvar_(cm/s)^2 KE_(m/s)^2 TurbulentKE_(m/s)^2 HorizWindSpeed_cm/s FrictionSpeec_cm/s DragCoef SpeedOfSound_m/s SonicTemperature_C Pressure_mb 
11/04/2013  00:00:00       63.487       35.796        9.728       21.335       16.988       18.753      455.190      288.602      351.677        0.325        0.055       72.883       11.561        0.025      334.544        4.588      858.926
11/04/2013  00:01:00       67.552       51.811       18.079       31.178       23.987       23.820      972.092      575.392      567.413        0.484        0.106       85.133       13.528        0.025      334.532        4.566      858.924
11/04/2013  00:02:00      101.756       64.820       14.662       23.836       25.172       23.317      568.134      633.613      543.669        0.826        0.087      120.648       16.460        0.019      334.553        4.602      858.935
11/04/2013  00:03:00       86.387       59.968        8.042       41.698       27.594       27.344     1738.751      761.407      747.713        0.719        0.162      105.161       19.570        0.035      334.540        4.579      858.944
11/04/2013  00:04:00       93.455       71.808        0.152       37.967       32.270       31.835     1441.457     1041.378     1013.438        0.869        0.175      117.857       25.729        0.048      334.531        4.565      858.953
11/04/2013  00:05:00      101.755       71.974       14.741       39.409       29.402       31.368     1553.096      864.478      983.963        0.958        0.170      124.637       22.182        0.032      334.540        4.578      858.950
11/04/2013  00:06:00      107.386       61.055       20.952       37.301       26.968       20.940     1391.392      727.262      438.475        0.913        0.128      123.530        8.125        0.004      334.564        4.619      858.939
11/04/2013  00:07:00       87.762       69.147       12.096       28.763       26.714       20.822      827.332      713.657      433.537        0.730        0.099      111.730       14.862        0.018      334.518        4.544      858.924
11/04/2013  00:08:00       89.390       61.215        8.750       31.936       27.295       16.675     1019.883      745.041      278.068        0.693        0.102      108.341       10.803        0.010      334.517        4.542      858.912
11/04/2013  00:09:00       95.227       59.721       16.803       19.113       20.623       22.163      365.310      425.323      491.179        0.710        0.064      112.404       14.191        0.016      334.515        4.538      858.906
11/04/2013  00:10:00       82.092       45.148       13.435       23.490       20.423       18.393      551.767      417.084      338.310        0.513        0.065       93.688        9.970        0.011      334.504        4.520      858.906
11/04/2013  00:11:00       70.813       50.138       16.741       23.546       21.382       22.273      554.434      457.192      496.106        0.466        0.075       86.765       17.632        0.041      334.486        4.491      858.909
11/04/2013  00:12:00       70.018       47.003        9.836       17.483       12.105       11.722      305.671      146.536      137.403        0.390        0.029       84.332        8.183        0.009      334.478        4.478      858.910
11/04/2013  00:13:00       60.814       36.140        5.796       14.516        9.571        9.076      210.703       91.611       82.369        0.271        0.019       70.742        5.395        0.006      334.479        4.478      858.902
11/04/2013  00:14:00       43.574       25.570        4.859       19.871       20.671       12.421      394.846      427.286      154.293        0.178        0.049       50.523        8.402        0.028      334.460        4.447      858.899
11/04/2013  00:15:00       37.533       22.773        7.347       13.840       20.342       12.193      191.553      413.790      148.665        0.137        0.038       43.901       10.108        0.053      334.454        4.436      858.902
11/04/2013  00:16:00       62.869       27.964        6.007       14.691       15.187        9.705      215.831      230.647       94.190        0.266        0.027       68.807        6.183        0.008      334.477        4.477      858.927
11/04/2013  00:17:00       59.568       39.564       -1.992       19.909       20.760       16.284      396.365      430.971      265.173        0.310        0.055       71.510        7.447        0.011      334.532        4.566      858.949
11/04/2013  00:18:00       61.768       39.130        9.010       21.689       18.378       16.556      470.401      337.739      274.107        0.325        0.054       73.120       11.478        0.025      334.497        4.509      858.961
11/04/2013  00:19:00       75.879       53.645        6.796       24.468       17.717       15.695      598.706      313.904      246.326        0.492        0.058       92.927        9.055        0.009      334.530        4.564      858.966
11/04/2013  00:20:00       54.198       40.806        2.206       20.970       17.452       12.875      439.750      304.585      165.765        0.276        0.046       67.842       11.784        0.030      334.470        4.463      858.965
11/04/2013  00:21:00       57.957       44.738        7.762       26.550       20.363       16.029      704.907      414.668      256.922        0.340        0.069       73.216       10.958        0.022      334.460        4.448      858.964
11/04/2013  00:22:00       49.802       43.726        6.792       26.194       20.175       14.703      686.127      407.044      216.189        0.287        0.065       66.273       11.915        0.032      334.474        4.471      858.962
11/04/2013  00:23:00       18.935       30.839        3.129       24.383       19.384       17.128      594.531      375.743      293.369        0.129        0.063       36.188        7.714        0.045      334.433        4.404      858.965
11/04/2013  00:24:00       44.797       55.784       -9.715       25.853       28.390       19.079      668.401      806.020      364.009        0.353        0.092       71.545       17.016        0.057      334.521        4.549      858.972
11/04/2013  00:25:00       46.234       58.973        6.225       29.567       26.013       25.372      874.179      676.663      643.720        0.392        0.110       74.935       19.748        0.069      334.501        4.515      858.986
11/04/2013  00:26:00       43.030       50.072        2.592       31.925       21.163       21.341     1019.175      447.883      455.437        0.314        0.096       66.021       17.223        0.068      334.453        4.438      859.005
11/04/2013  00:27:00       30.598       89.294      -13.550       23.867       33.968       19.880      569.629     1153.836      395.204        0.561        0.106       94.391       18.275        0.037      334.456        4.441      859.015
11/04/2013  00:28:00       12.558       59.406       -0.080       30.946       31.426       25.931      957.627      987.576      672.441        0.315        0.131       60.718       22.890        0.142      334.416        4.375      859.025
11/04/2013  00:29:00       12.481       68.651       -2.547       27.459       33.954       25.528      753.970     1152.895      651.694        0.372        0.128       69.777       22.089        0.100      334.370        4.299      859.026
11/04/2013  00:30:00       37.178       44.245       10.268       35.043       25.866       18.824     1227.990      669.052      354.326        0.285        0.113       57.792       15.905        0.076      334.406        4.358      859.023
11/04/2013  00:31:00       24.695       54.720        5.780       35.553       35.534       26.706     1263.997     1262.650      713.198        0.344        0.162       60.035       19.587        0.106      334.419        4.380      859.004
11/04/2013  00:32:00        9.902       60.093        3.826       29.369       36.614       25.007      862.533     1340.581      625.360        0.328        0.141       60.903       24.518        0.162      334.386        4.324      858.978
11/04/2013  00:33:00       24.195       66.793        5.748       20.170       42.058       24.935      406.836     1768.855      621.731        0.394        0.140       71.040       25.930        0.133      334.352        4.268      858.956
11/04/2013  00:34:00       42.441       54.149       -1.210       31.840       21.817       18.167     1013.754      475.994      330.028        0.328        0.091       68.800       14.574        0.045      334.333        4.237      858.939
11/04/2013  00:35:00       50.177       45.384        9.614       35.633       25.333       24.909     1269.744      641.778      620.476        0.360        0.127       67.657       17.230        0.065      334.339        4.248      858.928
11/04/2013  00:36:00       30.627       61.615       -7.310       28.475       28.029       20.413      810.838      785.617      416.710        0.340        0.101       68.807       19.079        0.077      334.315        4.207      858.929
11/04/2013  00:37:00       28.874       46.235        1.186       26.419       33.220       20.324      697.973     1103.550      413.081        0.259        0.111       54.511       21.242        0.152      334.335        4.240      858.934
11/04/2013  00:38:00       21.520       86.222       -8.809       24.425       28.782       22.596      596.591      828.389      510.564        0.495        0.097       88.867       18.157        0.042      334.350        4.266      858.948
11/04/2013  00:39:00       18.849       79.665       -4.418       27.867       47.657       26.162      776.595     2271.152      684.429        0.523        0.187       81.865       25.787        0.099      334.253        4.103      858.967
11/04/2013  00:40:00       33.453       69.917      -10.687       28.632       43.505       26.525      819.812     1892.671      703.577        0.477        0.171       77.508       28.875        0.139      334.344        4.254      858.986
11/04/2013  00:41:00       43.050       57.088       -6.026       42.625       36.164       28.074     1816.921     1307.807      788.169        0.453        0.196       71.501       15.985        0.050      334.327        4.226      858.996
11/04/2013  00:42:00       51.799       52.090        4.862       35.579       29.013       25.247     1265.853      841.755      637.405        0.408        0.137       73.461       14.367        0.038      334.339        4.248      859.005
11/04/2013  00:43:00       34.986       54.657        1.539       32.033       30.028       29.455     1026.094      901.710      867.617        0.350        0.140       64.895       23.070        0.126      334.308        4.195      859.012
11/04/2013  00:44:00       44.269       55.239        2.510       31.680       29.692       28.489     1003.635      881.595      811.619        0.386        0.135       70.789       20.975        0.088      334.311        4.201      859.007
11/04/2013  00:45:00       49.578       64.028       -7.334       37.707       31.899       25.162     1421.791     1017.551      633.120        0.484        0.154       80.979       23.031        0.081      334.306        4.192      859.012
11/04/2013  00:46:00       67.398       54.086        1.167       43.800       29.548       24.738     1918.405      873.108      611.956        0.544        0.170       86.416       19.908        0.053      334.308        4.196      859.019
11/04/2013  00:47:00       20.994       41.076       -1.600       30.859       28.841       21.876      952.297      831.807      478.556        0.220        0.113       46.130       14.897        0.104      334.226        4.059      859.032
11/04/2013  00:48:00       32.733       51.084        3.588       35.330       30.295       29.109     1248.230      917.767      847.327        0.335        0.151       60.672       22.083        0.132      334.250        4.100      859.054
11/04/2013  00:49:00       11.840       54.175        6.760       23.013       41.521       22.491      529.577     1723.967      505.855        0.294        0.138       55.454       24.260        0.191      334.250        4.100      859.073
11/04/2013  00:50:00       16.868       78.531       -3.581       28.775       34.995       23.108      827.995     1224.675      533.998        0.453        0.129       80.322       22.397        0.078      334.206        4.025      859.082
11/04/2013  00:51:00       14.485      135.776      -18.207       20.576       38.532       19.898      423.391     1484.748      395.922        1.064        0.115      136.547       16.254        0.014      334.212        4.036      859.082
11/04/2013  00:52:00        2.735      153.067      -20.554       20.538       23.280       11.220      421.816      541.954      125.888        1.247        0.054      153.091        9.713        0.004      334.188        3.996      859.080
11/04/2013  00:53:00       21.675      120.291       -9.256       28.336       33.678       19.470      802.911     1134.224      379.098        0.867        0.116      122.228       21.934        0.032      334.172        3.971      859.081
11/04/2013  00:54:00       15.125       94.159       -1.917       24.313       31.394       22.868      591.137      985.561      522.928        0.560        0.105       95.366       20.172        0.045      334.104        3.855      859.082
11/04/2013  00:55:00       35.800       68.056        5.664       36.253       39.347       29.168     1314.306     1548.192      850.766        0.483        0.186       76.897       25.969        0.114      334.099        3.847      859.073
11/04/2013  00:56:00       27.319       72.146       -1.601       37.738       43.129       25.262     1424.120     1860.080      638.191        0.494        0.196       77.145       23.356        0.092      334.103        3.855      859.073
11/04/2013  00:57:00       29.150       47.810       -4.434       25.601       32.647       25.114      655.406     1065.829      630.690        0.275        0.118       55.996       20.990        0.141      334.091        3.834      859.086
11/04/2013  00:58:00       28.733       84.315       -4.832       30.741       32.335       22.390      945.001     1045.543      501.330        0.522        0.125       89.076       21.785        0.060      334.123        3.887      859.111
11/04/2013  00:59:00       41.926       66.621       -3.387       31.180       35.457       21.704      972.202     1257.173      471.065        0.445        0.135       78.716       18.374        0.054      334.114        3.873      859.128
11/04/2013  01:00:00       98.354       72.051       11.882       32.827       29.509       28.098     1077.590      870.762      789.518        0.887        0.137      121.921       22.126        0.033      334.220        4.049      859.134
11/04/2013  01:01:00       45.650       72.383       -8.259       30.160       34.813       23.467      909.654     1211.917      550.701        0.503        0.134       85.575       20.381        0.057      334.148        3.929      859.140
11/04/2013  01:02:00       90.310       45.026       10.311       30.496       22.291       21.671      929.993      496.892      469.624        0.609        0.095      100.911       11.013        0.012      334.157        3.944      859.144
11/04/2013  01:03:00       72.196       40.764        9.667       25.010       18.549       21.793      625.503      344.054      474.939        0.421        0.072       82.909       10.413        0.016      334.131        3.901      859.142
11/04/2013  01:04:00       68.323       46.934        5.695       25.149       23.417       18.857      632.473      548.340      355.598        0.422        0.077       82.890       12.399        0.022      334.164        3.955      859.146
11/04/2013  01:05:00       32.944       27.026        3.749       14.343       13.614       14.004      205.726      185.343      196.109        0.121        0.029       42.611        6.051        0.020      334.102        3.854      859.154
11/04/2013  01:06:00       44.366       39.246        4.553       28.154       21.372       19.496      792.632      456.755      380.098        0.258        0.081       59.233       14.096        0.057      334.153        3.938      859.168
11/04/2013  01:07:00       39.276       24.690        8.617       25.982       17.973        9.908      675.045      323.027       98.170        0.166        0.055       46.392        7.941        0.029      334.170        3.967      859.186
11/04/2013  01:08:00       38.090       50.736       -9.367       29.069       30.883       17.753      845.035      953.745      315.177        0.311        0.106       63.443       19.247        0.092      334.182        3.988      859.188
11/04/2013  01:09:00       79.798       55.457        1.207       20.671       20.328       21.907      427.271      413.240      479.910        0.538        0.066       97.176       12.271        0.016      334.174        3.972      859.177
11/04/2013  01:10:00       81.575       46.072       16.686       34.693       22.121       23.194     1203.602      489.345      537.978        0.564        0.112       93.686       17.122        0.033      334.183        3.987      859.164
11/04/2013  01:11:00       97.251       68.575       12.903       18.136       16.219       20.781      328.926      263.045      431.830        0.768        0.051      118.997        9.086        0.006      334.211        4.033      859.155
11/04/2013  01:12:00       86.223       63.454       14.346       30.179       18.135       23.566      910.787      328.869      555.355        0.673        0.090      107.055       14.282        0.018      334.154        3.940      859.139
11/04/2013  01:13:00       79.884       50.717       13.323       30.615       22.401       24.073      937.281      501.820      579.530        0.557        0.101       94.624       16.342        0.030      334.169        3.965      859.123
11/04/2013  01:14:00       79.047       38.771        9.803       36.368       24.620       19.009     1322.623      606.139      361.359        0.507        0.115       88.043        3.283        0.001      334.151        3.936      859.113
11/04/2013  01:15:00       58.505       28.354       11.561       35.056       30.711       19.863     1228.896      943.169      394.521        0.346        0.128       65.014       16.907        0.068      334.167        3.960      859.117
11/04/2013  01:16:00       63.171       39.071       15.468       34.652       19.441       28.257     1200.738      377.941      798.446        0.407        0.119       74.277       15.740        0.045      334.223        4.054      859.125
11/04/2013  01:17:00       69.315       55.478        3.188       27.524       25.056       28.344      757.557      627.778      803.355        0.504        0.109       88.783       18.404        0.043      334.220        4.050      859.128
11/04/2013  01:18:00       43.233       29.912        7.123       16.390       11.657       14.526      268.624      135.877      210.997        0.171        0.031       52.572        8.693        0.027      334.189        3.998      859.111
11/04/2013  01:19:00       59.824       31.539        3.363       18.184       21.352       19.872      330.662      455.891      394.898        0.288        0.059       67.629        9.563        0.020      334.189        3.998      859.089
11/04/2013  01:20:00       42.710       27.328        0.265       11.623       16.312       11.225      135.088      266.089      126.008        0.155        0.026       50.704        9.453        0.035      334.181        3.984      859.070
11/04/2013  01:21:00       36.816       28.256        7.223       20.597       13.508       13.559      424.230      182.477      183.836        0.150        0.040       46.409       13.508        0.085      334.229        4.063      859.063
11/04/2013  01:22:00        9.449       22.346       19.950        8.730        7.365        6.250       76.221       54.240       39.068        0.058        0.008       24.261        3.415        0.020      334.167        3.963      859.052
11/04/2013  01:23:00       29.725       22.540        8.090       15.264        9.726       13.246      232.996       94.592      175.467        0.098        0.025       37.304        8.340        0.050      334.208        4.030      859.052
11/04/2013  01:24:00       68.094       38.593       -8.419       19.635       16.001       14.050      385.515      256.023      197.400        0.352        0.042       78.270        9.797        0.016      334.274        4.141      859.045
11/04/2013  01:25:00       16.397       25.879        7.264       23.047       20.484       17.160      531.154      419.586      294.483        0.112        0.062       30.636       13.960        0.208      334.227        4.064      859.041
11/04/2013  01:26:00        7.035       43.910       -7.931        8.481       10.224        6.391       71.928      104.533       40.844        0.113        0.011       44.470        5.999        0.018      334.217        4.044      859.032
11/04/2013  01:27:00        5.829       80.767      -15.215       21.854       53.734       27.875      477.611     2887.391      776.988        0.546        0.207       80.977       17.820        0.048      334.244        4.088      859.023
11/04/2013  01:28:00       21.977       71.134       -7.980       17.359       22.145       13.819      301.333      490.413      190.957        0.329        0.049       74.452        6.147        0.007      334.181        3.984      859.015
11/04/2013  01:29:00        0.916       27.360       14.355       12.578       22.488       17.879      158.209      505.695      319.657        0.097        0.049       27.376       15.163        0.307      334.149        3.930      859.014
11/04/2013  01:30:00      -13.859       32.432       -2.260       17.130       16.948       10.981      293.434      287.229      120.586        0.098        0.035       35.269        7.774        0.049      334.239        4.081      859.011
11/04/2013  01:31:00       -4.142       58.962       -5.070       19.534       25.149       16.000      381.581      632.495      256.003        0.239        0.064       59.107       13.048        0.049      334.246        4.093      859.001
11/04/2013  01:32:00      -45.571       -0.963       -1.846       19.021       23.003       11.652      361.794      529.128      135.759        0.155        0.051       45.581        8.158        0.032      334.013        3.706      858.992
11/04/2013  01:33:00      -37.426      -11.890       -9.758       26.474       17.566       10.969      700.879      308.564      120.317        0.138        0.056       39.269        5.933        0.023      333.924        3.560      858.974
11/04/2013  01:34:00       -4.916      -14.350        4.911       31.641       21.717       17.551     1001.145      471.641      308.039        0.102        0.089       15.169       18.566        1.498      333.896        3.513      858.960
11/04/2013  01:35:00      -26.011       -8.431      -10.493       14.006       14.509       10.099      196.176      210.513      101.997        0.068        0.025       27.344        4.235        0.024      333.885        3.493      858.942
11/04/2013  01:36:00       -0.639      -15.461       -6.320        7.875       12.103        7.407       62.013      146.476       54.862        0.027        0.013       15.474        4.967        0.103      333.875        3.479      858.927
11/04/2013  01:37:00      -27.363      -19.498       -3.003       15.041       12.106        9.803      226.219      146.566       96.106        0.080        0.023       33.599        7.042        0.044      333.879        3.485      858.909
11/04/2013  01:38:00      -37.412        2.961       -9.728       11.845       10.227        7.766      140.293      104.596       60.304        0.090        0.015       37.529        5.728        0.023      333.850        3.435      858.900
11/04/2013  01:39:00      -30.590      -11.617       -1.573       17.632       13.051       10.337      310.880      170.337      106.855        0.083        0.029       32.721       11.206        0.117      333.912        3.539      858.892
11/04/2013  01:40:00      -34.517      -17.027       -7.635       13.439        9.176       13.847      180.605       84.192      191.752        0.100        0.023       38.488        6.310        0.027      333.878        3.481      858.875
11/04/2013  01:41:00      -37.770       -4.739       -8.325       13.681        7.326        9.576      187.161       53.664       91.691        0.093        0.017       38.066        7.993        0.044      333.814        3.375      858.852
11/04/2013  01:42:00      -41.384       -0.676      -11.098       11.333       15.248        8.431      128.427      232.516       71.077        0.113        0.022       41.390        8.388        0.041      333.862        3.456      858.834
11/04/2013  01:43:00      -55.387        6.923      -11.395       12.393       15.199        9.249      153.582      231.004       85.545        0.186        0.024       55.818        7.881        0.020      333.882        3.489      858.820
11/04/2013  01:44:00      -45.526       19.322       -5.886       20.582       17.077       13.752      423.635      291.628      189.115        0.169        0.045       49.456       10.686        0.047      333.941        3.585      858.821
11/04/2013  01:45:00      -58.148       36.247      -13.111       15.101       18.353       11.740      228.034      336.836      137.829        0.278        0.035       68.520       10.691        0.024      333.981        3.652      858.836
11/04/2013  01:46:00      -63.299       17.895      -11.106       17.554       22.377       13.045      308.135      500.735      170.165        0.271        0.049       65.780        8.204        0.016      333.864        3.461      858.853
11/04/2013  01:47:00      -72.252       41.495      -17.811       20.232       21.652       10.827      409.327      468.792      117.234        0.413        0.050       83.320        9.202        0.012      333.969        3.633      858.867
11/04/2013  01:48:00      -72.089       47.415      -10.422       23.180       24.238       14.878      537.324      587.482      221.361        0.445        0.067       86.284       13.549        0.025      334.001        3.687      858.882
11/04/2013  01:49:00      -60.004       41.979      -16.237       16.882       33.894       17.258      285.005     1148.818      297.854        0.368        0.087       73.230       14.354        0.038      333.989        3.667      858.877
11/04/2013  01:50:00      -47.348       22.791       -6.686       16.729       15.175       14.339      279.858      230.270      205.617        0.176        0.036       52.548       10.239        0.038      333.960        3.619      858.860
11/04/2013  01:51:00      -41.735        3.263       -3.638       11.679       21.643       10.352      136.391      468.421      107.159        0.124        0.036       41.862        6.556        0.025      333.923        3.557      858.842
11/04/2013  01:52:00      -59.648       34.436      -15.530       20.569       22.673       14.579      423.098      514.055      212.545        0.307        0.057       68.875       15.483        0.051      334.046        3.760      858.822
11/04/2013  01:53:00      -38.929       12.473        7.398       25.496       20.978       20.313      650.070      440.069      412.614        0.161        0.075       40.879       20.056        0.241      334.025        3.725      858.803
11/04/2013  01:54:00      -28.287       -8.267       -4.296       22.261       10.401       15.104      495.550      108.187      228.128        0.086        0.042       29.470       15.383        0.272      333.945        3.592      858.793
11/04/2013  01:55:00      -36.485      -15.665       -9.219       14.434       13.098       10.297      208.345      171.555      106.032        0.107        0.024       39.706        6.095        0.024      333.837        3.413      858.787
11/04/2013  01:56:00      -49.082       -3.937      -14.235       14.527       11.428        8.405      211.036      130.595       70.652        0.152        0.021       49.239        7.969        0.026      333.766        3.298      858.786
11/04/2013  01:57:00      -34.296      -13.054      -10.600       15.403       13.832        8.908      237.262      191.329       79.347        0.098        0.025       36.696        4.251        0.013      333.805        3.362      858.781
11/04/2013  01:58:00      -41.868        7.634       -5.239       15.913       14.824       13.132      253.224      219.757      172.454        0.124        0.032       42.558        8.724        0.042      333.895        3.509      858.779
11/04/2013  01:59:00      -49.075        4.782      -11.490       11.809       17.323       11.528      139.447      300.092      132.897        0.157        0.029       49.307        7.904        0.026      333.935        3.579      858.779
11/04/2013  02:00:00      -44.080       -1.527       -8.743       13.784       14.686       12.508      190.002      215.687      156.445        0.129        0.028       44.106       10.959        0.062      333.862        3.455      858.783
11/04/2013  02:01:00      -62.306      -16.579      -13.759       12.111       13.953        8.847      146.683      194.696       78.266        0.238        0.021       64.474        5.195        0.006      333.816        3.379      858.789
11/04/2013  02:02:00      -61.198       -9.941      -19.601       14.220       18.023       13.659      202.211      324.811      186.575        0.247        0.036       62.001        7.480        0.015      333.835        3.409      858.790
11/04/2013  02:03:00      -52.253       -5.320      -14.659       20.173       13.941       12.738      406.960      194.348      162.265        0.187        0.038       52.523        8.796        0.028      333.854        3.441      858.784
11/04/2013  02:04:00      -69.923       -0.600       -9.425       17.729       22.721       11.165      314.330      516.225      124.661        0.297        0.048       69.925        8.454        0.015      333.820        3.386      858.772
11/04/2013  02:05:00      -85.371        4.129      -10.206       22.678       24.937       15.934      514.308      621.831      253.885        0.440        0.070       85.471       15.199        0.032      333.879        3.484      858.762
11/04/2013  02:06:00      -60.150       20.291       -9.037       22.492       19.012       11.998      505.882      361.452      143.948        0.256        0.051       63.480        9.561        0.023      333.895        3.510      858.757
11/04/2013  02:07:00      -65.655       37.957      -10.156       16.004       19.790       11.811      256.125      391.661      139.494        0.332        0.039       75.838       10.707        0.020      333.934        3.575      858.756
11/04/2013  02:08:00      -34.641       32.226       -6.625       24.347       28.005       16.065      592.785      784.274      258.076        0.196        0.082       47.313       15.478        0.107      334.029        3.733      858.759
11/04/2013  02:09:00      -65.333       25.342      -18.206       14.771       16.708       10.919      218.194      279.163      119.234        0.293        0.031       70.076        6.045        0.007      333.967        3.632      858.767
11/04/2013  02:10:00      -56.041       18.556       -5.451       15.260       13.011       10.497      232.875      169.275      110.182        0.201        0.026       59.034        6.732        0.013      334.001        3.685      858.773
11/04/2013  02:11:00      -49.928       29.238      -10.295       16.107       21.393       12.172      259.446      457.644      148.151        0.216        0.043       57.859        8.356        0.021      333.992        3.671      858.775
11/04/2013  02:12:00      -66.727       10.902      -10.024       16.194       21.829       14.271      262.245      476.504      203.649        0.281        0.047       67.612        7.967        0.014      334.021        3.720      858.775
11/04/2013  02:13:00      -52.752        4.443       -9.665       15.540       19.840        9.773      241.485      393.634       95.507        0.181        0.037       52.939        7.289        0.019      334.059        3.781      858.774
11/04/2013  02:14:00      -42.220       -2.299      -13.263       10.794       16.321       13.267      116.506      266.382      176.002        0.126        0.028       42.282        8.303        0.039      334.075        3.808      858.772
11/04/2013  02:15:00      -72.591       33.510      -12.496       20.852       32.531       19.389      434.794     1058.259      375.928        0.421        0.093       79.953       15.814        0.039      334.020        3.718      858.771
11/04/2013  02:16:00      -40.055       41.254      -10.558       27.239       45.034       19.228      741.970     2028.033      369.716        0.328        0.157       57.501       19.409        0.114      334.069        3.799      858.760
11/04/2013  02:17:00      -55.656        7.040       -8.582       14.298       13.637       13.864      204.420      185.959      192.213        0.190        0.029       56.100       11.194        0.040      334.032        3.738      858.754
11/04/2013  02:18:00      -43.238       63.236      -18.977       24.437       36.374       15.738      597.186     1323.095      247.696        0.420        0.108       76.605       17.792        0.054      334.106        3.861      858.753
11/04/2013  02:19:00      -58.913       14.796       -6.918       17.409        9.920       11.560      303.070       98.399      133.635        0.214        0.027       60.742        9.917        0.027      334.032        3.736      858.751
11/04/2013  02:20:00      -20.442       11.490      -11.741       18.124       21.760        9.806      328.469      473.504       96.160        0.079        0.045       23.449        6.536        0.078      334.041        3.752      858.756
11/04/2013  02:21:00      -30.364       17.826       -8.718       30.558       19.851       11.238      933.769      394.064      126.302        0.138        0.073       35.210       14.257        0.164      334.048        3.765      858.759
11/04/2013  02:22:00      -46.203       44.090      -11.535       31.876       31.725       19.093     1016.086     1006.503      364.541        0.330        0.119       63.864       17.928        0.079      334.038        3.747      858.765
11/04/2013  02:23:00      -56.250       -8.055      -10.597       12.661       13.995        8.625      160.310      195.874       74.399        0.189        0.022       56.824        5.419        0.009      333.985        3.659      858.769
11/04/2013  02:24:00      -41.674      -12.824      -10.100       12.872       10.372        9.046      165.701      107.573       81.829        0.118        0.018       43.603        3.053        0.005      333.940        3.585      858.770
11/04/2013  02:25:00      -37.734        7.542      -15.709       13.493       19.488       10.624      182.050      379.793      112.867        0.120        0.034       38.480        8.345        0.047      333.961        3.620      858.763
11/04/2013  02:26:00      -54.112        3.589       -4.115       19.862       12.653       13.196      394.495      160.094      174.140        0.184        0.036       54.231        7.469        0.019      333.960        3.619      858.762
11/04/2013  02:27:00      -48.441       14.041      -12.772       10.683       16.744       11.469      114.136      280.365      131.546        0.162        0.026       50.435        6.588        0.017      333.920        3.553      858.758
11/04/2013  02:28:00      -33.468        9.661       -8.077       10.712       12.148       12.239      114.755      147.563      149.788        0.085        0.021       34.835        6.355        0.033      333.950        3.602      858.751
11/04/2013  02:29:00      -44.088       10.200      -11.491       15.792       11.019       14.133      249.378      121.413      199.752        0.138        0.029       45.252        5.249        0.013      333.975        3.643      858.747
11/04/2013  02:30:00      -38.332       -3.138        0.163       24.348       12.594       17.481      592.804      158.611      305.595        0.127        0.053       38.460       14.596        0.144      333.922        3.556      858.743
11/04/2013  02:31:00      -44.633       12.305      -11.739       17.081       26.929       11.765      291.777      725.167      138.405        0.172        0.058       46.298       12.162        0.069      333.939        3.583      858.745
11/04/2013  02:32:00      -49.833       11.467      -11.014       29.541       16.640       11.631      872.691      276.874      135.275        0.201        0.064       51.135        8.387        0.027      333.982        3.655      858.729
11/04/2013  02:33:00      -43.830       18.086      -11.392       18.807       13.113       13.124      353.687      171.960      172.233        0.154        0.035       47.415        8.625        0.033      334.004        3.691      858.706
11/04/2013  02:34:00      -42.332       -4.547       -6.549       15.870       14.647       10.101      251.863      214.526      102.036        0.121        0.028       42.575        5.623        0.017      333.984        3.658      858.679
11/04/2013  02:35:00      -43.773        0.544      -13.119       13.513       14.939        8.313      182.588      223.171       69.109        0.128        0.024       43.776        3.202        0.005      333.990        3.668      858.659
11/04/2013  02:36:00      -52.248        7.539       -9.727       18.837        9.663        8.577      354.815       93.382       73.564        0.170        0.026       52.789        4.249        0.006      333.905        3.527      858.657
11/04/2013  02:37:00      -60.690       30.169      -14.731       12.993       21.496       12.013      168.830      462.057      144.307        0.279        0.039       67.775       12.741        0.035      333.923        3.558      858.655
11/04/2013  02:38:00      -69.493       18.363       -6.867       21.689       12.200       12.823      470.401      148.834      164.440        0.300        0.039       71.879        7.973        0.012      333.864        3.458      858.639
11/04/2013  02:39:00      -57.751       13.976       -8.841       17.676       12.383       10.044      312.425      153.339      100.873        0.209        0.028       59.418        5.724        0.009      333.836        3.412      858.605
11/04/2013  02:40:00      -69.076       13.410      -12.393       19.743       16.105       13.739      389.788      259.361      188.772        0.297        0.042       70.365       10.303        0.021      333.774        3.309      858.582
11/04/2013  02:41:00      -68.871       13.799       -7.600       16.226       14.579        9.935      263.283      212.562       98.708        0.278        0.029       70.240        4.275        0.004      333.780        3.318      858.556
11/04/2013  02:42:00      -36.521        6.013       -8.458        7.838       12.137        9.045       61.432      147.301       81.814        0.087        0.015       37.013        4.605        0.015      333.813        3.375      858.539
11/04/2013  02:43:00      -24.347       36.732       -2.707       24.750       16.895       13.434      612.556      285.431      180.485        0.151        0.054       44.068       13.105        0.088      333.829        3.401      858.520
11/04/2013  02:44:00      -13.440       34.151        6.059       25.106       17.272       17.676      630.298      298.327      312.433        0.131        0.062       36.700       11.993        0.107      333.820        3.385      858.518
11/04/2013  02:45:00       -1.160       64.798      -10.239       11.482       15.346        9.012      131.837      235.486       81.212        0.238        0.022       64.809        5.033        0.006      333.867        3.465      858.520
11/04/2013  02:46:00        0.043       78.034       -6.861       15.509       18.776       13.031      240.534      352.543      169.800        0.345        0.038       78.034       11.804        0.023      333.830        3.402      858.526
11/04/2013  02:47:00      -20.608      105.594      -13.016       17.550       23.825       11.823      308.009      567.637      139.774        0.638        0.051      107.586       11.389        0.011      333.923        3.556      858.545
11/04/2013  02:48:00      -35.440       41.972       -5.876       25.075       40.448       11.850      628.753     1636.014      140.417        0.273        0.120       54.933        8.101        0.022      333.844        3.425      858.573
11/04/2013  02:49:00      -41.835       40.897      -12.416       15.221       24.119        8.912      231.669      581.712       79.422        0.223        0.045       58.504        7.530        0.017      333.758        3.283      858.594
11/04/2013  02:50:00      -31.345       49.521       -7.409       25.195       32.226       13.838      634.811     1038.530      191.482        0.268        0.093       58.608       14.087        0.058      333.818        3.384      858.595
11/04/2013  02:51:00      -29.900       26.568       -4.662       18.998       30.444       11.035      360.914      926.855      121.761        0.152        0.070       39.999        8.360        0.044      333.782        3.323      858.596
11/04/2013  02:52:00      -53.824        7.783       -9.983       13.286       28.979        8.312      176.508      839.784       69.089        0.207        0.054       54.384        9.867        0.033      333.766        3.296      858.598
11/04/2013  02:53:00      -32.573        8.384       -7.750       15.331       22.100       12.289      235.035      488.400      151.009        0.103        0.044       33.635        9.085        0.073      333.684        3.161      858.599
11/04/2013  02:54:00      -38.059       13.161       -9.494       20.420       19.032       11.975      416.987      362.198      143.395        0.132        0.046       40.270        9.340        0.054      333.623        3.058      858.599
11/04/2013  02:55:00      -35.050       10.722       -6.336       17.600       13.441        7.409      309.751      180.657       54.900        0.096        0.027       36.653        6.766        0.034      333.597        3.017      858.590
11/04/2013  02:56:00      -45.478      -12.511      -11.415       20.934       15.097        7.683      438.237      227.922       59.024        0.154        0.036       47.168        7.016        0.022      333.471        2.807      858.584
11/04/2013  02:57:00      -47.492        6.957       -8.951       14.118       15.195       11.404      199.320      230.876      130.054        0.147        0.028       47.999        9.973        0.043      333.536        2.917      858.588
11/04/2013  02:58:00      -46.636       -0.278      -10.536       14.471       11.056       10.978      209.402      122.241      120.509        0.137        0.023       46.637        8.508        0.033      333.429        2.739      858.608
11/04/2013  02:59:00      -69.638       -5.745       -5.557       15.956       17.267        9.999      254.608      298.166       99.988        0.278        0.033       69.875        3.900        0.003      333.413        2.712      858.628
11/04/2013  03:00:00      -45.955        2.460       -8.078       24.736       25.856       15.032      611.872      668.522      225.973        0.184        0.075       46.020       12.964        0.079      333.316        2.552      858.656
11/04/2013  03:01:00      -66.462       22.643       -9.684       22.161       21.530       14.122      491.117      463.530      199.418        0.309        0.058       70.213       13.606        0.038      333.492        2.842      858.664
11/04/2013  03:02:00      -68.681      -13.380      -16.437       17.782       28.681       16.129      316.207      822.577      260.149        0.328        0.070       69.972       15.335        0.048      333.414        2.713      858.666
11/04/2013  03:03:00      -55.453       -2.366       -7.765       16.225       19.561        9.890      263.241      382.631       97.814        0.194        0.037       55.503        8.776        0.025      333.361        2.624      858.666
11/04/2013  03:04:00      -62.968       -6.790      -10.165       13.401       17.516       12.808      179.591      306.821      164.047        0.238        0.033       63.333        8.681        0.019      333.367        2.636      858.665
11/04/2013  03:05:00      -65.368       -0.856      -12.002       16.042       17.616       11.222      257.350      310.320      125.925        0.256        0.035       65.374        8.815        0.018      333.405        2.697      858.672
11/04/2013  03:06:00      -75.458       20.082      -15.265       23.093       23.383       16.278      533.283      546.786      264.970        0.384        0.067       78.085       14.806        0.036      333.451        2.775      858.688
11/04/2013  03:07:00      -57.089       -8.498      -13.049       15.820       15.754       11.608      250.287      248.198      134.755        0.207        0.032       57.718        3.953        0.005      333.369        2.638      858.701
11/04/2013  03:08:00      -53.481       19.128       -7.803       18.317       29.407       14.884      335.525      864.772      221.540        0.235        0.071       56.799       15.881        0.078      333.451        2.772      858.706
11/04/2013  03:09:00      -65.728       -7.598      -10.321       14.730       14.018       10.545      216.965      196.514      111.198        0.250        0.026       66.166        3.605        0.003      333.359        2.620      858.691
11/04/2013  03:10:00      -64.450        0.453      -14.326       13.365       22.065       12.558      178.625      486.879      157.692        0.259        0.041       64.452       11.654        0.033      333.270        2.474      858.687
11/04/2013  03:11:00      -58.011        8.002      -10.258       17.691       20.853       14.100      312.980      434.832      198.823        0.224        0.047       58.560       11.382        0.038      333.255        2.449      858.682
11/04/2013  03:12:00      -70.392       13.068       -9.858       19.288       21.080       12.654      372.032      444.376      160.134        0.310        0.049       71.595        7.083        0.010      333.332        2.577      858.680
11/04/2013  03:13:00      -58.158        9.987       -9.730       17.080       30.546       11.772      291.735      933.076      138.586        0.247        0.068       59.009        8.541        0.021      333.376        2.650      858.667
11/04/2013  03:14:00      -63.757        8.577      -10.016       18.160       32.119       16.740      329.795     1031.646      280.237        0.294        0.082       64.331       16.152        0.063      333.391        2.675      858.646
11/04/2013  03:15:00      -60.919        5.962       -8.851       21.095       21.451       14.179      445.011      460.163      201.031        0.247        0.055       61.210       11.552        0.036      333.371        2.641      858.639
11/04/2013  03:16:00      -62.198       19.853       -7.739       21.237       24.909       18.295      451.014      620.481      334.714        0.286        0.070       65.289       14.924        0.052      333.367        2.634      858.631
11/04/2013  03:17:00      -77.573       59.953      -21.476       26.491       30.678       17.980      701.758      941.145      323.270        0.602        0.098       98.041       10.881        0.012      333.439        2.754      858.637
11/04/2013  03:18:00      -74.804       65.389      -22.197       27.039       33.816       17.046      731.103     1143.490      290.572        0.626        0.108       99.355       16.170        0.026      333.504        2.861      858.643
11/04/2013  03:19:00      -89.437       65.574      -20.183       26.961       28.206       17.426      726.878      795.592      303.680        0.727        0.091      110.901       11.714        0.011      333.461        2.790      858.630
11/04/2013  03:20:00      -60.849       91.757      -23.081       30.109       22.720       11.465      906.541      516.217      131.442        0.710        0.078      110.100       10.825        0.010      333.488        2.835      858.612
11/04/2013  03:21:00      -68.351       32.741       -7.125       22.426       29.435       15.760      502.943      866.437      248.370        0.371        0.081       75.788       14.815        0.038      333.414        2.711      858.590
11/04/2013  03:22:00      -68.855       44.499       -9.523       30.928       28.509       21.450      956.570      812.746      460.100        0.452        0.111       81.983       19.957        0.059      333.428        2.734      858.591
11/04/2013  03:23:00      -85.390       57.505      -18.114       22.677       27.538       16.432      514.259      758.351      270.004        0.623        0.077      102.948       15.701        0.023      333.472        2.809      858.593
11/04/2013  03:24:00      -84.463       58.000      -11.686       29.142       30.211       22.008      849.268      912.677      484.358        0.644        0.112      102.460       20.590        0.040      333.471        2.806      858.593
11/04/2013  03:25:00      -65.685       59.075      -17.674       22.456       55.221       24.085      504.253     3049.368      580.107        0.612        0.207       88.342       30.462        0.119      333.458        2.783      858.595
11/04/2013  03:26:00      -93.451        3.715       -9.287       26.749       28.883       17.458      715.517      834.248      304.769        0.534        0.093       93.525       11.775        0.016      333.360        2.624      858.594
11/04/2013  03:27:00      -61.593      -10.121       -7.954       16.927       19.068       13.839      286.531      363.574      191.526        0.240        0.042       62.419        9.785        0.025      333.305        2.533      858.597
11/04/2013  03:28:00      -78.761       40.256      -17.492       22.497       33.343       15.396      506.108     1111.732      237.045        0.499        0.093       88.452       13.123        0.022      333.385        2.665      858.594
11/04/2013  03:29:00      -90.488       50.197      -20.545       32.741       38.778       20.592     1071.993     1503.724      424.032        0.706        0.150      103.478       13.889        0.018      333.393        2.677      858.583
11/04/2013  03:30:00      -77.464       20.197       -8.125       26.786       27.434       19.632      717.494      752.604      385.410        0.416        0.093       80.053        7.718        0.009      333.347        2.601      858.567
11/04/2013  03:31:00      -66.034       28.594       -9.293       28.169       34.167       18.437      793.494     1167.391      339.922        0.378        0.115       71.959       11.632        0.026      333.348        2.603      858.563
11/04/2013  03:32:00      -83.791       87.358      -27.642       24.459       32.990       13.689      598.261     1088.347      187.385        0.864        0.094      121.047       11.303        0.009      333.365        2.631      858.573
11/04/2013  03:33:00      -71.561       48.066      -14.173       22.480       29.909       16.447      505.366      894.537      270.513        0.465        0.084       86.205       17.038        0.039      333.327        2.568      858.587
11/04/2013  03:34:00     -101.127       67.878      -21.083       33.191       36.131       21.513     1101.631     1305.452      462.826        0.907        0.143      121.795       19.668        0.026      333.403        2.694      858.597
11/04/2013  03:35:00      -57.176       84.631      -19.032       43.157       42.721       22.127     1862.538     1825.043      489.590        0.748        0.209      102.135       22.455        0.048      333.369        2.638      858.606
11/04/2013  03:36:00      -67.255       78.813      -18.309       42.664       54.748       26.630     1820.200     2997.362      709.162        0.830        0.276      103.609       20.665        0.040      333.398        2.686      858.614
11/04/2013  03:37:00      -66.494       75.368      -18.913       35.609       43.381       20.192     1268.035     1881.948      407.719        0.701        0.178      100.508       19.285        0.037      333.382        2.661      858.627
11/04/2013  03:38:00      -62.746       72.210      -19.640       31.927       38.076       20.713     1019.338     1449.786      429.019        0.622        0.145       95.663       12.904        0.018      333.379        2.654      858.654
11/04/2013  03:39:00      -60.618      139.492      -12.836       45.299      100.926       30.055     2052.014    10185.990      903.303        1.822        0.657      152.094       32.290        0.045      333.389        2.670      858.666
11/04/2013  03:40:00     -115.956       98.470      -37.334       22.103       50.637       21.132      488.526     2564.125      446.551        1.402        0.175      152.126       21.961        0.021      333.482        2.825      858.678
11/04/2013  03:41:00      -75.845       59.835       -9.685       37.143       33.928       32.358     1379.567     1151.101     1047.072        0.650        0.179       96.606       16.440        0.029      333.436        2.749      858.699
11/04/2013  03:42:00     -132.358      113.682      -37.681       42.757       45.697       30.065     1828.204     2088.258      903.886        1.834        0.241      174.477       28.276        0.026      333.418        2.717      858.710
11/04/2013  03:43:00     -128.673       79.783      -10.939       45.459       36.220       33.570     2066.478     1311.858     1126.916        1.377        0.225      151.400       24.025        0.025      333.443        2.759      858.688
11/04/2013  03:44:00     -114.650       95.808      -31.357       48.240       45.485       26.557     2327.092     2068.846      705.278        1.420        0.255      149.412       28.430        0.036      333.458        2.784      858.661
11/04/2013  03:45:00      -95.808       81.741      -11.420       47.522       46.836       30.730     2258.357     2193.626      944.339        1.069        0.270      125.939       23.767        0.036      333.435        2.747      858.635
11/04/2013  03:46:00      -59.285       56.118      -13.411       41.829       31.628       25.675     1749.646     1000.327      659.193        0.513        0.170       81.633       24.517        0.090      333.371        2.642      858.630
11/04/2013  03:47:00      -80.160       92.971      -17.052       38.303       51.267       27.692     1467.090     2628.335      766.833        1.011        0.243      122.757       24.061        0.038      333.335        2.582      858.622
11/04/2013  03:48:00      -99.871       88.293      -16.006       40.938       49.023       31.020     1675.957     2403.212      962.228        1.153        0.252      133.303       21.629        0.026      333.363        2.628      858.627
11/04/2013  03:49:00     -123.975       99.745      -32.035       49.212       56.458       33.530     2421.795     3187.485     1124.256        1.654        0.337      159.119       30.311        0.036      333.396        2.682      858.628
11/04/2013  03:50:00      -88.333       92.374      -20.880       37.213       41.512       28.207     1384.811     1723.279      795.645        1.034        0.195      127.811       22.392        0.031      333.407        2.701      858.636
11/04/2013  03:51:00      -76.263       99.532       -1.454       51.702       45.397       38.559     2673.136     2060.898     1486.808        1.097        0.311      125.390       29.800        0.056      333.389        2.672      858.628
11/04/2013  03:52:00      -70.900       79.631      -12.204       52.081       55.029       28.898     2712.419     3028.151      835.085        0.905        0.329      106.620       19.523        0.034      333.450        2.771      858.620
11/04/2013  03:53:00      -61.168      166.109      -11.020       44.016       78.244       29.798     1937.398     6122.181      887.942        2.020        0.447      177.013       29.662        0.028      333.415        2.712      858.615
11/04/2013  03:54:00      -60.287       96.638       -8.198       43.203       36.678       32.914     1866.458     1345.300     1083.309        0.867        0.215      113.901       30.400        0.071      333.454        2.778      858.613
11/04/2013  03:55:00      -40.580      128.101      -13.722       37.353       41.543       23.391     1395.275     1725.791      547.151        1.096        0.183      134.375       19.943        0.022      333.510        2.871      858.617
11/04/2013  03:56:00      -24.952      170.498      -19.245       43.885       49.766       25.380     1925.871     2476.634      644.119        1.755        0.252      172.315       24.813        0.021      333.451        2.773      858.605
11/04/2013  03:57:00      -39.492      107.980      -15.832       38.753       60.561       15.906     1501.759     3667.575      253.008        0.945        0.271      114.976        5.945        0.003      333.472        2.808      858.588
11/04/2013  03:58:00      -68.922       95.190      -15.937       38.731       27.596       24.585     1500.089      761.545      604.423        0.847        0.143      117.522       19.992        0.029      333.466        2.798      858.589
11/04/2013  03:59:00      -62.243       65.953      -12.784       44.407       43.293       24.645     1972.007     1874.292      607.353        0.642        0.223       90.686       22.114        0.059      333.493        2.843      858.599
11/04/2013  04:00:00      -90.567      133.097      -24.550       37.681       55.473       26.391     1419.837     3077.245      696.507        1.586        0.260      160.988       24.113        0.022      333.474        2.811      858.614
11/04/2013  04:01:00      -74.283       71.202      -18.820       44.039       38.843       26.922     1939.463     1508.815      724.790        0.756        0.209      102.896       24.329        0.056      333.444        2.762      858.626
11/04/2013  04:02:00      -75.372      153.986      -19.818       43.632       33.731       29.006     1903.764     1137.774      841.372        1.683        0.194      171.443       20.351        0.014      333.484        2.828      858.631
11/04/2013  04:03:00      -61.097       87.562       -5.939       42.172       38.324       27.489     1778.518     1468.725      755.649        0.772        0.200      106.770       20.052        0.035      333.537        2.915      858.636
11/04/2013  04:04:00      -79.403       94.554      -21.828       41.658       45.480       33.530     1735.425     2068.441     1124.294        1.032        0.246      123.472       27.237        0.049      333.509        2.870      858.662
11/04/2013  04:05:00     -109.160      154.948      -36.077       43.029       49.348       29.497     1851.482     2435.224      870.096        2.119        0.258      189.539       27.961        0.022      333.468        2.799      858.705
11/04/2013  04:06:00     -108.375      117.472      -33.511       30.088       42.912       21.614      905.267     1841.451      467.161        1.494        0.161      159.828       19.027        0.014      333.450        2.771      858.749
11/04/2013  04:07:00      -86.641       90.453      -17.762       50.206       48.431       30.491     2520.683     2345.606      929.724        1.090        0.290      125.254       27.257        0.047      333.527        2.900      858.779
11/04/2013  04:08:00      -89.568      114.127      -27.771       41.782       55.306       25.950     1745.707     3058.749      673.410        1.365        0.274      145.078       27.197        0.035      333.526        2.898      858.807
11/04/2013  04:09:00      -90.271       93.061      -22.473       40.853       71.142       31.280     1668.976     5061.153      978.453        1.251        0.385      129.650       22.475        0.030      333.541        2.924      858.825
11/04/2013  04:10:00      -93.209       80.449      -20.691       41.745       61.031       22.571     1742.651     3724.830      509.465        1.078        0.299      123.126       21.165        0.030      333.526        2.897      858.845
11/04/2013  04:11:00      -61.573       92.619      -15.378       30.888       69.803       26.190      954.046     4872.450      685.930        0.956        0.326      111.218       20.886        0.035      333.576        2.981      858.864
11/04/2013  04:12:00      -74.581       94.154      -30.557       41.675       57.449       23.880     1736.771     3300.352      570.274        1.048        0.280      120.113       24.205        0.041      333.563        2.959      858.867
11/04/2013  04:13:00      -46.465       48.813       -9.727       39.884       51.907       30.608     1590.759     2694.344      936.857        0.493        0.261       67.392       29.961        0.198      333.611        3.038      858.856
11/04/2013  04:14:00      -87.190       70.275      -15.028       33.129       50.425       23.430     1097.537     2542.643      548.969        0.848        0.209      111.985       18.012        0.026      333.562        2.958      858.846
11/04/2013  04:15:00     -139.007      112.004      -26.848       56.664       68.467       34.589     3210.789     4687.668     1196.406        2.084        0.455      178.516       39.088        0.048      333.525        2.894      858.855
11/04/2013  04:16:00     -103.421      139.925      -26.957       61.382       46.371       35.023     3767.805     2150.227     1226.589        1.907        0.357      173.997       33.154        0.036      333.508        2.866      858.876
11/04/2013  04:17:00      -68.835       97.659      -17.239       41.623       57.133       30.739     1732.475     3264.136      944.894        1.026        0.297      119.480       30.819        0.067      333.544        2.928      858.902
11/04/2013  04:18:00     -147.028      161.829      -38.463       48.865       52.906       32.936     2387.799     2799.023     1084.749        2.778        0.314      218.646       30.470        0.019      333.528        2.898      858.928
11/04/2013  04:19:00     -123.123      138.104      -28.820       59.889       51.487       37.139     3586.728     2650.873     1379.316        2.134        0.381      185.019       37.467        0.041      333.508        2.865      858.948
11/04/2013  04:20:00      -86.761      117.963      -28.260       43.005       63.694       27.713     1849.419     4056.892      767.983        1.446        0.334      146.434       29.972        0.042      333.531        2.905      858.969
11/04/2013  04:21:00     -106.538      106.333      -24.548       43.303       54.614       23.966     1875.148     2982.662      574.369        1.434        0.272      150.522       19.035        0.016      333.535        2.912      858.986
11/04/2013  04:22:00     -110.196      113.571      -30.638       42.371       58.699       27.488     1795.301     3445.612      755.565        1.599        0.300      158.245       24.505        0.024      333.541        2.921      858.996
11/04/2013  04:23:00     -162.457      159.077      -37.603       65.009       62.740       39.915     4226.163     3936.287     1593.235        3.143        0.488      227.372       42.550        0.035      333.538        2.914      859.013
11/04/2013  04:24:00     -120.582      164.717      -36.106       43.521       47.894       28.218     1894.111     2293.827      796.228        2.398        0.249      204.136       27.399        0.018      333.526        2.895      859.030
11/04/2013  04:25:00     -111.770      116.343      -22.641       45.138       54.076       37.483     2037.412     2924.208     1404.974        1.645        0.318      161.333       27.438        0.029      333.528        2.899      859.040
11/04/2013  04:26:00      -78.401      138.950      -21.870       37.183       54.325       28.192     1382.563     2951.181      794.798        1.553        0.256      159.543       20.996        0.017      333.562        2.957      859.070
11/04/2013  04:27:00      -91.440      108.286      -15.277       45.916       52.377       37.253     2108.249     2743.358     1387.756        1.328        0.312      141.729       34.570        0.059      333.598        3.018      859.104
11/04/2013  04:28:00     -113.423       79.295      -26.216       69.792       45.234       33.817     4870.924     2046.142     1143.556        1.395        0.403      138.393       26.577        0.037      333.594        3.010      859.135
11/04/2013  04:29:00     -122.250      168.130      -32.118       58.640       50.097       31.991     3438.688     2509.743     1023.417        2.561        0.349      207.877       30.867        0.022      333.580        2.985      859.176
11/04/2013  04:30:00     -141.612      137.438      -32.582       54.533       51.170       32.272     2973.833     2618.382     1041.494        2.332        0.332      197.340       28.634        0.021      333.580        2.985      859.191
11/04/2013  04:31:00     -119.839      116.480      -25.346       55.721       61.038       31.809     3104.820     3725.682     1011.841        1.821        0.392      167.120       33.639        0.041      333.590        3.002      859.187
11/04/2013  04:32:00     -101.970       89.868      -15.122       39.448       43.949       30.890     1556.124     1931.520      954.207        1.157        0.222      135.919       26.475        0.038      333.579        2.987      859.171
11/04/2013  04:33:00      -94.421       61.454       -7.522       68.786       59.612       40.625     4731.515     3553.593     1650.373        1.134        0.497      112.658       40.212        0.127      333.601        3.024      859.161
11/04/2013  04:34:00     -104.079      139.888      -22.207       50.883       54.071       30.067     2589.128     2923.688      904.006        1.865        0.321      174.359       28.447        0.027      333.602        3.024      859.169
11/04/2013  04:35:00      -93.712      143.569      -25.087       52.477       56.476       32.876     2753.795     3189.532     1080.839        1.852        0.351      171.447       27.242        0.025      333.602        3.023      859.191
11/04/2013  04:36:00      -89.376      160.307      -22.209       54.609       54.878       37.810     2982.096     3011.612     1429.595        2.080        0.371      183.539       30.021        0.027      333.610        3.036      859.218
11/04/2013  04:37:00     -125.348       97.666      -14.136       74.598       47.709       42.461     5564.870     2276.105     1802.952        1.755        0.482      158.905       42.136        0.070      333.603        3.025      859.241
11/04/2013  04:38:00      -80.780       84.072       -9.699       41.980       57.968       30.527     1762.339     3360.325      931.896        0.987        0.303      116.592       23.865        0.042      333.600        3.022      859.266
11/04/2013  04:39:00     -101.038      141.654      -33.420       56.683       74.043       35.168     3213.007     5482.349     1236.818        2.066        0.497      173.996       37.378        0.046      333.612        3.041      859.277
11/04/2013  04:40:00      -59.436       98.322      -11.656       48.428       50.314       27.145     2345.228     2531.484      736.875        0.947        0.281      114.890       31.578        0.076      333.656        3.114      859.292
11/04/2013  04:41:00      -90.693      101.454      -25.298       42.438       54.895       28.853     1800.992     3013.512      832.520        1.240        0.282      136.082       26.584        0.038      333.624        3.061      859.308
11/04/2013  04:42:00      -79.064       89.507      -19.922       48.310       44.937       30.060     2333.882     2019.327      903.591        0.996        0.263      119.426       14.845        0.015      333.693        3.176      859.321
11/04/2013  04:43:00     -127.345      119.067      -34.350       43.007       48.170       27.853     1849.614     2320.362      775.762        1.826        0.247      174.338       31.898        0.033      333.636        3.081      859.335
11/04/2013  04:44:00     -106.416      111.435      -19.633       48.217       52.235       32.227     2324.836     2728.472     1038.576        1.511        0.305      154.084       21.403        0.019      333.615        3.047      859.352
11/04/2013  04:45:00     -132.947      109.485      -25.330       41.404       49.575       24.395     1714.257     2457.722      595.110        1.753        0.238      172.226       21.398        0.015      333.627        3.066      859.375
11/04/2013  04:46:00      -82.375      107.680      -19.453       48.741       53.633       30.066     2375.704     2876.494      903.978        1.246        0.308      135.575       31.105        0.053      333.633        3.075      859.397
11/04/2013  04:47:00      -70.195       66.501      -17.353       51.575       49.916       26.559     2659.949     2491.585      705.406        0.775        0.293       96.694       18.774        0.038      333.672        3.139      859.410
11/04/2013  04:48:00     -134.355      138.296      -40.664       68.387       70.673       30.292     4676.828     4994.730      917.607        2.471        0.529      192.814       34.554        0.032      333.637        3.080      859.431
11/04/2013  04:49:00     -131.471      152.419      -27.210       47.714       57.231       37.683     2276.655     3275.437     1420.015        2.411        0.349      201.286       37.511        0.035      333.652        3.106      859.460
11/04/2013  04:50:00     -124.838      127.518      -21.411       56.787       57.363       36.962     3224.734     3290.466     1366.212        2.009        0.394      178.453       40.789        0.052      333.689        3.167      859.488
11/04/2013  04:51:00      -68.522       75.835      -12.195       32.657       47.954       22.868     1066.453     2299.605      522.949        0.724        0.194      102.207       21.638        0.045      333.689        3.168      859.517
11/04/2013  04:52:00      -56.758      107.045      -13.775       36.725       63.616       29.175     1348.733     4047.049      851.183        1.056        0.312      121.161       29.445        0.059      333.729        3.234      859.534
11/04/2013  04:53:00      -55.692       67.942       -8.958       33.710       60.374       30.494     1136.354     3645.078      929.857        0.675        0.286       87.850       23.664        0.073      333.765        3.294      859.544
11/04/2013  04:54:00     -115.796       87.514      -24.648       51.281       41.872       27.657     2629.716     1753.272      764.887        1.341        0.257      145.146       29.993        0.043      333.741        3.253      859.554
11/04/2013  04:55:00      -72.598       66.573       -6.163       61.682       41.810       25.188     3804.650     1748.036      634.436        0.796        0.309       98.501       18.344        0.035      333.764        3.293      859.562
11/04/2013  04:56:00      -86.093       74.327       -8.604       50.733       43.459       28.022     2573.829     1888.711      785.230        0.913        0.262      113.739       23.480        0.043      333.721        3.221      859.569
11/04/2013  04:57:00      -59.606      101.610       -7.533       40.639       58.513       37.025     1651.523     3423.733     1370.883        1.019        0.322      117.803       27.498        0.054      333.763        3.290      859.578
11/04/2013  04:58:00      -63.181       63.215      -13.595       33.977       37.477       22.560     1154.430     1404.545      508.960        0.562        0.153       89.375       20.795        0.054      333.843        3.423      859.578
11/04/2013  04:59:00      -60.646      102.479      -19.876       62.810       65.055       35.459     3945.097     4232.179     1257.359        1.200        0.472      119.079       27.970        0.055      333.800        3.352      859.566
11/04/2013  05:00:00      -64.389      103.076      -12.120       38.652       55.925       33.703     1493.980     3127.655     1135.887        1.034        0.288      121.534       30.539        0.063      333.796        3.345      859.542
11/04/2013  05:01:00      -92.641      137.374      -17.739       47.499       62.961       33.744     2256.151     3964.030     1138.627        1.756        0.368      165.692       26.925        0.026      333.765        3.293      859.503
11/04/2013  05:02:00     -121.986      116.806      -30.563       66.423       52.191       35.278     4411.953     2723.886     1244.520        1.892        0.419      168.892       30.453        0.033      333.738        3.248      859.469
11/04/2013  05:03:00     -121.053       95.187      -25.531       47.296       40.479       30.195     2236.918     1638.519      911.765        1.458        0.239      153.995       28.386        0.034      333.731        3.236      859.440
11/04/2013  05:04:00     -106.937      129.505      -23.948       46.265       81.668       35.280     2140.479     6669.729     1244.672        1.942        0.503      167.950       29.997        0.032      333.733        3.239      859.420
11/04/2013  05:05:00      -87.384       98.447      -18.468       42.956       46.997       25.318     1845.228     2208.724      641.023        1.118        0.235      131.635       28.063        0.045      333.727        3.230      859.413
11/04/2013  05:06:00     -122.533       56.995      -13.709       47.502       52.223       24.029     2256.408     2727.205      577.395        1.200        0.278      135.140       12.028        0.008      333.733        3.240      859.420
11/04/2013  05:07:00     -104.200       79.224      -24.174       45.677       53.969       26.859     2086.382     2912.642      721.413        1.172        0.286      130.897       33.127        0.064      333.724        3.226      859.439
11/04/2013  05:08:00     -126.294      103.360      -35.112       39.043       48.258       19.545     1524.385     2328.800      381.997        1.605        0.212      163.198       17.912        0.012      333.723        3.223      859.445
11/04/2013  05:09:00      -80.804       85.783      -18.161       43.726       34.500       24.295     1911.929     1190.240      590.246        0.895        0.185      117.847       18.312        0.024      333.742        3.255      859.452
11/04/2013  05:10:00      -95.171       88.454      -23.252       32.266       45.662       25.531     1041.067     2085.040      651.837        1.060        0.189      129.930       26.053        0.040      333.765        3.295      859.444
11/04/2013  05:11:00      -83.437      120.350      -21.521       47.421       59.897       29.620     2248.705     3587.694      877.363        1.431        0.336      146.444       35.976        0.060      333.699        3.184      859.443
11/04/2013  05:12:00      -86.842       89.073      -18.860       39.311       33.287       21.087     1545.335     1108.044      444.645        0.946        0.155      124.400       18.776        0.023      333.729        3.235      859.452
11/04/2013  05:13:00      -87.591      111.499      -20.400       30.397       65.607       30.402      923.976     4304.266      924.290        1.334        0.308      141.789       31.925        0.051      333.756        3.279      859.456
11/04/2013  05:14:00      -94.176       96.925      -14.908       54.618       50.264       26.743     2983.110     2526.436      715.162        1.235        0.311      135.143       22.541        0.028      333.742        3.255      859.463
11/04/2013  05:15:00     -104.885       67.360      -22.052       33.605       35.712       26.077     1129.329     1275.351      680.024        0.955        0.154      124.653       19.014        0.023      333.772        3.305      859.456
11/04/2013  05:16:00     -131.341      137.209      -29.960       63.701       68.283       40.218     4057.817     4662.532     1617.508        2.365        0.517      189.939       38.779        0.042      333.745        3.257      859.448
11/04/2013  05:17:00      -68.076       14.715       -5.804       38.329       38.176       21.813     1469.106     1457.370      475.826        0.414        0.170       69.648       16.180        0.054      333.797        3.348      859.434
11/04/2013  05:18:00      -78.550       21.598       -9.283       52.183       62.649       27.487     2723.096     3924.924      755.537        0.706        0.370       81.465       24.200        0.088      333.727        3.232      859.434
11/04/2013  05:19:00      -89.190       87.323      -19.220       38.169       47.486       25.334     1456.907     2254.929      641.794        1.015        0.218      124.820       24.900        0.040      333.721        3.221      859.445
11/04/2013  05:20:00     -122.370       64.692      -20.253       39.075       31.082       25.456     1526.824      966.071      647.983        1.135        0.157      138.418       19.321        0.019      333.723        3.226      859.450
11/04/2013  05:21:00      -69.044        4.472       -1.445       59.759       29.885       24.657     3571.173      893.116      607.967        0.493        0.254       69.189       30.208        0.191      333.718        3.216      859.459
11/04/2013  05:22:00     -131.001       74.638      -29.052       32.527       37.530       25.154     1058.024     1408.534      632.704        1.334        0.155      150.772       19.856        0.017      333.739        3.252      859.480
11/04/2013  05:23:00     -104.029       53.201      -14.700       43.570       30.730       24.646     1898.369      944.341      607.401        0.866        0.173      116.843       20.654        0.031      333.702        3.189      859.501
11/04/2013  05:24:00     -114.571       90.970      -29.063       24.395       34.971       20.681      595.132     1222.966      427.688        1.225        0.112      146.294       20.287        0.019      333.712        3.206      859.504
11/04/2013  05:25:00      -83.136       99.323      -22.783       35.275       49.441       22.224     1244.324     2444.385      493.906        1.074        0.209      129.525       14.689        0.013      333.673        3.140      859.494
11/04/2013  05:26:00     -117.258       58.649      -25.348       37.945       35.737       18.660     1439.854     1277.156      348.212        1.045        0.153      131.107       20.556        0.025      333.675        3.146      859.479
11/04/2013  05:27:00      -69.393       26.958       -9.227       15.261       22.693       12.732      232.908      514.969      162.106        0.327        0.045       74.445        6.661        0.008      333.725        3.226      859.478
11/04/2013  05:28:00      -67.735       13.049      -18.750       23.185       21.583       13.345      537.562      465.808      178.087        0.315        0.059       68.980       13.063        0.036      333.705        3.193      859.488
11/04/2013  05:29:00      -54.456        1.019       -7.715       29.540       18.019        9.277      872.607      324.692       86.062        0.215        0.064       54.465        7.975        0.021      333.721        3.221      859.515
11/04/2013  05:30:00      -67.031        4.063      -14.001       23.289       23.119       18.573      542.368      534.499      344.961        0.306        0.071       67.154       14.558        0.047      333.699        3.185      859.539
11/04/2013  05:31:00      -43.542       60.755      -13.362       21.003       24.228       15.511      441.121      586.977      240.578        0.352        0.063       74.747       10.068        0.018      333.618        3.052      859.555
11/04/2013  05:32:00      -65.817       18.706       -5.664       14.732       17.977       12.968      217.038      323.174      168.158        0.271        0.035       68.423        7.984        0.014      333.683        3.157      859.554
11/04/2013  05:33:00      -74.668       -5.990      -10.193       22.597       14.922       10.557      510.639      222.660      111.450        0.328        0.042       74.908       12.397        0.027      333.681        3.154      859.557
11/04/2013  05:34:00      -65.091      -12.627       -5.206       18.795       24.265       14.150      353.254      588.794      200.229        0.278        0.057       66.305       12.077        0.033      333.661        3.121      859.561
11/04/2013  05:35:00      -67.562      -13.120       -4.649       21.727       19.044       12.226      472.049      362.658      149.464        0.287        0.049       68.824       10.396        0.023      333.586        2.998      859.578
11/04/2013  05:36:00      -77.920      -28.863      -12.016       19.727       21.809       13.267      389.138      475.633      176.019        0.404        0.052       83.093        3.276        0.002      333.581        2.990      859.585
11/04/2013  05:37:00      -75.488      -42.221       -2.818       42.246       19.616       17.209     1784.725      384.801      296.152        0.498        0.123       86.493       17.061        0.039      333.515        2.881      859.591
11/04/2013  05:38:00     -100.088      -61.853       -2.674       31.964       22.638       17.210     1021.667      512.500      296.172        0.784        0.092      117.658       18.269        0.024      333.518        2.885      859.592
11/04/2013  05:39:00      -85.786      -40.208       -4.901       38.468       19.390       20.679     1479.809      375.962      427.632        0.564        0.114       94.741       21.046        0.049      333.538        2.918      859.592
11/04/2013  05:40:00      -85.451      -52.011       -4.205       23.793       26.438       12.938      566.114      698.944      167.395        0.573        0.072      100.035       10.320        0.011      333.538        2.918      859.593
11/04/2013  05:41:00      -98.431      -35.671       -9.387       16.862       18.065       11.823      284.334      326.355      139.783        0.590        0.038      104.695        9.193        0.008      333.533        2.910      859.611
11/04/2013  05:42:00      -58.065      -59.807       -3.189       33.196       34.762       16.264     1101.946     1208.424      264.513        0.477        0.129       83.357       16.162        0.038      333.545        2.930      859.616
11/04/2013  05:43:00      -41.255      -23.472        6.261       32.032       18.134       16.796     1026.058      328.825      282.107        0.196        0.082       47.465       17.562        0.137      333.574        2.977      859.632
11/04/2013  05:44:00      -71.112      -16.267       -7.503       29.794       26.698       17.908      887.666      712.806      320.701        0.365        0.096       72.949       17.470        0.057      333.695        3.178      859.648
11/04/2013  05:45:00      -99.608      -39.094      -11.981       21.492       29.188       14.706      461.927      851.945      216.252        0.656        0.077      107.005       13.464        0.016      333.523        2.893      859.679
11/04/2013  05:46:00     -101.906        4.956      -14.695       22.259       15.053       14.708      495.479      226.590      216.336        0.578        0.047      102.026       12.190        0.014      333.469        2.802      859.697
11/04/2013  05:47:00     -103.465      -14.253      -14.663       26.470       20.954       18.294      700.674      439.085      334.686        0.630        0.074      104.442       15.753        0.023      333.584        2.993      859.720
11/04/2013  05:48:00     -117.523       -4.606      -20.935       16.338       15.016       15.708      266.947      225.492      246.742        0.750        0.037      117.613       11.369        0.009      333.512        2.874      859.736
11/04/2013  05:49:00     -120.306       -1.952      -14.821       11.966       14.777       10.416      143.193      218.370      108.501        0.758        0.024      120.322        4.866        0.002      333.359        2.622      859.749
11/04/2013  05:50:00     -121.317        6.549      -15.167       20.481       14.331       11.886      419.474      205.388      141.266        0.788        0.038      121.493        7.507        0.004      333.295        2.515      859.759
11/04/2013  05:51:00     -131.039        2.296      -16.864       18.601       15.277       13.839      345.986      233.373      191.522        0.912        0.039      131.059        8.340        0.004      333.290        2.509      859.768
11/04/2013  05:52:00     -113.598       10.678      -14.419       25.651       20.639       13.330      657.965      425.987      177.693        0.724        0.063      114.099        9.259        0.007      333.226        2.402      859.791
11/04/2013  05:53:00     -113.059       20.937       -9.272       31.388       27.474       16.523      985.207      754.799      272.993        0.766        0.101      114.981       15.168        0.017      333.212        2.379      859.808
11/04/2013  05:54:00     -128.217       34.937      -17.393       31.801       25.278       18.989     1011.282      638.967      360.592        0.999        0.101      132.892       16.655        0.016      333.255        2.450      859.833
11/04/2013  05:55:00     -116.806       36.544      -19.911       31.097       24.379       18.273      967.038      594.347      333.918        0.864        0.095      122.389       12.360        0.010      333.364        2.629      859.851
11/04/2013  05:56:00      -90.332       34.263      -16.429       19.414       35.835       14.737      376.886     1284.155      217.189        0.574        0.094       96.612        9.733        0.010      333.280        2.491      859.870
11/04/2013  05:57:00     -113.641       30.669      -16.372       29.061       33.122       22.262      844.563     1097.077      495.601        0.828        0.122      117.706       18.965        0.026      333.318        2.555      859.892
11/04/2013  05:58:00     -113.006       10.678      -15.245       24.933       23.559       16.734      621.654      555.038      280.023        0.729        0.073      113.509       10.951        0.009      333.269        2.473      859.917
11/04/2013  05:59:00      -87.529       36.447      -14.515       33.662       22.496       18.371     1133.120      506.059      337.486        0.559        0.099       94.814       16.416        0.030      333.259        2.457      859.936
11/04/2013  06:00:00     -104.017       31.599      -14.077       48.259       26.508       17.623     2328.950      702.651      310.564        0.768        0.167      108.711       11.625        0.011      333.255        2.449      859.955
11/04/2013  06:01:00      -68.636       44.809       -6.573       41.094       63.989       21.904     1688.741     4094.638      479.785        0.651        0.313       81.967       21.682        0.070      333.169        2.308      859.971
11/04/2013  06:02:00     -100.671      125.108      -28.293       49.346       46.663       27.638     2435.023     2177.475      763.868        1.598        0.269      160.582       31.940        0.040      333.127        2.236      859.973
11/04/2013  06:03:00     -113.732      126.081      -31.346       35.919       38.067       26.141     1290.177     1449.105      683.365        1.662        0.171      169.798       25.390        0.022      333.144        2.265      859.964
11/04/2013  06:04:00      -82.259      104.743      -11.279       47.263       52.824       36.118     2233.825     2790.379     1304.478        1.210        0.316      133.183       28.989        0.047      333.115        2.217      859.959
11/04/2013  06:05:00     -120.187       97.998      -27.228       38.269       44.186       28.550     1464.509     1952.424      815.075        1.451        0.212      155.076       24.061        0.024      333.122        2.231      859.959
11/04/2013  06:06:00     -109.900       93.497      -23.492       25.253       56.159       23.493      637.712     3153.818      551.942        1.286        0.217      144.291       26.585        0.034      333.091        2.178      859.967
11/04/2013  06:07:00      -91.743       15.950      -10.208       29.405       28.314       15.857      864.659      801.686      251.438        0.535        0.096       93.119        9.236        0.010      333.066        2.140      859.974
11/04/2013  06:08:00      -92.934       39.794      -16.258       31.225       49.648       22.268      975.005     2464.878      495.874        0.721        0.197      101.096       17.508        0.030      333.008        2.040      859.990
11/04/2013  06:09:00      -79.486       76.211       -9.484       41.095       32.957       21.503     1688.772     1086.150      462.391        0.773        0.162      110.119       10.429        0.009      333.000        2.028      860.000
11/04/2013  06:10:00      -99.043       13.131      -14.071       30.160       34.526       13.668      909.610     1192.033      186.806        0.623        0.114       99.909        8.806        0.008      332.983        2.001      860.014
11/04/2013  06:11:00     -125.555        1.548      -13.684       35.721       59.720       24.756     1276.010     3566.490      612.853        1.070        0.273      125.564       24.160        0.037      332.932        1.916      860.025
11/04/2013  06:12:00     -133.563       13.885      -17.527       29.161       36.308       26.021      850.342     1318.246      677.071        1.059        0.142      134.283       20.376        0.023      332.928        1.908      860.037
11/04/2013  06:13:00     -100.702        9.581      -13.475       40.121       32.255       20.045     1609.677     1040.400      401.789        0.673        0.153      101.157       21.053        0.043      332.895        1.856      860.051
11/04/2013  06:14:00      -93.265       67.766      -22.515       37.607       40.592       28.792     1414.317     1647.700      829.005        0.884        0.195      115.285       20.289        0.031      332.937        1.924      860.071
11/04/2013  06:15:00     -125.920       50.581      -13.956       49.205       41.401       22.392     2421.177     1714.058      501.389        1.162        0.232      135.699       18.892        0.019      332.892        1.850      860.093
11/04/2013  06:16:00      -88.924        0.554       -8.759       35.140       35.574       24.214     1234.817     1265.543      586.312        0.554        0.154       88.926       21.002        0.056      332.864        1.807      860.105
11/04/2013  06:17:00      -68.656        6.960       -3.947       19.725       28.270       16.825      389.064      799.188      283.081        0.312        0.074       69.008        9.249        0.018      332.885        1.840      860.112
11/04/2013  06:18:00      -71.458      -48.217      -11.418       44.825       33.175       25.095     2009.311     1100.613      629.742        0.565        0.187       86.204       16.929        0.039      332.882        1.834      860.120
11/04/2013  06:19:00      -35.724      -23.016        4.570       42.812       27.964       19.794     1832.865      781.976      391.795        0.242        0.150       42.497       19.505        0.211      332.805        1.708      860.126
11/04/2013  06:20:00      -59.719      -11.175       -7.391       35.044       34.498       24.865     1228.063     1190.082      618.282        0.339        0.152       60.756       14.738        0.059      332.780        1.666      860.133
11/04/2013  06:21:00      -99.042       20.724      -19.351       30.616       33.836       23.001      937.358     1144.844      529.053        0.661        0.131      101.187       14.717        0.021      332.739        1.598      860.142
11/04/2013  06:22:00     -108.019       18.791      -15.880       22.536       26.755       16.424      507.867      715.832      269.742        0.688        0.075      109.641       11.518        0.011      332.800        1.698      860.146
11/04/2013  06:23:00      -92.909       16.497      -15.377       30.260       22.235       14.577      915.658      494.375      212.479        0.538        0.081       94.362       13.853        0.022      332.798        1.697      860.155
11/04/2013  06:24:00      -58.191       18.258      -11.970       17.235       25.849       14.659      297.055      668.160      214.881        0.252        0.059       60.988       13.119        0.046      332.794        1.690      860.170
11/04/2013  06:25:00      -91.716       21.119      -23.525       24.748       59.709       20.562      612.466     3565.176      422.782        0.701        0.230       94.116       21.896        0.054      332.787        1.677      860.190
11/04/2013  06:26:00      -89.423       17.562       -9.412       30.028       36.148       20.742      901.695     1306.677      430.222        0.552        0.132       91.131       10.427        0.013      332.774        1.655      860.207
11/04/2013  06:27:00     -131.188       18.043      -16.122       24.593       24.984       16.019      604.819      624.222      256.607        0.964        0.074      132.423        5.175        0.002      332.777        1.662      860.222
11/04/2013  06:28:00     -114.226       12.540      -21.437       45.236       28.675       23.024     2046.265      822.266      530.115        0.853        0.170      114.913       14.746        0.016      332.735        1.590      860.236
11/04/2013  06:29:00      -85.521      -13.493      -13.835       39.018       73.813       32.601     1522.418     5448.431     1062.840        0.786        0.402       86.579       28.848        0.111      332.785        1.674      860.248
11/04/2013  06:30:00      -94.747       51.939       -9.283       40.813       65.933       31.427     1665.695     4347.147      987.665        0.938        0.350      108.049       24.628        0.052      332.730        1.583      860.271
11/04/2013  06:31:00     -110.950      146.000      -29.990       50.007       60.009       32.042     2500.745     3601.040     1026.691        2.083        0.356      183.374       27.462        0.022      332.745        1.605      860.295
11/04/2013  06:32:00     -115.906      168.265      -32.133       70.650       62.008       36.995     4991.491     3844.995     1368.666        2.649        0.510      204.321       39.254        0.037      332.823        1.734      860.310
11/04/2013  06:33:00     -133.675      119.131      -28.945       57.430       54.756       33.151     3298.227     2998.222     1098.992        2.015        0.370      179.057       37.187        0.043      332.901        1.862      860.324
11/04/2013  06:34:00      -62.832      180.489      -19.370       51.309      103.704       38.142     2632.637    10754.614     1454.816        2.587        0.742      191.113       32.234        0.028      332.967        1.973      860.336
11/04/2013  06:35:00      -84.482      157.635      -12.073       42.624      116.316       31.727     1816.825    13529.415     1006.629        2.424        0.818      178.846       32.057        0.032      332.986        2.005      860.346
11/04/2013  06:36:00      -83.482      151.093      -24.251       75.203      115.099       42.933     5655.564    13247.796     1843.241        2.556        1.037      172.622       46.915        0.074      332.939        1.926      860.352
11/04/2013  06:37:00     -133.253      163.233      -37.973       57.580      100.256       38.993     3315.421    10051.275     1520.456        3.036        0.744      210.717       43.991        0.044      332.957        1.955      860.340
11/04/2013  06:38:00     -114.096      124.711      -24.959       51.710       56.558       33.199     2673.950     3198.775     1102.151        1.808        0.349      169.029       37.636        0.050      332.938        1.925      860.338
11/04/2013  06:39:00     -140.089      111.886      -27.820       45.366       68.388       37.092     2058.109     4676.904     1375.793        2.051        0.406      179.286       35.506        0.039      332.989        2.008      860.336
11/04/2013  06:40:00      -84.190      123.515      -12.415       50.014       54.906       34.209     2501.357     3014.699     1170.227        1.459        0.334      149.479       28.197        0.036      332.918        1.893      860.354
11/04/2013  06:41:00     -111.390      119.135      -30.607       51.744       38.760       28.938     2677.423     1502.348      837.430        1.628        0.251      163.098       27.160        0.028      332.986        2.004      860.370
11/04/2013  06:42:00      -99.097      108.516      -23.989       35.197       48.426       29.103     1238.822     2345.072      846.980        1.330        0.222      146.956       27.268        0.034      332.959        1.961      860.393
11/04/2013  06:43:00     -104.149      208.732      -35.755       54.195       58.919       41.722     2937.083     3471.425     1740.684        3.192        0.407      233.272       32.356        0.019      333.021        2.060      860.402
11/04/2013  06:44:00     -103.794      144.363      -18.976       58.988       54.252       29.341     3479.535     2943.328      860.913        1.963        0.364      177.803       24.922        0.020      333.027        2.073      860.393
11/04/2013  06:45:00      -98.815      118.374      -27.119       41.624       43.041       26.427     1732.522     1852.512      698.401        1.440        0.214      154.197       24.661        0.026      333.010        2.045      860.388
11/04/2013  06:46:00     -123.294      130.007      -34.342       48.460       50.287       38.994     2348.337     2528.794     1520.533        1.984        0.320      179.173       32.268        0.032      333.019        2.058      860.385
11/04/2013  06:47:00      -76.264       95.528      -21.099       41.347       48.673       25.924     1709.607     2369.040      672.070        1.007        0.238      122.236       23.364        0.037      333.029        2.077      860.384
11/04/2013  06:48:00      -76.697      127.667      -24.372       52.223       56.732       32.940     2727.275     3218.487     1085.014        1.490        0.352      148.934       26.390        0.031      333.025        2.070      860.394
11/04/2013  06:49:00      -85.364      134.028      -10.919       42.609       73.667       31.811     1815.525     5426.807     1011.932        1.681        0.413      158.904       26.971        0.029      333.010        2.043      860.407
11/04/2013  06:50:00     -144.900      127.425      -35.275       48.266       43.474       28.857     2329.583     1889.953      832.741        2.176        0.253      192.959       21.274        0.012      333.007        2.041      860.434
11/04/2013  06:51:00     -100.614      113.658      -17.895       61.178       55.853       32.567     3742.772     3119.548     1060.585        1.564        0.396      151.793       32.742        0.047      333.018        2.056      860.453
11/04/2013  06:52:00     -132.374      174.227      -36.433       58.875       52.544       34.951     3466.298     2760.917     1221.576        2.833        0.372      218.810       35.229        0.026      332.952        1.946      860.465
11/04/2013  06:53:00      -78.014      105.009      -10.683       46.978       68.376       36.672     2206.921     4675.244     1344.837        1.273        0.411      130.817       28.918        0.049      333.007        2.040      860.469
11/04/2013  06:54:00     -132.885      132.946      -28.783       51.052       63.095       32.150     2606.312     3981.035     1033.621        2.189        0.381      187.971       26.958        0.021      333.034        2.083      860.471
11/04/2013  06:55:00     -103.185      107.084      -20.094       41.367       44.254       29.886     1711.215     1958.414      893.183        1.354        0.228      148.708       21.938        0.022      333.000        2.027      860.468
11/04/2013  06:56:00     -116.472      134.485      -24.665       46.709       72.395       33.867     2181.773     5240.997     1146.959        2.041        0.428      177.910       34.626        0.038      333.025        2.067      860.467
11/04/2013  06:57:00     -112.431      155.967      -32.162       45.734       83.933       33.783     2091.560     7044.688     1141.316        2.414        0.514      192.266       32.356        0.028      333.027        2.071      860.479
11/04/2013  06:58:00      -56.449      113.544      -16.830       46.654       66.414       28.359     2176.578     4410.798      804.214        1.188        0.370      126.802       31.209        0.061      332.998        2.024      860.496
11/04/2013  06:59:00      -75.743       93.035       -9.628       36.878       47.984       26.379     1359.974     2302.436      695.841        0.942        0.218      119.969       24.840        0.043      333.013        2.049      860.506
11/04/2013  07:00:00      -61.077       15.298        0.743       31.055       31.301       31.874      964.414      979.724     1015.920        0.346        0.148       62.964       14.625        0.054      333.043        2.101      860.516
11/04/2013  07:01:00      -56.898       21.864       -7.244       41.761       59.795       24.525     1744.005     3575.477      601.491        0.484        0.296       60.954       28.839        0.224      333.037        2.090      860.529
11/04/2013  07:02:00      -81.469       70.050       -5.566       40.511       48.645       26.488     1641.141     2366.322      701.624        0.814        0.235      107.444       15.019        0.020      333.001        2.030      860.536
11/04/2013  07:03:00      -80.546       10.217       -7.576       60.800       38.252       29.167     3696.690     1463.219      850.685        0.633        0.301       81.191       36.857        0.206      333.043        2.098      860.552
11/04/2013  07:04:00      -45.894       36.263       -7.679       40.301       69.889       23.724     1624.134     4884.469      562.833        0.527        0.354       58.491       11.183        0.037      333.054        2.118      860.569
11/04/2013  07:05:00      -99.249       27.472      -18.936       50.614       53.087       29.101     2561.758     2818.226      846.860        0.859        0.311      102.981       29.462        0.082      333.065        2.137      860.570
11/04/2013  07:06:00      -55.755       47.825       -4.806       44.085       37.228       33.248     1943.517     1385.924     1105.461        0.493        0.222       73.457       25.145        0.117      333.104        2.201      860.576
11/04/2013  07:07:00      -53.274      -16.036      -10.753       51.076       30.599       20.032     2608.757      936.316      401.283        0.358        0.197       55.636       19.398        0.122      333.136        2.253      860.562
11/04/2013  07:08:00      -93.878      -37.324       -9.592       42.035       44.696       25.038     1766.910     1997.735      626.917        0.734        0.220      101.026       20.862        0.043      333.107        2.205      860.567
11/04/2013  07:09:00     -106.879       -2.355      -14.124       31.333       43.471       23.331      981.750     1889.744      544.333        0.752        0.171      106.905       14.101        0.017      333.105        2.203      860.580
11/04/2013  07:10:00      -35.403        5.459        4.959       17.476       28.439       15.800      305.401      808.804      249.641        0.134        0.068       35.822       10.957        0.094      333.136        2.253      860.592
11/04/2013  07:11:00      -72.604      -36.803      -17.503       41.642       20.926       15.770     1734.087      437.884      248.707        0.468        0.121       81.399       15.384        0.036      333.145        2.268      860.614
11/04/2013  07:12:00      -65.347      -20.181       -6.488       31.735       45.721       20.897     1007.111     2090.429      436.671        0.413        0.177       68.392       14.557        0.045      333.214        2.381      860.635
11/04/2013  07:13:00      -55.233       17.362      -19.447       28.265       53.102       27.472      798.912     2819.849      754.712        0.405        0.219       57.897       26.455        0.209      333.219        2.389      860.654
11/04/2013  07:14:00      -95.890        1.739       -1.163       57.382       51.181       34.719     3292.643     2619.482     1205.439        0.816        0.356       95.906       26.063        0.074      333.178        2.321      860.663
11/04/2013  07:15:00      -68.934      -33.973       -0.976       34.793       26.887       19.580     1210.524      722.922      383.393        0.411        0.116       76.851       16.882        0.048      333.174        2.315      860.658
11/04/2013  07:16:00       10.326        9.130       25.359       28.394       32.547       26.476      806.216     1059.291      700.971        0.170        0.128       13.784       17.072        1.534      333.438        2.753      860.663
11/04/2013  07:17:00      -35.790      -13.397       -1.372       35.297       23.348       14.289     1245.871      545.145      204.174        0.173        0.100       38.215       11.772        0.095      333.264        2.465      860.663
11/04/2013  07:18:00      -31.247      -43.702        3.257       21.518       20.160       17.784      463.019      406.414      316.285        0.204        0.059       53.724        7.876        0.021      333.238        2.420      860.679
11/04/2013  07:19:00      -46.692      -29.307       12.614       34.154       31.022       17.798     1166.518      962.391      316.780        0.282        0.122       55.128       15.993        0.084      333.139        2.259      860.692
11/04/2013  07:20:00      -84.420      -88.879       -9.137       32.950       48.849       22.472     1085.703     2386.252      505.004        0.954        0.199      122.582       17.638        0.021      332.957        1.957      860.706
11/04/2013  07:21:00      -37.333      -34.938       -6.943       34.065       36.179       22.323     1160.404     1308.917      498.336        0.281        0.148       51.132       22.841        0.200      333.021        2.063      860.715
11/04/2013  07:22:00      -53.752      -79.691       -1.387       34.276       38.173       19.623     1174.830     1457.179      385.069        0.613        0.151       96.124       12.623        0.017      333.027        2.072      860.718
11/04/2013  07:23:00      -36.520      -75.491        3.907       27.138       56.270       22.244      736.475     3166.273      494.805        0.572        0.220       83.861       31.876        0.144      333.078        2.158      860.711
11/04/2013  07:24:00      -67.286      -68.827        2.832       47.350       47.796       23.001     2241.988     2284.469      529.034        0.716        0.253       96.253       24.283        0.064      333.103        2.201      860.715
11/04/2013  07:25:00      -67.546     -118.635       -0.350       33.643       37.412       26.004     1131.861     1399.643      676.215        1.092        0.160      136.517       21.621        0.025      333.121        2.230      860.714
11/04/2013  07:26:00      -33.311      -71.337        0.096       29.862       30.473       21.810      891.756      928.599      475.682        0.425        0.115       78.731       12.213        0.024      333.211        2.378      860.721
11/04/2013  07:27:00      -50.426      -41.547        4.192       38.539       34.342       26.353     1485.231     1179.353      694.491        0.382        0.168       65.337       17.476        0.072      333.245        2.431      860.732
11/04/2013  07:28:00      -58.248      -44.944       -7.879       49.537       37.112       23.818     2453.891     1377.332      567.311        0.494        0.220       73.572       10.864        0.022      333.245        2.433      860.750
11/04/2013  07:29:00      -68.842      -17.972       -9.595       32.345       17.467       21.509     1046.221      305.106      462.627        0.348        0.091       71.149       12.058        0.029      333.305        2.532      860.750
11/04/2013  07:30:00      -84.857      -55.614        2.164       65.907       38.042       28.997     4343.744     1447.169      840.807        0.846        0.332      101.458       24.588        0.059      333.225        2.402      860.756
11/04/2013  07:31:00      -35.987      -31.970       10.967       54.053       30.641       31.071     2921.690      938.891      965.420        0.363        0.241       48.137       31.439        0.427      333.239        2.423      860.758
11/04/2013  07:32:00      -29.661      -62.321       -4.359       41.445       52.781       30.710     1717.691     2785.859      943.118        0.511        0.272       69.019       20.779        0.091      333.336        2.584      860.770
11/04/2013  07:33:00      -72.118      -73.539      -13.089       59.810       51.218       22.603     3577.199     2623.276      510.888        0.874        0.336      103.000       15.972        0.024      333.238        2.421      860.780
11/04/2013  07:34:00      -60.151      -32.674       -2.596       45.426       29.718       29.081     2063.500      883.160      845.682        0.424        0.190       68.453       21.694        0.100      333.137        2.255      860.789
11/04/2013  07:35:00      -34.416      -21.462        2.377       40.460       25.794       18.589     1637.005      665.316      345.553        0.215        0.132       40.559       15.243        0.141      333.223        2.396      860.799
11/04/2013  07:36:00      -22.238      -61.748        2.922       24.484       32.753       27.992      599.462     1072.772      783.557        0.339        0.123       65.631       19.068        0.084      333.227        2.403      860.817
11/04/2013  07:37:00      -37.515       -0.733       18.144       38.299       16.208       20.677     1466.780      262.713      427.555        0.195        0.108       37.522       20.324        0.293      333.357        2.617      860.838
11/04/2013  07:38:00      -42.869       14.368       -0.866       16.018       11.749       16.938      256.591      138.043      286.897        0.136        0.034       45.213       11.753        0.068      333.310        2.540      860.862
11/04/2013  07:39:00      -41.813        9.302      -10.122       11.009       17.653       11.617      121.199      311.618      134.948        0.125        0.028       42.835        7.339        0.029      333.243        2.430      860.875
11/04/2013  07:40:00      -35.945       -5.279      -10.638       11.250       12.607        8.557      126.565      158.931       73.227        0.090        0.018       36.330        5.727        0.025      333.275        2.483      860.872
11/04/2013  07:41:00      -37.264        9.093       -7.829       17.550       11.755       10.816      307.998      138.176      116.982        0.105        0.028       38.357        5.184        0.018      333.322        2.559      860.867
11/04/2013  07:42:00      -29.245      -13.442       -0.373       21.439       25.972       18.858      459.619      674.529      355.608        0.126        0.074       32.186       14.066        0.191      333.599        3.019      860.865
11/04/2013  07:43:00       -2.489        7.962       17.620       16.715       18.227       16.042      279.391      332.222      257.349        0.062        0.043        8.342       11.258        1.821      333.900        3.520      860.886
11/04/2013  07:44:00        2.349       10.164       12.750       29.713       21.286       18.669      882.889      453.101      348.526        0.098        0.084       10.432       16.489        2.498      333.536        2.916      860.904
11/04/2013  07:45:00       14.689       -6.004       -1.516       18.139       19.322       15.012      329.030      373.346      225.354        0.059        0.046       15.869       13.556        0.730      333.736        3.246      860.929
11/04/2013  07:46:00       -7.626      -20.335       21.893       16.283       34.955       18.837      265.151     1221.884      354.839        0.140        0.092       21.718       22.118        1.037      333.897        3.515      860.959
11/04/2013  07:47:00       18.559       56.059       45.170       31.226       18.343       21.712      975.048      336.460      471.393        0.365        0.089       59.051       18.783        0.101      333.685        3.162      860.989
11/04/2013  07:48:00       15.310       21.817       31.174       15.431       21.085       19.703      238.101      444.558      388.209        0.138        0.054       26.653       16.214        0.370      333.798        3.348      861.013
11/04/2013  07:49:00       24.413       -9.420        9.332       19.079       34.919       22.793      364.008     1219.367      519.506        0.144        0.105       26.167       24.460        0.874      333.762        3.290      861.036
11/04/2013  07:50:00        2.578       14.408       35.786       17.882       14.458       14.281      319.751      209.038      203.960        0.111        0.037       14.637       10.177        0.483      334.002        3.688      861.052
11/04/2013  07:51:00        2.927       -1.819       27.084       15.791       28.749       29.984      249.369      826.487      899.025        0.136        0.099        3.446       26.441       58.866      334.084        3.824      861.075
11/04/2013  07:52:00       17.412       37.269       61.262       30.557       29.689       18.530      933.734      881.413      343.364        0.380        0.108       41.136        5.548        0.018      333.982        3.656      861.096
11/04/2013  07:53:00      -12.831        9.532       34.495       18.368       22.747       21.766      337.366      517.411      473.755        0.139        0.066       15.984       15.798        0.977      334.184        3.989      861.116
11/04/2013  07:54:00        2.916       31.384       52.094       21.982       30.390       18.177      483.218      923.560      330.400        0.272        0.087       31.519       17.064        0.293      334.237        4.077      861.141
11/04/2013  07:55:00       56.765       84.660       54.228       25.389       22.388       21.643      644.586      501.242      468.429        0.747        0.081      101.930       14.188        0.019      333.826        3.395      861.151
11/04/2013  07:56:00        9.838       34.909       52.132       25.355       36.419       15.525      642.888     1326.313      241.019        0.312        0.111       36.268       18.107        0.249      334.092        3.836      861.166
11/04/2013  07:57:00       21.256       20.580       31.752       23.304       18.788       16.400      543.065      352.975      268.963        0.152        0.058       29.586        9.551        0.104      334.223        4.055      861.183
11/04/2013  07:58:00       12.444       68.685       -3.848       32.736       43.391       22.259     1071.623     1882.791      495.474        0.417        0.172       69.803       23.118        0.110      334.116        3.876      861.212
11/04/2013  07:59:00       20.267       71.834       -5.374       30.600       37.396       20.887      936.353     1398.478      436.252        0.418        0.139       74.638       19.670        0.069      334.154        3.939      861.238
11/04/2013  08:00:00       69.155       45.220       18.998       42.091       30.393       29.645     1771.673      923.727      878.847        0.538        0.179       82.627       19.606        0.056      334.281        4.150      861.246
11/04/2013  08:01:00       65.248       60.052       21.710       82.140       40.225       38.496     6747.057     1618.027     1481.904        0.909        0.492       88.677       34.161        0.148      334.160        3.949      861.236
11/04/2013  08:02:00       -1.185      106.678       -5.002       27.394       53.989       30.320      750.458     2914.783      919.275        0.799        0.229      106.684       30.966        0.084      334.302        4.186      861.238
11/04/2013  08:03:00       13.169      159.732      -15.491       42.801       92.255       41.440     1831.891     8511.073     1717.266        1.899        0.603      160.274       45.002        0.079      334.127        3.893      861.257
11/04/2013  08:04:00      -32.520      232.309      -32.928       49.336       73.902       39.777     2434.060     5461.440     1582.247        3.279        0.474      234.574       37.351        0.025      333.941        3.582      861.293
11/04/2013  08:05:00       -9.012      279.975      -29.774       61.836       76.182       40.900     3823.748     5803.712     1672.843        4.533        0.565      280.120       39.256        0.020      333.919        3.544      861.323
11/04/2013  08:06:00        1.906      306.940      -40.791       44.718       79.278       31.571     1999.737     6285.042      996.750        5.258        0.464      306.946       30.690        0.010      333.827        3.393      861.346
11/04/2013  08:07:00      -26.388      213.351      -21.468       47.022      106.714       35.741     2211.105    11387.859     1277.413        3.077        0.744      214.977       50.276        0.055      333.940        3.580      861.354
11/04/2013  08:08:00      -34.274      196.864      -24.009       49.467       46.958       24.278     2447.033     2205.087      589.418        2.287        0.262      199.825       17.640        0.008      334.112        3.867      861.378
11/04/2013  08:09:00        8.748      271.411      -37.724       41.910       74.246       35.308     1756.464     5512.450     1246.659        4.184        0.426      271.552       31.752        0.014      333.949        3.595      861.411
11/04/2013  08:10:00      -44.774      265.808      -30.708       62.736       72.687       40.257     3935.761     5283.353     1620.598        4.222        0.542      269.553       30.912        0.013      333.996        3.672      861.410
11/04/2013  08:11:00      -27.382      147.971       -4.987       50.062       61.342       37.489     2506.169     3762.855     1405.427        1.517        0.384      150.483       35.195        0.055      334.271        4.133      861.425
11/04/2013  08:12:00      -38.734      236.244      -28.447       55.980       86.294       49.555     3133.797     7446.726     2455.736        3.558        0.652      239.398       49.954        0.044      334.085        3.822      861.425
11/04/2013  08:13:00      -36.238      243.729      -18.167       40.173       75.328       35.033     1613.845     5674.369     1227.341        3.478        0.426      246.408       39.353        0.026      334.056        3.774      861.410
11/04/2013  08:14:00       -6.811      184.563      -15.474       55.329       87.390       45.234     3061.280     7637.086     2046.138        2.354        0.637      184.689       49.618        0.072      334.127        3.892      861.409
11/04/2013  08:15:00      -76.762      212.449      -30.508       56.623       79.273       39.473     3206.209     6284.276     1558.156        3.150        0.552      225.891       42.261        0.035      334.023        3.719      861.419
11/04/2013  08:16:00      -91.779      146.582      -15.553       64.127       75.224       39.624     4112.336     5658.596     1570.061        2.074        0.567      172.944       33.581        0.038      334.081        3.815      861.446
11/04/2013  08:17:00       -4.973      261.592      -21.209       51.574      109.999       41.985     2659.873    12099.749     1762.744        4.271        0.826      261.639       48.340        0.034      334.170        3.962      861.475
11/04/2013  08:18:00      -66.584      298.563      -25.307       48.373      111.774       37.845     2339.936    12493.483     1432.224        5.524        0.813      305.898       47.943        0.025      334.001        3.681      861.510
11/04/2013  08:19:00      -78.438      235.956      -24.713       55.200       98.791       30.231     3046.988     9759.675      913.917        3.808        0.686      248.652       35.605        0.021      333.908        3.527      861.549
11/04/2013  08:20:00      -43.317      155.763      -16.308       40.453       61.468       30.173     1636.446     3778.311      910.422        1.636        0.316      161.674       29.311        0.033      334.121        3.884      861.556
11/04/2013  08:21:00      -72.201      167.506      -24.748       53.103       65.417       35.469     2819.907     4279.424     1258.055        2.112        0.418      182.404       32.300        0.031      334.173        3.970      861.571
11/04/2013  08:22:00      -20.980      157.424        0.984       58.425      102.390       51.150     3413.513    10483.665     2616.294        2.087        0.826      158.816       62.329        0.154      334.429        4.393      861.589
11/04/2013  08:23:00      -10.658      222.277      -15.083       53.441       69.740       42.386     2855.931     4863.653     1796.570        2.963        0.476      222.533       39.447        0.031      334.251        4.098      861.617
11/04/2013  08:24:00      -67.526      248.870      -26.905       75.786       77.428       40.324     5743.510     5995.113     1626.052        4.029        0.668      257.868       27.035        0.011      334.122        3.883      861.665
11/04/2013  08:25:00      -22.382      155.274       -2.728       93.031       82.216       52.589     8654.803     6759.459     2765.601        2.140        0.909      156.878       48.826        0.097      334.387        4.324      861.703
11/04/2013  08:26:00      -27.151      205.618      -16.466       53.749       98.560       49.957     2888.903     9714.052     2495.689        2.919        0.755      207.403       52.007        0.063      334.189        3.994      861.731
11/04/2013  08:27:00       27.664      126.389       -4.294       91.848       66.345       40.765     8436.067     4401.710     1661.818        1.563        0.725      129.381       42.554        0.108      334.388        4.326      861.727
11/04/2013  08:28:00      -49.035      181.904      -19.956       52.837       73.079       50.832     2791.752     5340.499     2583.855        2.330        0.536      188.397       44.568        0.056      334.305        4.187      861.742
11/04/2013  08:29:00      -52.917       58.301       -0.328       82.885       50.737       34.143     6869.857     2574.200     1165.775        0.840        0.530       78.735       28.775        0.134      334.515        4.538      861.747
11/04/2013  08:30:00      -32.760       68.640        6.589       52.768       75.324       31.255     2784.430     5673.643      976.856        0.763        0.472       76.057       22.663        0.089      334.638        4.743      861.739
11/04/2013  08:31:00      -31.860      164.203      -13.045       63.244       83.422       42.222     3999.840     6959.195     1782.658        2.044        0.637      167.265       46.620        0.078      334.480        4.479      861.765
11/04/2013  08:32:00      -44.313      122.871       -4.903       81.125       93.889       52.372     6581.205     8815.098     2742.866        1.761        0.907      130.617       39.420        0.091      334.410        4.363      861.779
11/04/2013  08:33:00      -94.774      228.183      -19.435       92.400       91.209       42.804     8537.849     8319.169     1832.206        4.006        0.934      247.083       42.063        0.029      334.335        4.238      861.805
11/04/2013  08:34:00      -90.867      223.716      -24.966       49.313       79.583       39.297     2431.765     6333.433     1544.227        3.462        0.515      241.465       33.967        0.020      334.126        3.890      861.836
11/04/2013  08:35:00     -124.369      246.674      -31.750       58.521       87.105       35.376     3424.694     7587.265     1251.453        4.479        0.613      276.254       33.063        0.014      334.105        3.856      861.847
11/04/2013  08:36:00     -119.035      161.712      -20.538       66.742       68.998       37.483     4454.546     4760.665     1404.939        2.568        0.531      200.799       39.371        0.038      334.221        4.046      861.863
11/04/2013  08:37:00      -45.234      172.237      -11.135       54.408       84.530       38.707     2960.209     7145.310     1498.245        2.172        0.580      178.078       39.999        0.050      334.483        4.484      861.884
11/04/2013  08:38:00      -41.765       99.026        1.377       48.923       82.525       32.525     2393.456     6810.371     1057.876        1.091        0.513      107.473       37.521        0.122      334.580        4.646      861.921
11/04/2013  08:39:00      -82.707      159.717      -18.854       60.140       63.464       40.458     3616.773     4027.697     1636.869        2.099        0.464      179.861       35.270        0.038      334.389        4.327      861.950
11/04/2013  08:40:00      -63.629      220.767      -21.153       49.356       51.228       35.576     2436.014     2624.271     1265.686        2.978        0.316      229.753       27.021        0.014      334.263        4.117      861.994
11/04/2013  08:41:00      -13.117      304.872      -29.894       48.548       66.301       31.660     2356.953     4395.865     1002.346        5.088        0.388      305.154       27.189        0.008      334.107        3.856      862.011
11/04/2013  08:42:00      -22.734      249.241      -23.434       38.063       67.133       30.166     1448.760     4506.792      909.997        3.503        0.343      250.276       26.674        0.011      334.152        3.932      862.014
11/04/2013  08:43:00      -29.297      129.973        0.111       47.340       83.514       41.613     2241.072     6974.627     1731.647        1.435        0.547      133.234       50.078        0.141      334.652        4.764      862.018
11/04/2013  08:44:00       -8.486      216.741      -28.371       56.012       68.883       38.332     3137.330     4744.827     1469.316        2.860        0.468      216.907       40.320        0.035      334.306        4.188      862.029
11/04/2013  08:45:00      -46.239      157.618      -10.805       48.969       57.291       31.349     2397.997     3282.311      982.775        1.688        0.333      164.261       20.187        0.015      334.548        4.593      862.023
11/04/2013  08:46:00       16.739       69.534        3.973       63.051       56.990       37.545     3975.396     3247.821     1409.646        0.688        0.432       71.520       38.373        0.288      334.734        4.901      862.017
11/04/2013  08:47:00      -74.846       38.577        0.765       58.701       56.489       31.392     3445.810     3190.990      985.447        0.736        0.381       84.203       34.537        0.168      334.777        4.974      862.022
11/04/2013  08:48:00      -30.308       47.736       -7.162       45.779       47.896       20.876     2095.745     2293.988      435.811        0.404        0.241       56.545       25.580        0.205      334.677        4.806      862.047
11/04/2013  08:49:00      -57.211       69.668       -7.205       85.149       71.101       45.244     7250.315     5055.286     2047.006        1.126        0.718       90.148       39.028        0.187      334.517        4.542      862.076
11/04/2013  08:50:00      -29.388      116.420      -14.080       52.920       71.550       27.923     2800.561     5119.424      779.679        1.166        0.435      120.072       24.526        0.042      334.528        4.561      862.080
11/04/2013  08:51:00      -81.919       49.587      -10.806       40.357       43.224       28.583     1628.699     1868.346      817.000        0.680        0.216       95.758       28.769        0.090      334.646        4.757      862.096
11/04/2013  08:52:00      -73.689      169.817      -18.464       60.904       90.902       38.779     3709.350     8263.210     1503.802        2.404        0.674      185.116       41.997        0.051      334.590        4.658      862.114
11/04/2013  08:53:00      -92.072      168.971      -13.565       56.108       68.015       39.659     3148.135     4626.031     1572.805        2.328        0.467      192.428       39.873        0.043      334.515        4.535      862.132
11/04/2013  08:54:00     -152.738      150.162      -43.879       50.922       56.137       30.387     2593.005     3151.314      923.366        2.723        0.333      214.190       28.531        0.018      334.345        4.253      862.125
11/04/2013  08:55:00      -62.406       85.393      -13.220       39.286       40.326       27.809     1543.416     1626.211      773.344        0.765        0.197      105.766       21.894        0.043      334.795        5.003      862.120
11/04/2013  08:56:00      -21.325      167.596       -9.728       47.453       55.390       40.983     2251.756     3068.086     1679.592        1.782        0.350      168.948       34.306        0.041      334.733        4.899      862.108
11/04/2013  08:57:00       -2.074      159.921      -13.401       46.595       95.145       42.205     2171.074     9052.536     1781.275        1.938        0.650      159.935       54.332        0.115      334.703        4.850      862.086
11/04/2013  08:58:00      -57.040      110.424      -17.552       46.668       54.635       28.061     2177.940     2985.023      787.395        1.085        0.298      124.286       29.011        0.054      334.492        4.500      862.089
11/04/2013  08:59:00      -53.503       92.988       -8.933       37.022       52.545       30.680     1370.601     2760.988      941.290        0.833        0.254      107.281       31.831        0.088      334.673        4.800      862.088
11/04/2013  09:00:00      -35.148      120.084       -3.932       35.172       63.718       35.453     1237.101     4060.045     1256.912        1.111        0.328      125.122       36.162        0.084      334.775        4.972      862.101
11/04/2013  09:01:00      -47.350      100.235       -3.286       34.744       51.685       31.907     1207.162     2671.357     1018.088        0.860        0.245      110.856       28.882        0.068      334.854        5.102      862.107
11/04/2013  09:02:00        0.722       69.949       18.606       33.750       58.916       26.638     1139.052     3471.109      709.599        0.528        0.266       69.953       31.729        0.206      335.053        5.433      862.107
11/04/2013  09:03:00       22.861       28.743       36.749       35.049       50.396       27.657     1228.467     2539.791      764.905        0.362        0.227       36.725       12.047        0.108      335.191        5.661      862.101
11/04/2013  09:04:00       46.551      124.012       24.575       63.513       66.231       67.209     4033.957     4386.556     4517.095        1.554        0.647      132.461       54.058        0.167      334.795        5.004      862.095
11/04/2013  09:05:00        6.109      170.480      -24.521       61.481       46.686       26.857     3779.936     2179.600      721.308        1.819        0.334      170.590       21.386        0.016      334.728        4.891      862.116
11/04/2013  09:06:00      -51.359      138.262      -18.999       47.729       78.597       33.447     2278.042     6177.566     1118.727        1.584        0.479      147.493       38.035        0.066      334.744        4.917      862.140
11/04/2013  09:07:00      -27.022      252.260      -27.293       36.486       52.674       28.283     1331.235     2774.514      799.952        3.501        0.245      253.703       27.293        0.012      334.316        4.202      862.142
11/04/2013  09:08:00       20.147      260.184      -29.943       58.867       85.366       36.500     3465.350     7287.366     1332.234        4.054        0.604      260.963       44.608        0.029      334.372        4.298      862.136
11/04/2013  09:09:00       59.207      160.087       -3.764       68.819       80.196       44.644     4736.029     6431.432     1993.070        2.115        0.658      170.685       46.633        0.075      334.593        4.667      862.126
11/04/2013  09:10:00      -27.679      109.935        2.107       46.259       45.124       36.902     2139.932     2036.181     1361.749        0.920        0.277      113.366       27.754        0.060      334.808        5.024      862.120
11/04/2013  09:11:00      -38.586      112.271       -4.928       37.800       74.820       33.843     1428.873     5597.962     1145.325        1.114        0.409      118.716       42.271        0.127      334.909        5.192      862.134
11/04/2013  09:12:00     -130.970       64.576      -24.857       63.547       44.235       28.577     4038.173     1956.733      816.645        1.438        0.341      146.024       20.025        0.019      334.502        4.516      862.148
11/04/2013  09:13:00      -75.803       -5.372      -13.835       59.301       32.440       23.074     3516.627     1052.366      532.417        0.553        0.255       75.993       21.169        0.078      334.437        4.410      862.141
11/04/2013  09:14:00       -9.029       39.769       -5.413       27.969       43.402       23.754      782.287     1883.750      564.238        0.246        0.162       40.781       24.872        0.372      334.692        4.833      862.136
11/04/2013  09:15:00      -56.776      113.499       -5.138       65.430       65.061       43.205     4281.053     4232.924     1866.684        1.325        0.519      126.908       43.715        0.119      334.882        5.147      862.150
11/04/2013  09:16:00      -59.289       87.943       -9.351       63.145       55.555       36.666     3987.245     3086.365     1344.384        0.988        0.421      106.061       43.229        0.166      334.866        5.123      862.170
11/04/2013  09:17:00      -30.798      105.154       -3.053       44.077       71.150       31.863     1942.777     5062.253     1015.231        1.002        0.401      109.572       33.390        0.093      335.026        5.388      862.186
11/04/2013  09:18:00      -89.091      -15.740       14.982       68.432       70.748       41.342     4682.875     5005.305     1709.162        0.990        0.570       90.470       38.353        0.180      334.942        5.247      862.201
11/04/2013  09:19:00      -83.118       42.944      -20.880       47.499       72.886       25.131     2256.200     5312.419      631.582        0.869        0.410       93.556       16.031        0.029      334.958        5.274      862.209
11/04/2013  09:20:00      -36.805      124.343        2.204       66.770       71.273       44.208     4458.182     5079.790     1954.309        1.415        0.575      129.676       40.530        0.098      335.086        5.486      862.222
11/04/2013  09:21:00      -35.796      186.416      -10.634       71.244       79.437       47.441     5075.718     6310.260     2250.693        2.489        0.682      189.821       46.827        0.061      334.898        5.173      862.219
11/04/2013  09:22:00       69.834       91.401       -2.085       44.874       58.308       41.787     2013.668     3399.803     1746.145        1.020        0.358      115.025       30.383        0.070      334.895        5.169      862.211
11/04/2013  09:23:00      -26.337       51.883        3.358       50.267       51.257       29.022     2526.792     2627.275      842.282        0.470        0.300       58.185       30.214        0.270      335.045        5.419      862.212
11/04/2013  09:24:00      -23.339      109.276      -10.214       62.887       64.984       39.475     3954.768     4222.958     1558.279        1.116        0.487      111.740       37.783        0.114      334.945        5.253      862.212
11/04/2013  09:25:00      -14.367       64.023       12.611       47.046       63.186       31.446     2213.364     3992.513      988.825        0.583        0.360       65.615       32.854        0.251      335.495        6.168      862.189
11/04/2013  09:26:00       38.769       73.880       44.455      101.731       59.035       52.753    10349.175     3485.096     2782.873        1.277        0.831       83.435       28.036        0.113      335.430        6.059      862.182
11/04/2013  09:27:00      102.492       48.321       11.498       78.247       53.738       43.912     6122.630     2887.796     1928.245        1.195        0.547      113.312       27.876        0.061      335.194        5.667      862.170
11/04/2013  09:28:00      112.403       74.599        8.820       64.249       47.016       48.822     4127.900     2210.459     2383.560        1.350        0.436      134.905       28.536        0.045      335.233        5.731      862.177
11/04/2013  09:29:00      100.546       88.994       24.435       59.653       60.063       47.421     3558.442     3607.518     2248.770        1.402        0.471      134.274       32.355        0.058      335.124        5.549      862.191
11/04/2013  09:30:00       48.811       62.447       73.678       80.220       70.204       60.513     6435.254     4928.545     3661.862        1.337        0.751       79.260       50.387        0.404      335.361        5.944      862.187
11/04/2013  09:31:00       16.558       86.649      110.751       60.903       91.990       58.016     3709.151     8462.231     3365.832        1.779        0.777       88.217       58.069        0.433      335.239        5.739      862.175
11/04/2013  09:32:00       27.357       22.276       54.705       63.195       49.508       43.144     3993.568     2451.062     1861.437        0.627        0.415       35.279       34.909        0.979      335.696        6.502      862.177
11/04/2013  09:33:00       28.494      145.915       -6.221       48.896       65.300       41.793     2390.802     4264.086     1746.677        1.527        0.420      148.671       35.484        0.057      334.874        5.135      862.174
11/04/2013  09:34:00      -31.484       99.823      -21.978       34.667       55.892       21.720     1201.775     3123.965      471.763        0.812        0.240      104.670       16.060        0.024      334.738        4.908      862.157
11/04/2013  09:35:00       29.206       61.479       75.664       63.489       60.178       55.042     4030.842     3621.371     3029.631        1.052        0.534       68.064       45.930        0.455      335.479        6.140      862.156
11/04/2013  09:36:00       76.738       71.813      108.758       92.403       68.518       44.645     8538.366     4694.766     1993.184        1.905        0.761      105.099       39.749        0.143      335.079        5.474      862.157
11/04/2013  09:37:00      149.945      113.336       76.049      103.441       67.657       56.980    10700.006     4577.501     3246.698        2.982        0.926      187.959       50.041        0.071      335.117        5.536      862.159
11/04/2013  09:38:00      165.380      141.770      106.616      121.641       74.897       85.138    14796.536     5609.555     7248.426        4.323        1.383      217.828       83.354        0.146      335.125        5.549      862.155
11/04/2013  09:39:00      121.764      128.210      102.954       60.597       57.772       41.157     3671.955     3337.599     1693.916        2.528        0.435      176.817       22.788        0.017      334.962        5.279      862.161
11/04/2013  09:40:00       55.858       62.464       66.116       56.912       44.279       41.192     3238.979     1960.618     1696.769        0.914        0.345       83.797       26.235        0.098      335.459        6.107      862.149
11/04/2013  09:41:00      133.778       94.540       38.947       68.333       49.935       49.868     4669.345     2493.549     2486.816        1.900        0.482      163.812       19.888        0.015      335.114        5.533      862.137
11/04/2013  09:42:00       37.548       96.388       78.558       54.702       55.538       48.244     2992.258     3084.476     2327.479        1.264        0.420      103.443       28.851        0.078      335.340        5.910      862.110
11/04/2013  09:43:00       30.830       32.404       42.172       63.129       61.465       38.773     3985.269     3778.004     1503.338        0.652        0.463       44.727       29.061        0.422      335.385        5.984      862.098
11/04/2013  09:44:00       78.731       73.319       43.205       77.304       48.111       54.612     5975.887     2314.713     2982.421        1.236        0.564      107.584       41.590        0.149      335.106        5.520      862.100
11/04/2013  09:45:00       75.047       69.798       56.893       57.243       61.320       45.189     3276.792     3760.116     2042.069        1.141        0.454      102.488       44.299        0.187      335.065        5.452      862.099
11/04/2013  09:46:00       92.258       48.381       -0.280       29.614       23.823       20.946      876.973      567.540      438.744        0.637        0.094      104.174       13.010        0.016      334.529        4.562      862.114
11/04/2013  09:47:00       70.012       79.197       -2.957       36.382       40.306       28.339     1323.634     1624.577      803.112        0.747        0.188      105.706       24.817        0.055      334.813        5.034      862.111
11/04/2013  09:48:00       80.904       88.386       18.753       63.993       69.472       46.947     4095.080     4826.377     2204.055        1.292        0.556      119.823       37.102        0.096      335.338        5.907      862.092
11/04/2013  09:49:00      162.458      143.312       78.196      117.402       67.024       84.795    13783.137     4492.239     7190.140        3.925        1.273      216.635       64.806        0.089      335.167        5.619      862.084
11/04/2013  09:50:00      109.743       59.411       10.705       46.084       39.551       40.984     2123.719     1564.298     1679.658        1.053        0.268      124.793       12.706        0.010      334.883        5.149      862.094
11/04/2013  09:51:00       52.871       81.709      108.382       71.639       86.001       75.898     5132.182     7396.236     5760.455        1.975        0.914       97.323       78.263        0.647      335.277        5.804      862.074
11/04/2013  09:52:00       89.696       93.502       88.412       58.330       62.031       58.080     3402.400     3847.823     3373.254        1.761        0.531      129.569       45.363        0.123      334.942        5.247      862.074
11/04/2013  09:53:00       23.893        2.461       61.460       43.039       86.787       39.123     1852.325     7531.975     1530.628        0.763        0.546       24.019       42.755        3.169      335.443        6.079      862.069
11/04/2013  09:54:00        2.936      -18.069       42.935       24.283       32.329       20.556      589.660     1045.176      422.530        0.212        0.103       18.306       16.553        0.818      335.574        6.300      862.054
11/04/2013  09:55:00       26.363       90.491      107.995       63.713       66.838       59.213     4059.357     4467.286     3506.208        1.629        0.602       94.253       48.629        0.266      335.595        6.334      862.037
11/04/2013  09:56:00      119.657       50.004       64.830       89.766       80.723       73.633     8057.943     6516.126     5421.823        2.051        1.000      129.685       72.880        0.316      334.999        5.341      862.030
11/04/2013  09:57:00       54.840       75.212       74.506       71.196       64.767       55.313     5068.817     4194.725     3059.497        1.327        0.616       93.082       47.479        0.260      335.288        5.822      862.049
11/04/2013  09:58:00      110.867       99.643       57.279       81.939       51.429       55.710     6713.976     2644.989     3103.643        1.898        0.623      149.064       53.329        0.128      335.036        5.403      862.051
11/04/2013  09:59:00       10.934       18.185       67.658       36.258       52.403       40.977     1314.656     2746.102     1679.092        0.538        0.287       21.219       39.437        3.454      335.568        6.289      862.046
11/04/2013  10:00:00       75.832     -215.469      -22.006       82.325       87.916       45.719     6777.485     7729.161     2090.236        3.463        0.830      228.423       48.089        0.044      335.264        5.780      862.032
11/04/2013  10:01:00      158.538     -210.519      -45.394       90.777      108.900       55.046     8240.505    11859.120     3030.076        4.732        1.156      263.538       55.338        0.044      335.095        5.500      862.028
11/04/2013  10:02:00       62.349     -167.541      -16.879       77.586       98.228       52.356     6019.645     9648.735     2741.117        2.532        0.920      178.767       43.525        0.059      335.158        5.604      862.049
11/04/2013  10:03:00       57.662      -49.542       19.739       56.820       79.045       33.015     3228.479     6248.145     1089.997        0.837        0.528       76.022       31.289        0.169      335.539        6.241      862.066
11/04/2013  10:04:00      116.106       97.113       33.220       59.905       44.414       42.788     3588.661     1972.564     1830.831        1.570        0.370      151.366       20.876        0.019      335.444        6.082      862.068
11/04/2013  10:05:00      127.550       93.485       81.091       92.714       99.585       68.137     8595.900     9917.092     4642.658        2.737        1.158      158.141       61.062        0.149      335.371        5.960      862.053
11/04/2013  10:06:00      161.280      111.128       63.944       88.750       58.579       58.731     7876.644     3431.502     3449.363        2.860        0.738      195.859       49.769        0.065      335.307        5.851      862.032
11/04/2013  10:07:00      173.396      105.139       15.885       80.851       56.289       42.048     6536.893     3168.452     1768.028        2.642        0.574      202.781       26.116        0.017      335.053        5.430      862.035
11/04/2013  10:08:00       45.927       15.967        3.900       35.185       51.314       22.677     1237.966     2633.099      514.245        0.338        0.219       48.623       20.507        0.178      335.236        5.737      862.018
11/04/2013  10:09:00       62.869       39.960       26.087       46.949       66.351       26.075     2204.177     4402.391      679.882        0.676        0.364       74.493       14.963        0.040      335.681        6.478      862.007
11/04/2013  10:10:00      156.272       90.491        5.498       49.377       61.554       43.290     2438.121     3788.923     1874.065        2.037        0.405      180.582       22.674        0.016      335.126        5.552      862.043
11/04/2013  10:11:00      126.609       83.922       11.053       65.190       66.414       50.682     4249.749     4410.762     2568.657        1.721        0.561      151.897        3.667        0.001      335.036        5.404      862.065
11/04/2013  10:12:00       86.457       81.285        7.290       82.796       50.904       49.240     6855.258     2591.217     2424.571        1.300        0.594      118.668       40.159        0.115      335.438        6.072      862.092
11/04/2013  10:13:00       36.601       80.234       10.578       65.874       68.030       43.846     4339.378     4628.038     1922.513        0.939        0.544       88.188       27.479        0.097      335.689        6.491      862.107
11/04/2013  10:14:00       55.006      100.343       -4.466       53.070       61.206       37.017     2816.402     3746.192     1370.287        1.052        0.397      114.431       33.061        0.083      335.324        5.883      862.124
11/04/2013  10:15:00       70.265       91.307       84.692       50.446       55.051       54.371     2544.842     3030.602     2956.209        1.449        0.427      115.213       44.546        0.149      335.397        6.002      862.114
11/04/2013  10:16:00       52.788       82.121      114.388       77.243       71.832       54.876     5966.555     5159.902     3011.406        1.837        0.707       97.624       42.459        0.189      335.534        6.233      862.106
11/04/2013  10:17:00      167.424      103.912       69.959       57.662       56.395       57.810     3324.863     3180.422     3341.971        2.678        0.492      197.049       38.661        0.038      335.096        5.501      862.120
11/04/2013  10:18:00       86.325      134.258       82.452       81.828       68.867       83.304     6695.849     4742.697     6939.562        2.532        0.919      159.616       61.851        0.150      335.305        5.851      862.109
11/04/2013  10:19:00      202.230      118.678       90.325      126.570       84.092       89.527    16019.956     7071.396     8015.118        4.712        1.555      234.481       72.483        0.096      335.109        5.522      862.101
11/04/2013  10:20:00      126.954      199.616      160.434       75.816       77.241       68.610     5748.038     5966.123     4707.357        4.906        0.821      236.567       61.466        0.068      335.006        5.350      862.110
11/04/2013  10:21:00      108.363       82.274       94.218       72.412       93.827       72.750     5243.490     8803.412     5292.605        2.336        0.967      136.057       62.307        0.210      334.992        5.329      862.115
11/04/2013  10:22:00       49.588       87.612      118.257       66.395       86.138       63.016     4408.299     7419.834     3970.986        1.996        0.790      100.672       45.643        0.206      335.354        5.931      862.089
11/04/2013  10:23:00       87.635      107.115      113.319      122.683       96.021       81.655    15051.020     9220.107     6667.528        3.146        1.547      138.396       66.575        0.231      335.364        5.947      862.066
11/04/2013  10:24:00       45.824       52.541      120.340       86.118      151.215       87.671     7416.335    22865.907     7686.241        2.865        1.898       69.716      105.014        2.269      335.141        5.575      862.060
11/04/2013  10:25:00      114.824     -135.339       11.969      111.526      166.904       86.177    12438.037    27856.900     7426.414        3.967        2.386      177.486      110.979        0.391      335.387        5.986      862.020
11/04/2013  10:26:00      169.160     -174.670      -15.240      126.143      157.250       81.856    15911.937    24727.693     6700.453        5.334        2.367      243.156      111.412        0.210      335.067        5.452      862.010
11/04/2013  10:27:00      108.737     -171.659       -9.829       53.937       67.188       42.977     2909.243     4514.240     1847.031        2.533        0.464      203.201       28.279        0.019      334.994        5.332      861.996
11/04/2013  10:28:00       38.093      -50.970       16.552       46.292       83.060       43.655     2142.910     6899.003     1905.770        0.763        0.547       63.632       58.645        0.849      335.194        5.666      861.972
11/04/2013  10:29:00      -24.053       23.778       42.739       23.791       32.171       41.129      566.016     1034.979     1691.562        0.313        0.165       33.822       32.257        0.910      335.595        6.332      861.959
11/04/2013  10:30:00       17.746       33.120       28.152       32.182       26.328       28.828     1035.677      693.157      831.057        0.238        0.128       37.575       16.578        0.195      335.877        6.804      861.951
11/04/2013  10:31:00      -10.319       16.148        8.944       49.015       50.272       30.261     2402.443     2527.287      915.709        0.315        0.292       19.164       20.463        1.140      335.726        6.552      861.962
11/04/2013  10:32:00       29.727      -53.805       33.972       50.125       81.261       53.894     2512.527     6603.297     2904.610        0.847        0.601       61.471       50.533        0.676      335.997        7.003      861.971
11/04/2013  10:33:00       39.427      -24.387       15.249       38.189       65.872       59.481     1458.366     4339.142     3538.045        0.586        0.467       46.360       49.498        1.140      335.643        6.414      861.978
11/04/2013  10:34:00       21.605       17.242       62.936       22.499       27.958       14.903      506.184      781.630      222.100        0.312        0.075       27.641       12.592        0.208      335.980        6.973      861.985
11/04/2013  10:35:00       59.478       51.001       14.706      117.393       81.087       46.310    13781.124     6575.108     2144.582        1.442        1.125       78.350       39.014        0.248      335.474        6.130      861.980
11/04/2013  10:36:00      -46.937      144.046      -11.779       42.418       48.174       38.044     1799.281     2320.765     1447.360        1.433        0.278      151.501       30.460        0.040      335.409        6.024      861.964
11/04/2013  10:37:00       49.720       27.203      -23.609       52.248       46.872       34.600     2729.876     2196.964     1197.157        0.495        0.306       56.675       28.326        0.250      335.319        5.875      861.977
11/04/2013  10:38:00        4.510       30.709       51.396       22.324       45.692       31.087      498.339     2087.746      966.371        0.358        0.178       31.038       34.390        1.228      335.955        6.934      861.974
11/04/2013  10:39:00       85.820      101.307       62.493       77.601       51.599       50.353     6021.992     2662.453     2535.382        1.637        0.561      132.771       28.626        0.046      335.784        6.647      861.958
11/04/2013  10:40:00        8.291      104.209      130.935       54.442       70.263       45.791     2963.959     4936.821     2096.854        1.903        0.500      104.538       38.336        0.134      336.039        7.072      861.951
11/04/2013  10:41:00       64.849       85.908       13.121       64.804       61.994       57.317     4199.498     3843.303     3285.256        1.154        0.566      107.636       36.498        0.115      335.629        6.390      861.948
11/04/2013  10:42:00       58.886      117.752      -19.108       48.936       57.013       41.484     2394.743     3250.475     1720.960        1.253        0.368      131.655       39.443        0.090      335.360        5.943      861.943
11/04/2013  10:43:00       89.379      106.934        6.724       68.148       54.344       42.354     4644.100     2953.254     1793.900        1.443        0.470      139.368       29.544        0.045      335.350        5.925      861.937
11/04/2013  10:44:00      169.323      104.665       -0.400       57.577       45.801       41.958     3315.061     2097.690     1760.489        2.340        0.359      199.061       26.959        0.018      335.174        5.630      861.938
11/04/2013  10:45:00      133.003       77.173       48.725       72.274       54.978       41.328     5223.555     3022.598     1708.035        1.799        0.498      153.771       35.779        0.054      335.404        6.014      861.952
11/04/2013  10:46:00      137.341       87.132       34.689       79.296       57.835       47.894     6287.844     3344.855     2293.834        1.979        0.596      162.649       39.036        0.058      335.423        6.045      861.939
11/04/2013  10:47:00      134.722       68.429       24.741       57.746       41.501       50.042     3334.574     1722.324     2504.227        1.550        0.378      151.105       29.725        0.039      335.449        6.089      861.932
11/04/2013  10:48:00       55.958       35.755      -16.833       45.310       40.710       23.617     2052.976     1657.332      557.752        0.448        0.213       66.406       23.541        0.126      335.086        5.486      861.926
11/04/2013  10:49:00       21.598      -50.148       -8.468       50.179       37.345       37.593     2517.942     1394.612     1413.213        0.419        0.266       54.601       24.511        0.202      335.490        6.159      861.893
11/04/2013  10:50:00      -29.005       29.239       -3.724       41.472       30.135       23.722     1719.962      908.111      562.717        0.245        0.160       41.185       16.462        0.160      335.591        6.328      861.871
11/04/2013  10:51:00        2.248      -15.076       17.462       55.722       40.034       25.805     3104.997     1602.706      665.875        0.295        0.269       15.243       16.077        1.113      335.850        6.758      861.833
11/04/2013  10:52:00        5.042      -83.520      -15.020       29.270       46.816       23.762      856.744     2191.729      564.631        0.542        0.181       83.672       13.993        0.028      335.819        6.706      861.805
11/04/2013  10:53:00      -11.942        2.572      -14.407       30.875       58.341       26.783      953.284     3403.700      717.336        0.271        0.254       12.216       16.733        1.876      335.743        6.579      861.792
11/04/2013  10:54:00       86.021     -103.470      -15.533       57.714       58.644       34.318     3330.899     3439.152     1177.717        1.315        0.397      134.557       30.834        0.053      335.521        6.210      861.765
11/04/2013  10:55:00       73.658      -71.552        1.464       55.060       61.179       45.176     3031.568     3742.928     2040.873        0.968        0.441      102.690       40.117        0.153      335.618        6.372      861.750
11/04/2013  10:56:00       61.744       68.803       73.493       49.223       70.462       49.917     2422.879     4964.827     2491.725        1.191        0.494       92.446       52.758        0.326      335.757        6.604      861.723
11/04/2013  10:57:00       31.165      -50.954       17.360       55.039       85.589       49.739     3029.314     7325.483     2473.995        0.835        0.641       59.729       51.667        0.748      335.879        6.806      861.698
11/04/2013  10:58:00        0.113      -51.983       26.919       40.659       72.643       41.316     1653.182     5276.939     1707.004        0.603        0.432       51.983       33.452        0.414      336.222        7.379      861.670
11/04/2013  10:59:00       71.834       80.720       28.978       72.823       70.868       64.583     5303.262     5022.324     4170.955        1.350        0.725      108.055       50.720        0.220      335.932        6.894      861.668
11/04/2013  11:00:00      198.896      140.541       50.270      118.124       80.347       80.587    13953.185     6455.617     6494.231        4.437        1.345      243.539       56.799        0.054      335.606        6.350      861.681
11/04/2013  11:01:00      181.581      131.464       26.830       89.181       63.712       54.857     7953.286     4059.212     3009.236        3.300        0.751      224.175       38.666        0.030      335.386        5.983      861.712
11/04/2013  11:02:00      146.752      112.543       37.009       73.769       55.997       54.195     5441.892     3135.629     2937.076        2.354        0.576      184.938       21.377        0.013      335.484        6.147      861.722
11/04/2013  11:03:00      174.480      109.677       36.006       67.951       59.894       56.071     4617.293     3587.263     3143.909        2.756        0.567      206.089       36.245        0.031      335.630        6.390      861.729
11/04/2013  11:04:00      144.115      105.565       51.646       53.303       52.883       60.127     2841.259     2796.652     3615.214        2.192        0.463      178.643       30.309        0.029      335.588        6.320      861.716
11/04/2013  11:05:00      124.423      125.398       95.892       87.238       98.087       87.874     7610.516     9621.114     7721.877        3.267        1.248      176.652       80.534        0.208      335.347        5.918      861.709
11/04/2013  11:06:00       25.150       49.151       84.090       74.802       84.281       33.135     5595.375     7103.342     1097.914        1.196        0.690       55.212       34.579        0.392      335.825        6.716      861.714
11/04/2013  11:07:00       43.897       97.913      100.562       52.966       47.224       36.211     2805.397     2230.069     1311.235        1.399        0.317      107.303       34.839        0.105      335.504        6.182      861.722
11/04/2013  11:08:00       62.839       55.318      -13.764       53.667       39.289       27.131     2880.106     1543.621      736.113        0.618        0.258       83.719       24.420        0.085      335.271        5.795      861.698
11/04/2013  11:09:00       38.415       38.407       31.931       35.662       30.120       24.033     1271.770      907.227      577.585        0.336        0.138       54.321       16.231        0.089      335.672        6.463      861.685
11/04/2013  11:10:00       39.042       58.456       22.204       37.767       42.954       30.617     1426.334     1845.014      937.397        0.482        0.210       70.295       20.941        0.089      335.754        6.599      861.690
11/04/2013  11:11:00       78.499       61.910        3.079       50.382       36.825       33.282     2538.318     1356.068     1107.675        0.750        0.250       99.975       25.936        0.067      335.695        6.500      861.690
11/04/2013  11:12:00       31.178       46.291        7.316       85.228       61.051       45.841     7263.774     3727.226     2101.405        0.813        0.655       55.811       39.590        0.503      336.189        7.324      861.696
11/04/2013  11:13:00       -0.048       28.771        7.066       29.561       38.070       28.543      873.860     1449.360      814.694        0.201        0.157       28.771       10.773        0.140      336.512        7.864      861.681
11/04/2013  11:14:00       19.423       29.483       46.170       59.052       63.500       55.393     3487.142     4032.266     3068.337        0.698        0.529       35.306       45.505        1.661      336.427        7.721      861.670
11/04/2013  11:15:00      156.783       77.950       29.167       93.694       70.003       54.364     8778.606     4900.374     2955.490        2.407        0.832      175.091       35.480        0.041      336.044        7.080      861.659
11/04/2013  11:16:00      115.586       52.422       10.374       66.700       55.554       48.503     4448.916     3086.247     2352.571        1.305        0.494      126.918       38.458        0.092      335.873        6.796      861.632
11/04/2013  11:17:00       60.221      116.405      141.677       96.306       88.893       65.942     9274.757     7902.019     4348.311        2.938        1.076      131.060       55.991        0.183      336.038        7.071      861.613
11/04/2013  11:18:00       93.790       44.236      117.346      107.712       77.931       63.663    11601.941     6073.285     4052.970        2.312        1.086      103.698       62.230        0.360      335.840        6.740      861.639
11/04/2013  11:19:00      124.784     -102.779       14.653       81.664      114.983       67.179     6669.036    13221.099     4513.064        2.537        1.220      161.662       79.812        0.244      335.608        6.353      861.638
11/04/2013  11:20:00      120.462      -90.305        2.666       46.954       47.945       35.392     2204.671     2298.765     1252.597        1.421        0.288      150.552       26.188        0.030      335.388        5.989      861.660
11/04/2013  11:21:00       58.823      -30.479       18.795       40.505       61.348       34.198     1640.679     3763.529     1169.501        0.566        0.329       66.250       32.947        0.247      335.784        6.648      861.677
11/04/2013  11:22:00       10.822       88.478      -12.463       31.058       87.179       40.814      964.583     7600.115     1665.812        0.916        0.512       89.137       30.617        0.118      335.719        6.540      861.680
11/04/2013  11:23:00       34.174       70.397       -8.746       34.799       39.916       28.577     1210.967     1593.296      816.664        0.491        0.181       78.253       20.521        0.069      335.618        6.371      861.668
11/04/2013  11:24:00       20.093      145.398       -7.077       66.186       72.805       45.669     4380.593     5300.640     2085.636        1.668        0.588      146.779       44.428        0.092      335.677        6.470      861.665
11/04/2013  11:25:00       20.740      167.305      -14.017       46.936      108.793       44.190     2203.017    11835.934     1952.754        2.230        0.800      168.586       55.676        0.109      335.746        6.585      861.653
11/04/2013  11:26:00      -15.121      281.128      -38.704       38.500       76.798       26.347     1482.219     5897.914      694.155        4.442        0.404      281.534       23.320        0.007      335.279        5.804      861.643
11/04/2013  11:27:00      -73.253      149.375      -30.932       39.087       59.760       29.869     1527.784     3571.226      892.140        1.731        0.300      166.370       21.179        0.016      335.424        6.048      861.627
11/04/2013  11:28:00      -80.600      177.566      -32.972       34.848       72.301       28.288     1214.370     5227.432      800.219        2.318        0.362      195.002       28.515        0.021      335.468        6.121      861.589
11/04/2013  11:29:00     -120.403      106.888      -45.900       37.407       67.349       25.932     1399.306     4535.878      672.476        1.732        0.330      161.003       25.396        0.025      335.359        5.939      861.568
11/04/2013  11:30:00      -74.542       52.666       14.928       58.238       90.739       41.242     3391.622     8233.502     1700.891        1.094        0.666       91.270       34.085        0.139      335.755        6.599      861.547
11/04/2013  11:31:00     -107.785       53.215        6.710       82.607       46.461       37.389     6823.961     2158.652     1397.953        1.244        0.519      120.206       35.258        0.086      335.643        6.413      861.523
11/04/2013  11:32:00       76.654       50.727       14.559       47.287       37.635       38.415     2236.054     1416.418     1475.707        0.689        0.256       91.919       20.650        0.050      335.870        6.791      861.532
11/04/2013  11:33:00       17.532       85.089      -21.379       41.038       42.833       22.399     1684.079     1834.680      501.715        0.601        0.201       86.876       15.192        0.031      335.543        6.246      861.547
11/04/2013  11:34:00      -42.873       27.453      -13.770       29.677       47.604       14.870      880.728     2266.156      221.105        0.307        0.168       50.909       17.138        0.113      335.338        5.906      861.542
11/04/2013  11:35:00     -127.153      -55.974      -16.887       27.351       29.724       24.445      748.077      883.494      597.546        1.091        0.111      138.927       14.621        0.011      335.371        5.962      861.534
11/04/2013  11:36:00      -62.907      -24.292       -6.558       32.240       24.431       23.024     1039.416      596.886      530.088        0.338        0.108       67.434       16.877        0.063      335.504        6.182      861.529
11/04/2013  11:37:00      -17.873       20.983       22.344       39.207       21.947       32.143     1537.205      481.668     1033.190        0.216        0.153       27.563       30.739        1.244      335.695        6.500      861.513
11/04/2013  11:38:00        9.608       45.023       62.325       63.629       50.847       45.525     4048.706     2585.423     2072.492        0.735        0.435       46.037       46.511        1.021      335.899        6.841      861.503
11/04/2013  11:39:00       91.139       80.414       48.286       42.242       32.233       43.735     1784.387     1038.956     1912.720        1.092        0.237      121.543       30.897        0.065      335.546        6.251      861.476
11/04/2013  11:40:00      135.685       93.731       38.395       67.728       46.614       46.192     4587.046     2172.867     2133.690        1.878        0.445      164.911       28.269        0.029      335.467        6.118      861.437
11/04/2013  11:41:00       92.821      100.447      -18.507       68.377       58.745       41.981     4675.357     3450.993     1762.394        1.447        0.494      136.768       28.407        0.043      335.759        6.607      861.431
11/04/2013  11:42:00        5.691       99.391      -14.453       48.796       56.813       33.926     2381.073     3227.733     1151.005        0.844        0.338       99.554       17.879        0.032      335.866        6.785      861.440
11/04/2013  11:43:00       22.682       42.031      -15.516       34.894       53.211       34.864     1217.590     2831.448     1215.474        0.389        0.263       47.760       17.051        0.127      335.824        6.715      861.430
11/04/2013  11:44:00      -35.206        3.733      -22.359       41.041       32.531       32.313     1684.368     1058.251     1044.135        0.277        0.189       35.403       27.809        0.617      335.802        6.679      861.443
11/04/2013  11:45:00       44.980       89.963      100.864       77.368       95.348       75.668     5985.794     9091.322     5725.575        2.054        1.040      100.581       73.716        0.537      336.193        7.330      861.407
11/04/2013  11:46:00       91.321       57.869       46.481       76.204       65.855       59.511     5807.063     4336.829     3541.589        1.376        0.684      108.112       46.600        0.186      335.777        6.635      861.372
11/04/2013  11:47:00      125.523       50.380       20.542       64.820       45.405       41.454     4201.607     2061.623     1718.458        1.335        0.399      135.256       19.712        0.021      335.809        6.689      861.344
11/04/2013  11:48:00      141.343       60.579       25.890       76.249       70.873       44.763     5813.939     5022.974     2003.741        1.858        0.642      153.778       28.602        0.035      335.998        7.003      861.313
11/04/2013  11:49:00       90.918       83.666       25.759       70.644       73.028       49.040     4990.642     5333.032     2404.939        1.433        0.636      123.556       24.199        0.038      336.464        7.782      861.297
11/04/2013  11:50:00       37.227       46.704       12.585       66.944       53.590       42.270     4481.506     2871.899     1786.743        0.643        0.457       59.725       30.869        0.267      336.627        8.057      861.310
11/04/2013  11:51:00       35.356       81.107       86.009       63.105       69.869       63.135     3982.237     4881.724     3986.084        1.404        0.643       88.478       40.572        0.210      336.613        8.030      861.312
11/04/2013  11:52:00      133.120       49.304       37.549      103.323       71.262       51.027    10675.602     5078.266     2603.715        1.996        0.918      141.957       15.651        0.012      336.233        7.397      861.310
11/04/2013  11:53:00       96.679       94.111      118.192      131.803       91.390       74.315    17372.091     8352.216     5522.770        3.170        1.562      134.921       82.150        0.371      336.294        7.497      861.299
11/04/2013  11:54:00       16.587        3.176       66.965       57.223       89.663       56.054     3274.454     8039.476     3142.046        0.961        0.723       16.888       59.203       12.289      336.630        8.061      861.311
11/04/2013  11:55:00      159.078     -195.794      -12.856       91.724      102.433       50.187     8413.357    10492.606     2518.713        4.261        1.071      252.272       62.412        0.061      336.191        7.324      861.299
11/04/2013  11:56:00      125.501      -38.896       61.732       85.584      130.978       92.665     7324.574    17155.216     8586.801        2.706        1.653      131.390       85.509        0.424      336.278        7.470      861.301
11/04/2013  11:57:00       86.059       53.231       48.693       66.583       62.520       50.226     4433.271     3908.734     2522.696        1.174        0.543      101.192       13.073        0.017      336.547        7.920      861.303
11/04/2013  11:58:00      154.219       93.982       44.653      126.474       63.960       58.696    15995.662     4090.921     3445.163        2.907        1.177      180.599       30.745        0.029      336.067        7.119      861.290
11/04/2013  11:59:00      221.872      102.879       45.260       75.086       55.667       49.600     5637.854     3098.843     2460.146        3.653        0.560      244.564       22.471        0.008      335.742        6.576      861.282
11/04/2013  12:00:00       72.418        8.886       18.346       55.987       67.164       32.494     3134.506     4510.950     1055.879        0.718        0.435       72.961       21.740        0.089      336.084        7.148      861.267
11/04/2013  12:01:00       43.428       34.330       43.083       40.125       46.153       30.200     1610.012     2130.128      912.013        0.479        0.233       55.359       13.668        0.061      336.377        7.637      861.231
11/04/2013  12:02:00       40.225       10.077       39.323       39.406       54.254       41.916     1552.819     2943.444     1756.974        0.476        0.313       41.468       30.020        0.524      336.239        7.409      861.214
11/04/2013  12:03:00       23.520       58.243      101.403       61.538      155.865      109.667     3786.910    24293.911    12026.894        2.716        2.005       62.813      121.714        3.755      336.379        7.639      861.186
11/04/2013  12:04:00       68.305      -75.952       15.390       56.300       90.618       50.146     3169.647     8211.537     2514.614        1.228        0.695      102.148       54.887        0.289      336.055        7.099      861.202
11/04/2013  12:05:00       54.925        4.038       46.753       61.163       78.791       65.339     3740.931     6208.070     4269.171        0.972        0.711       55.073       69.241        1.581      336.322        7.545      861.187
11/04/2013  12:06:00      139.490      150.005      132.153      118.857       93.189       95.128    14126.965     8684.165     9049.296        4.564        1.593      204.839       84.535        0.170      335.976        6.965      861.155
11/04/2013  12:07:00      196.477      107.955       95.514      100.912       82.141       87.824    10183.221     6747.182     7713.004        4.201        1.232      224.182       56.965        0.065      335.833        6.728      861.148
11/04/2013  12:08:00      154.818      105.766       65.779      113.356       80.036       53.651    12849.565     6405.761     2878.446        3.080        1.107      187.497       47.939        0.065      335.837        6.735      861.167
11/04/2013  12:09:00       61.882      148.459      138.038       71.157       81.806       60.033     5063.292     6692.291     3603.989        3.014        0.768      160.840       56.037        0.121      336.039        7.071      861.159
11/04/2013  12:10:00       83.358       37.049       72.848       76.510       54.603       46.077     5853.840     2981.541     2123.118        1.229        0.548       91.221       42.916        0.221      336.004        7.016      861.164
11/04/2013  12:11:00       77.335      106.983      103.955       69.402       63.942       43.018     4816.672     4088.556     1850.561        1.949        0.538      132.008       41.054        0.097      336.246        7.416      861.139
11/04/2013  12:12:00       91.331       24.074       49.355       56.189      130.815       80.627     3157.223    17112.556     6500.788        1.906        1.339       94.451       91.772        0.944      336.122        7.211      861.141
11/04/2013  12:13:00       99.435      116.474      102.667       74.036       52.392       70.856     5481.358     2744.905     5020.514        2.362        0.662      153.145       46.275        0.091      335.955        6.932      861.130
11/04/2013  12:14:00       44.154       43.124       45.185       32.063       45.515       35.008     1028.029     2071.574     1225.580        0.509        0.216       61.719       30.762        0.248      335.761        6.608      861.131
11/04/2013  12:15:00       89.498       54.193       36.468       83.628       46.225       39.912     6993.713     2136.780     1592.945        1.150        0.536      104.627       20.494        0.038      336.118        7.205      861.109
11/04/2013  12:16:00      194.091      129.771       17.166       86.046       68.108       64.560     7403.976     4638.763     4168.015        3.551        0.811      233.478       39.308        0.028      335.812        6.689      861.086
11/04/2013  12:17:00      153.592       90.375       83.133      116.942      136.090       84.895    13675.504    18520.572     7207.083        3.903        1.970      178.208       84.289        0.224      336.063        7.110      861.077
11/04/2013  12:18:00       39.209       -3.818       50.672       67.440      100.130       67.106     4548.161    10026.051     4503.281        1.160        0.954       39.395       76.428        3.764      336.190        7.324      861.071
11/04/2013  12:19:00       87.469       55.885       23.548       43.867       36.842       43.423     1924.289     1357.367     1885.551        0.825        0.258      103.797       22.521        0.047      335.883        6.813      861.073
11/04/2013  12:20:00       61.755       61.080       58.976       58.093       46.763       42.739     3374.773     2186.761     1826.596        0.920        0.369       86.859       31.826        0.134      336.207        7.353      861.058
11/04/2013  12:21:00      -14.074       83.229      -20.036       75.135       42.374       33.787     5645.336     1795.598     1141.557        0.805        0.429       84.411       29.736        0.124      335.801        6.677      861.062
11/04/2013  12:22:00      -25.530       38.259        5.567       30.364       30.524       27.947      921.989      931.744      781.029        0.239        0.132       45.995       19.895        0.187      336.607        8.022      861.044
11/04/2013  12:23:00      -33.416       36.303       -9.084       39.832       50.330       28.535     1586.600     2533.134      814.240        0.372        0.247       49.341       34.017        0.475      336.272        7.463      861.033
11/04/2013  12:24:00      -23.111       30.443      -11.597       24.871       42.546       20.846      618.546     1810.149      434.573        0.223        0.143       38.222       15.380        0.162      336.117        7.205      861.016
11/04/2013  12:25:00       -2.803       39.954        1.698       28.926       42.756       28.506      836.723     1828.086      812.573        0.254        0.174       40.052       24.158        0.364      336.420        7.710      860.994
11/04/2013  12:26:00        7.661        2.765       11.980       21.279       18.860       18.238      452.802      355.687      332.639        0.068        0.057        8.145       11.708        2.066      336.878        8.476      860.993
11/04/2013  12:27:00      -51.818      -41.482       18.241       55.762       57.827       30.733     3109.406     3343.921      944.499        0.607        0.370       66.377       27.362        0.170      336.456        7.771      860.995
11/04/2013  12:28:00     -138.670     -161.409       -0.973       78.060       66.876       51.058     6093.407     4472.452     2606.967        2.923        0.659      212.796       34.456        0.026      336.156        7.268      861.010
11/04/2013  12:29:00      -76.680     -108.962        3.748       58.874       73.385       42.615     3466.091     5385.339     1816.001        1.422        0.533      133.239       28.711        0.046      336.058        7.103      861.028
11/04/2013  12:30:00     -105.884     -144.805      -16.355       76.584       88.405       36.581     5865.083     7815.364     1338.147        2.373        0.751      179.388       36.446        0.041      336.066        7.116      861.018
11/04/2013  12:31:00      -76.184      -52.259        3.980       36.712       54.006       33.405     1347.790     2916.679     1115.926        0.696        0.269       92.385       23.156        0.063      336.023        7.047      861.032
11/04/2013  12:32:00      -28.897       13.364        9.878       30.796       24.916       25.356      948.394      620.822      642.917        0.166        0.111       31.838       10.704        0.113      336.334        7.566      861.024
11/04/2013  12:33:00      -16.890       -4.097       33.204       38.835       37.564       26.459     1508.171     1411.087      700.069        0.251        0.181       17.380       22.499        1.676      336.817        8.374      861.014
11/04/2013  12:34:00       57.347       25.520       65.019       84.403       90.265       63.317     7123.879     8147.820     4009.032        1.372        0.964       62.769       47.078        0.563      336.697        8.172      860.988
11/04/2013  12:35:00       12.823     -132.570        1.990       55.253      134.287       45.297     3052.867    18033.123     2051.856        2.044        1.157      133.188       40.802        0.094      335.991        6.993      860.962
11/04/2013  12:36:00      -13.187      -37.100       20.145       40.793       71.907       33.319     1664.045     5170.600     1110.183        0.495        0.397       39.374       28.400        0.520      336.495        7.834      860.932
11/04/2013  12:37:00       32.951       -2.418       22.769       45.402       35.464       40.258     2061.315     1257.722     1620.716        0.327        0.247       33.039        7.764        0.055      336.566        7.953      860.935
11/04/2013  12:38:00       71.199       83.170       90.504       95.779       56.049       54.730     9173.623     3141.453     2995.318        1.774        0.766      109.482       49.512        0.205      336.511        7.861      860.924
11/04/2013  12:39:00      108.812        8.690       62.367       97.832      130.901       81.899     9571.117    17134.947     6707.438        2.460        1.671      109.159       84.215        0.595      336.183        7.312      860.908
11/04/2013  12:40:00       72.848       14.443       69.623       70.170       82.682       47.593     4923.801     6836.339     2265.080        1.219        0.701       74.266       56.041        0.569      336.377        7.637      860.884
11/04/2013  12:41:00       55.646      -46.667       44.935       65.020      117.589       60.170     4227.648    13827.174     3620.440        1.448        1.084       72.624       68.931        0.901      336.461        7.777      860.858
11/04/2013  12:42:00      141.200       91.380       70.766      129.980       97.967       90.818    16894.710     9597.630     8247.906        3.401        1.737      168.189       65.719        0.153      336.358        7.605      860.816
11/04/2013  12:43:00      226.471      117.332       68.982      114.029       87.365       88.168    13002.503     7632.649     7773.523        4.911        1.420      255.061       59.167        0.054      336.232        7.392      860.807
11/04/2013  12:44:00       93.040      116.519       85.963       75.635       64.245       62.341     5720.711     4127.449     3886.364        2.168        0.687      149.108       40.416        0.073      336.246        7.417      860.811
11/04/2013  12:45:00        0.422       50.443       80.316       51.286       59.506       38.092     2630.235     3540.963     1450.965        0.831        0.381       50.445       38.568        0.585      336.989        8.660      860.802
11/04/2013  12:46:00       31.813      -85.915        3.134       60.405      101.769       51.498     3648.710    10356.983     2652.053        1.253        0.833       91.616       45.508        0.247      336.580        7.976      860.774
11/04/2013  12:47:00       17.195       59.743       62.372       47.379       42.345       45.437     2244.801     1793.123     2064.531        0.693        0.305       62.168       28.870        0.216      336.591        7.994      860.780
11/04/2013  12:48:00       94.901       95.960       64.790       74.413       65.572       74.265     5537.272     4299.740     5515.346        1.888        0.768      134.961       60.325        0.200      336.474        7.799      860.769
11/04/2013  12:49:00       72.556       54.464        2.133       60.277       62.791       37.739     3633.296     3942.761     1424.208        0.862        0.450       90.723       23.821        0.069      336.039        7.074      860.776
11/04/2013  12:50:00       56.965      200.575      -25.758       66.856      102.068       51.282     4469.742    10417.969     2629.800        3.083        0.876      208.508       57.115        0.075      335.894        6.828      860.774
11/04/2013  12:51:00        8.418      188.038      -26.836       33.988       58.279       29.223     1155.210     3396.423      853.970        2.078        0.270      188.226       26.103        0.019      335.840        6.741      860.786
11/04/2013  12:52:00      -51.052      133.058      -16.450       31.977       45.452       29.586     1022.551     2065.879      875.313        1.227        0.198      142.516       23.223        0.027      336.206        7.353      860.775
11/04/2013  12:53:00      -79.071       84.590       -3.879       59.949       59.050       36.006     3593.843     3486.950     1296.446        1.090        0.419      115.791       36.904        0.102      336.381        7.646      860.780
11/04/2013  12:54:00      -51.416       24.135       -8.443       43.041       25.449       19.238     1852.534      647.663      370.117        0.308        0.144       56.799       19.950        0.123      336.249        7.425      860.797
11/04/2013  12:55:00      -27.854       35.048        7.341       21.765       34.712       22.454      473.734     1204.903      504.184        0.212        0.109       44.768       22.087        0.243      336.583        7.983      860.827
11/04/2013  12:56:00      -28.249       53.556        4.858       32.815       37.962       37.650     1076.843     1441.090     1417.497        0.381        0.197       60.550       31.799        0.276      336.577        7.972      860.853
11/04/2013  12:57:00       50.234       35.683       19.598       63.347       41.039       30.269     4012.858     1684.196      916.226        0.540        0.331       61.618       20.212        0.108      336.678        8.141      860.874
11/04/2013  12:58:00       25.916      151.163        5.257       66.669      101.799       49.249     4444.758    10362.966     2425.419        2.039        0.862      153.368       55.451        0.131      336.542        7.912      860.888
11/04/2013  12:59:00       31.405       69.971        6.300       45.604       61.730       36.277     2079.707     3810.648     1315.992        0.656        0.360       76.695       35.882        0.219      336.341        7.579      860.905
11/04/2013  13:00:00       13.373       81.998        1.900       35.959       46.862       30.830     1293.066     2196.018      950.487        0.567        0.222       83.081       29.535        0.126      336.354        7.599      860.893
11/04/2013  13:01:00       37.432       72.775       14.269       51.160       62.410       48.322     2617.383     3895.053     2334.970        0.787        0.442       81.838       47.666        0.339      336.575        7.969      860.890
11/04/2013  13:02:00       50.994       33.115        6.995       38.039       32.614       37.513     1446.978     1063.663     1407.241        0.383        0.196       60.803       21.419        0.124      336.336        7.569      860.911
11/04/2013  13:03:00       31.190       33.458       -0.810       27.373       31.603       22.228      749.266      998.728      494.076        0.217        0.112       45.742       14.178        0.096      336.574        7.968      860.911
11/04/2013  13:04:00      -21.909      174.160      -20.310       36.201       65.983       27.981     1310.505     4353.794      782.956        1.883        0.322      175.533       25.145        0.021      336.124        7.212      860.891
11/04/2013  13:05:00       78.507       79.189        9.562       46.970       48.212       38.845     2206.197     2324.442     1508.960        0.928        0.302      111.509       29.849        0.072      336.281        7.476      860.871
11/04/2013  13:06:00       89.358      106.550       -1.300       35.849       44.404       36.569     1285.140     1971.754     1337.300        1.197        0.230      139.061       30.686        0.049      336.237        7.403      860.859
11/04/2013  13:07:00       34.580       33.657       28.927       63.994       34.272       35.313     4095.192     1174.585     1247.008        0.484        0.326       48.255       20.574        0.182      336.649        8.093      860.839
11/04/2013  13:08:00       51.553       85.916        7.975       59.437       46.105       33.953     3532.795     2125.637     1152.819        0.846        0.341      100.196       28.194        0.079      336.451        7.761      860.799
11/04/2013  13:09:00      -43.667      154.878      -22.931       38.375       47.561       21.032     1472.674     2262.083      442.331        1.530        0.209      160.916       15.942        0.010      336.144        7.247      860.770
11/04/2013  13:10:00      -35.793       67.174        3.984       33.714       54.485       26.531     1136.640     2968.563      703.904        0.531        0.240       76.115       22.245        0.085      336.639        8.076      860.764
11/04/2013  13:11:00      -50.706      -23.705       -6.496       52.421       52.593       24.394     2747.965     2766.006      595.055        0.464        0.305       55.973       14.811        0.070      336.654        8.101      860.758
11/04/2013  13:12:00        6.786      -69.128       -0.035       18.488       29.499       29.714      341.823      870.188      882.926        0.346        0.105       69.460       21.646        0.097      336.657        8.106      860.744
11/04/2013  13:13:00       19.603      -59.450       18.748       51.750       80.906       36.564     2678.040     6545.723     1336.934        0.741        0.528       62.599       35.289        0.318      336.968        8.625      860.749
11/04/2013  13:14:00      158.553     -177.616      -16.131       99.606      122.785       51.692     9921.417    15076.203     2672.102        4.230        1.383      238.090       75.154        0.100      336.447        7.754      860.745
11/04/2013  13:15:00      141.263     -174.292        5.408      111.917      141.624       61.902    12525.469    20057.312     3831.888        4.338        1.821      224.350       76.099        0.115      336.451        7.760      860.736
11/04/2013  13:16:00      168.199     -252.596      -31.138       77.171       68.169       35.516     5955.301     4647.009     1261.364        5.246        0.593      303.473       35.705        0.014      336.209        7.352      860.752
11/04/2013  13:17:00       72.345      -18.211       68.629      106.813      159.069       85.518    11408.933    25302.882     7313.374        2.714        2.201       74.602      112.105        2.258      336.435        7.732      860.777
11/04/2013  13:18:00       13.409     -115.242        5.667       55.128      104.854       44.802     3039.127    10994.427     2007.230        1.476        0.802      116.019       50.145        0.187      336.275        7.467      860.786
11/04/2013  13:19:00     -109.518      -84.857       -4.058       73.413       62.753       53.737     5389.528     3937.953     2887.617        1.571        0.611      138.546       44.021        0.101      336.407        7.686      860.760
11/04/2013  13:20:00      -55.342      -22.215       13.867       81.780       51.973       38.557     6687.916     2701.220     1486.605        0.731        0.544       59.634       45.910        0.593      336.686        8.154      860.780
11/04/2013  13:21:00     -121.280      -89.917       -7.353       61.817       30.904       27.869     3821.350      955.074      776.676        1.420        0.278      150.977       29.208        0.037      336.271        7.460      860.808
11/04/2013  13:22:00       -7.376      -23.301       19.419       32.116       29.651       30.488     1031.447      879.184      929.521        0.191        0.142       24.441       19.891        0.662      336.869        8.461      860.837
11/04/2013  13:23:00        7.107      -11.900       34.017       28.556       22.013       24.688      815.424      484.581      609.476        0.163        0.095       13.861       18.512        1.784      337.301        9.182      860.841
11/04/2013  13:24:00       16.451      -43.702       15.683       56.072       51.125       21.530     3144.110     2613.814      463.544        0.432        0.311       46.696       24.192        0.268      336.843        8.417      860.847
11/04/2013  13:25:00       94.485       -5.833       65.395       76.373      141.913       68.495     5832.856    20139.227     4691.501        2.195        1.533       94.665       87.242        0.849      336.729        8.224      860.829
11/04/2013  13:26:00       50.193       65.328       51.352       53.538       47.118       43.433     2866.280     2220.099     1886.447        0.820        0.349       82.384       31.472        0.146      336.499        7.843      860.834
11/04/2013  13:27:00       17.545       23.208       27.911       32.532       40.866       29.380     1058.318     1670.067      863.213        0.261        0.180       29.094       19.358        0.443      336.864        8.453      860.828
11/04/2013  13:28:00       75.407      -16.496       14.177       49.612       87.464       46.771     2461.355     7649.891     2187.556        0.923        0.615       77.190       51.723        0.449      336.471        7.795      860.823
11/04/2013  13:29:00       48.828        6.176       12.338       39.947       68.535       40.817     1595.799     4697.033     1666.032        0.527        0.398       49.217       23.356        0.225      336.339        7.575      860.800
11/04/2013  13:30:00      158.974     -168.077        1.639       93.166      156.409       71.048     8679.858    24463.878     5047.820        4.585        1.910      231.350       94.356        0.166      336.384        7.647      860.768
11/04/2013  13:31:00        1.520      -18.131       27.104       87.666       79.801       55.423     7685.287     6368.271     3071.664        0.909        0.856       18.194       65.624       13.009      336.502        7.846      860.764
11/04/2013  13:32:00       83.726       -6.919       48.038       77.149       84.778       52.772     5951.990     7187.288     2784.843        1.264        0.796       84.012       44.478        0.280      336.835        8.403      860.771
11/04/2013  13:33:00      156.275       66.952       33.981      101.845       89.140       76.389    10372.340     7945.926     5835.228        2.710        1.208      170.013       60.956        0.129      336.576        7.970      860.786
11/04/2013  13:34:00      116.125       56.083       24.385       92.889       71.706       57.346     8628.393     5141.810     3288.608        1.714        0.853      128.959       23.856        0.034      336.582        7.979      860.788
11/04/2013  13:35:00      177.998      107.421       27.490       57.899       48.044       53.284     3352.317     2308.201     2839.236        2.624        0.425      207.901       38.656        0.035      336.259        7.438      860.801
11/04/2013  13:36:00       84.570       11.094       20.568       69.022       47.245       32.480     4764.056     2232.098     1054.926        0.787        0.403       85.295       32.498        0.145      336.328        7.556      860.808
11/04/2013  13:37:00       17.317      -69.893       22.943       31.637       61.117       33.094     1000.906     3735.300     1095.188        0.577        0.292       72.006       34.070        0.224      336.661        8.114      860.808
11/04/2013  13:38:00       70.568      -19.820       21.081       84.929       81.876       40.583     7212.912     6703.759     1646.980        1.069        0.778       73.299       43.164        0.347      336.538        7.905      860.812
11/04/2013  13:39:00      135.389       83.571       11.613       46.901       46.436       37.370     2199.744     2156.262     1396.503        1.560        0.288      159.104        9.006        0.003      336.456        7.770      860.801
11/04/2013  13:40:00       13.588       34.121       47.602       27.435       29.311       28.898      752.675      859.109      835.121        0.303        0.122       36.727       17.909        0.238      337.060        8.779      860.780
11/04/2013  13:41:00       70.404       58.232       55.872       62.486       35.654       41.719     3904.560     1271.184     1740.479        0.919        0.346       91.366       25.268        0.076      336.384        7.649      860.768
11/04/2013  13:42:00       21.132       15.641        5.630       48.749       36.537       32.376     2376.417     1334.922     1048.182        0.274        0.238       26.290       31.628        1.447      336.455        7.769      860.771
11/04/2013  13:43:00      -27.684        1.594       15.548       41.233       29.585       24.969     1700.169      875.267      623.469        0.210        0.160       27.730       24.133        0.757      336.830        8.395      860.774
11/04/2013  13:44:00       71.910     -119.278      -10.586       51.647       56.698       30.789     2667.438     3214.683      947.992        1.317        0.342      139.278       27.914        0.040      336.590        7.994      860.795
11/04/2013  13:45:00       32.520      -67.808      -11.427       49.436       40.025       31.037     2443.876     1602.029      963.319        0.540        0.250       75.203       20.947        0.078      336.593        7.999      860.786
11/04/2013  13:46:00      -42.668      -50.384       -4.891       63.365       48.351       33.135     4015.104     2337.772     1097.934        0.592        0.373       66.024       30.094        0.208      336.711        8.196      860.751
11/04/2013  13:47:00       -3.153      -62.635        0.406       49.018       41.121       33.834     2402.762     1690.938     1144.731        0.458        0.262       62.714       20.650        0.108      336.852        8.431      860.723
11/04/2013  13:48:00      -29.320      -24.903       14.886       47.749       43.358       39.434     2279.972     1879.910     1555.018        0.371        0.286       38.468       35.437        0.849      337.029        8.728      860.707
11/04/2013  13:49:00      -34.824      -44.284       -0.029       41.325       38.609       32.434     1707.766     1490.639     1051.990        0.371        0.213       56.336       22.819        0.164      336.809        8.359      860.702
11/04/2013  13:50:00       44.708        5.879       37.081       55.484       45.949       30.463     3078.439     2111.331      928.001        0.476        0.306       45.093       31.829        0.498      336.943        8.584      860.709
11/04/2013  13:51:00       45.991       25.101       39.639       36.091       41.847       23.753     1302.585     1751.172      564.225        0.397        0.181       52.395       11.295        0.046      336.842        8.414      860.719
11/04/2013  13:52:00       54.321       71.149       28.962       42.145       32.925       39.900     1776.164     1084.087     1591.974        0.665        0.223       89.515       34.461        0.148      336.756        8.271      860.718
11/04/2013  13:53:00       76.775       53.408       17.018       54.992       51.681       40.378     3024.155     2670.891     1630.374        0.818        0.366       93.525       26.768        0.082      336.766        8.288      860.696
11/04/2013  13:54:00       65.681       67.719       78.035       73.521       58.438       43.502     5405.385     3415.013     1892.446        1.285        0.536       94.339       34.574        0.134      337.076        8.807      860.667
11/04/2013  13:55:00       33.896       89.386       74.702       73.828       87.984       60.841     5450.637     7741.196     3701.581        1.580        0.845       95.597       44.357        0.215      336.887        8.491      860.631
11/04/2013  13:56:00       38.242       30.346       33.282       51.215       70.922       30.783     2622.978     5029.932      947.605        0.604        0.430       48.819       26.171        0.287      336.869        8.459      860.642
11/04/2013  13:57:00       10.183      -32.905       -1.721       31.062       57.061       31.250      964.873     3255.921      976.534        0.319        0.260       34.445       13.512        0.154      336.715        8.203      860.642
11/04/2013  13:58:00      160.748      145.327      102.255       86.793       75.305       67.371     7533.086     5670.860     4538.807        3.758        0.887      216.702       56.787        0.069      336.384        7.645      860.640
11/04/2013  13:59:00      115.415       53.971       17.385       76.464       60.355       39.066     5846.686     3642.695     1526.183        1.377        0.551      127.411       31.895        0.063      336.564        7.950      860.622
11/04/2013  14:00:00       91.169       41.858       14.400       70.493       62.801       38.956     4969.260     3943.952     1517.568        1.035        0.522      100.319       37.243        0.138      336.724        8.217      860.588
11/04/2013  14:01:00       83.430       36.941       74.134       87.286       87.427       71.091     7618.921     7643.562     5053.898        1.707        1.016       91.242       57.344        0.395      336.879        8.475      860.553
11/04/2013  14:02:00      109.910      -56.750       23.820       83.530       78.734       46.237     6977.299     6198.978     2137.840        1.559        0.766      123.696       48.847        0.156      336.732        8.231      860.548
11/04/2013  14:03:00       94.471     -137.059       -0.358       64.029       73.927       49.603     4099.761     5465.165     2460.486        1.987        0.601      166.463       54.103        0.106      336.681        8.145      860.541
11/04/2013  14:04:00       -6.521      -52.592        7.669       76.951       58.210       40.399     5921.382     3388.413     1632.093        0.690        0.547       52.995       32.766        0.382      336.883        8.484      860.521
11/04/2013  14:05:00       -6.615      -73.738        3.142       77.189       48.007       42.203     5958.191     2304.635     1781.056        0.777        0.502       74.034       26.140        0.125      337.186        8.989      860.509
11/04/2013  14:06:00     -106.778      -51.141        4.411       46.015       44.724       36.295     2117.415     2000.268     1317.360        0.973        0.272      118.393       26.890        0.052      337.103        8.852      860.510
11/04/2013  14:07:00      -42.585      -82.097        5.832       39.027       47.610       32.504     1523.073     2266.725     1056.520        0.672        0.242       92.484       21.178        0.052      336.834        8.403      860.520
11/04/2013  14:08:00     -124.449      -45.834       -9.919       58.950       47.237       24.502     3475.076     2231.335      600.365        1.200        0.315      132.621       22.989        0.030      336.809        8.361      860.520
11/04/2013  14:09:00      -91.209      -82.508       17.577       79.439       59.482       36.159     6310.627     3538.093     1307.469        1.329        0.558      122.990       43.212        0.123      336.866        8.454      860.537
11/04/2013  14:10:00      -56.531      -86.239       -6.824       76.819       42.749       27.652     5901.154     1827.503      764.610        0.958        0.425      103.116       11.560        0.013      336.758        8.274      860.570
11/04/2013  14:11:00        0.113      -91.435        4.254       48.574       49.672       32.489     2359.476     2467.284     1055.510        0.713        0.294       91.435       27.151        0.088      336.963        8.619      860.610
11/04/2013  14:12:00      108.714      -43.073       47.296       84.680      169.038       77.074     7170.779    28573.898     5940.477        2.879        2.084      116.936      110.611        0.895      336.702        8.178      860.633
11/04/2013  14:13:00      127.209       84.731       46.494       60.059       37.046       49.156     3607.094     1372.411     2416.265        1.646        0.370      152.844       37.855        0.061      336.531        7.895      860.644
11/04/2013  14:14:00       41.115       44.422       59.049       59.028       55.416       43.121     3484.340     3070.921     1859.398        0.778        0.421       60.529       41.003        0.459      336.774        8.302      860.654
11/04/2013  14:15:00       89.258      115.195      101.243       68.318       48.887       50.167     4667.319     2389.958     2516.741        2.053        0.479      145.728       43.170        0.088      336.842        8.415      860.674
11/04/2013  14:16:00       39.395        8.005       20.752       51.955       61.038       39.059     2699.321     3725.644     1525.638        0.500        0.398       40.200       39.489        0.965      336.899        8.512      860.694
11/04/2013  14:17:00       18.392        8.679       57.886       47.708       62.685       40.701     2276.012     3929.422     1656.605        0.581        0.393       20.337       47.930        5.555      336.874        8.467      860.677
11/04/2013  14:18:00       46.582        8.652       43.915       64.181       75.310       32.037     4119.156     5671.580     1026.343        0.749        0.541       47.379       46.054        0.945      336.867        8.456      860.644
11/04/2013  14:19:00      171.236     -220.371      -23.115      106.274      114.858       66.514    11294.173    13192.323     4424.080        5.366        1.446      279.079       81.049        0.084      336.913        8.530      860.584
11/04/2013  14:20:00      190.901     -214.723      -29.232       73.879       85.441       67.065     5458.154     7300.205     4497.728        5.033        0.863      287.313       56.903        0.039      336.603        8.011      860.551
11/04/2013  14:21:00       76.530      128.079      143.521       93.968       99.517       59.702     8829.948     9903.704     3564.306        3.257        1.115      149.201       57.028        0.146      336.914        8.533      860.547
11/04/2013  14:22:00       33.459       45.940       62.990       44.222       81.424       59.054     1955.586     6629.857     3487.421        0.963        0.604       56.834       57.483        1.023      337.023        8.718      860.574
11/04/2013  14:23:00       94.123     -120.377       -4.123       65.219       93.509       51.495     4253.561     8743.952     2651.734        1.951        0.782      152.807       52.589        0.118      336.834        8.401      860.593
11/04/2013  14:24:00       69.297       89.702       27.411       69.186       66.069       66.436     4786.672     4365.135     4413.693        1.358        0.678      113.352       42.859        0.143      336.846        8.421      860.633
11/04/2013  14:25:00      169.980      111.676       29.945       59.415       50.535       46.556     3530.110     2553.744     2167.441        2.525        0.413      203.383       26.778        0.017      336.616        8.037      860.655
11/04/2013  14:26:00      105.060       90.234        4.874       92.752       71.325       39.542     8602.868     5087.210     1563.566        1.723        0.763      138.491       36.352        0.069      336.745        8.252      860.663
11/04/2013  14:27:00      113.710       85.040       23.132       73.389       54.609       49.733     5385.994     2982.119     2473.415        1.577        0.542      141.992       41.914        0.087      336.892        8.496      860.658
11/04/2013  14:28:00      131.029      109.427       22.517       62.291       54.825       40.205     3880.139     3005.738     1616.480        1.907        0.425      170.713       11.972        0.005      336.658        8.108      860.684
11/04/2013  14:29:00       95.847       77.586       16.104       46.377       43.177       34.987     2150.862     1864.256     1224.099        1.035        0.262      123.313       23.386        0.036      336.661        8.113      860.714
11/04/2013  14:30:00        5.698       60.419      -20.970       34.784       32.833       15.814     1209.901     1077.992      250.083        0.333        0.127       60.687       16.965        0.078      336.532        7.895      860.728
11/04/2013  14:31:00       28.654       49.906      -11.534       40.624       28.422       26.556     1650.288      807.797      705.237        0.330        0.158       57.547       21.183        0.135      336.589        7.993      860.726
11/04/2013  14:32:00       11.805       94.328      -17.091       26.071       43.599       15.013      679.686     1900.893      225.383        0.607        0.140       95.064       17.277        0.033      336.503        7.849      860.724
11/04/2013  14:33:00      -29.261       92.791       -4.366       33.087       63.312       28.346     1094.745     4008.444      803.478        0.770        0.295       97.295       35.827        0.136      336.698        8.175      860.709
11/04/2013  14:34:00      -55.041       26.605      -25.099       37.108       56.187       30.407     1376.986     3156.928      924.602        0.491        0.273       61.134       12.661        0.043      336.745        8.253      860.697
11/04/2013  14:35:00      -71.527      109.247      -13.529       49.040       71.279       33.026     2404.957     5080.764     1090.715        1.290        0.429      130.579       27.722        0.045      336.845        8.417      860.688
11/04/2013  14:36:00      -67.179      168.003      -22.371       36.424       54.697       29.904     1326.679     2991.774      894.274        1.922        0.261      180.936       24.547        0.018      336.812        8.364      860.679
11/04/2013  14:37:00      -65.273       77.787       -3.087       42.023       54.751       29.866     1765.947     2997.691      891.951        0.799        0.283      101.545       30.708        0.091      337.128        8.894      860.649
11/04/2013  14:38:00      -19.466       47.948        2.209       40.243       41.982       25.221     1619.485     1762.513      636.124        0.335        0.201       51.748       28.164        0.296      336.839        8.409      860.637
11/04/2013  14:39:00       -0.156       22.455       14.803       39.038       21.767       27.515     1523.986      473.794      757.051        0.174        0.138       22.456       13.704        0.372      336.983        8.651      860.618
11/04/2013  14:40:00      -40.956      -12.746        1.710       70.623       36.559       18.395     4987.557     1336.557      338.392        0.425        0.333       42.894       19.236        0.201      336.838        8.408      860.628
11/04/2013  14:41:00       22.167       14.008       11.669       27.525       32.098       15.933      757.631     1030.263      253.871        0.143        0.102       26.222       10.122        0.149      337.005        8.688      860.633
11/04/2013  14:42:00      139.309       61.505       16.179       57.938       45.368       38.238     3356.835     2058.220     1462.163        1.516        0.344      152.282        5.712        0.001      336.696        8.172      860.638
11/04/2013  14:43:00      101.870       93.151       95.187       88.762       79.973       76.568     7878.752     6395.759     5862.655        2.412        1.007      138.039       68.419        0.246      336.816        8.370      860.610
11/04/2013  14:44:00      140.199      106.418       82.038       90.649       56.466       61.757     8217.179     3188.450     3813.910        2.646        0.761      176.013       40.555        0.053      336.753        8.264      860.618
11/04/2013  14:45:00      104.464      150.733      138.949       81.319       75.031       62.931     6612.762     5629.634     3960.337        3.457        0.810      183.393       60.957        0.110      336.563        7.948      860.616
11/04/2013  14:46:00      128.992      132.336       80.856       75.171       51.979       61.241     5650.625     2701.855     3750.516        2.639        0.605      184.802       54.814        0.088      336.674        8.132      860.623
11/04/2013  14:47:00       27.596      106.684      103.089       57.479       53.679       43.088     3303.891     2881.472     1856.599        1.540        0.402      110.195       35.797        0.106      337.130        8.897      860.621
11/04/2013  14:48:00       64.127       -1.878       72.209       66.207      104.681       55.195     4383.367    10958.094     3046.470        1.386        0.919       64.155       68.652        1.145      336.976        8.639      860.638
11/04/2013  14:49:00       66.507       52.233       81.932       76.864       54.240       47.317     5908.027     2941.980     2238.877        1.247        0.554       84.566       46.978        0.309      336.938        8.576      860.649
11/04/2013  14:50:00      124.273       79.176       30.924       72.585       65.078       50.794     5268.559     4235.085     2580.075        1.737        0.604      147.352       31.516        0.046      336.778        8.307      860.661
11/04/2013  14:51:00      286.812      155.094       76.106      126.950      112.983       88.786    16116.385    12765.247     7882.969        7.443        1.838      326.060       69.879        0.046      336.682        8.144      860.623
11/04/2013  14:52:00      242.651      147.209       56.000      119.583       90.104       54.554    14300.050     8118.666     2976.134        5.454        1.270      283.814       42.258        0.022      336.790        8.325      860.616
11/04/2013  14:53:00      134.449       76.773       49.230      107.880       68.399       65.332    11638.144     4678.426     4268.287        2.349        1.029      154.824       62.036        0.161      336.893        8.499      860.621
11/04/2013  14:54:00      207.637       57.177       19.793       70.890       60.071       48.326     5025.446     3608.575     2335.398        2.887        0.548      215.366       32.612        0.023      336.687        8.152      860.610
11/04/2013  14:55:00       62.056       52.424       14.340       69.524       62.386       51.888     4833.613     3891.995     2692.316        0.911        0.571       81.236       36.409        0.201      336.876        8.471      860.591
11/04/2013  14:56:00      195.275      105.942       45.660       86.242       74.628       61.553     7437.657     5569.358     3788.727        3.412        0.840      222.162       39.658        0.032      336.836        8.402      860.576
11/04/2013  14:57:00      248.082      167.223       57.667       66.711       53.046       53.823     4450.322     2813.918     2896.875        5.150        0.508      299.179       39.442        0.017      336.611        8.025      860.570
11/04/2013  14:58:00      196.711      137.203       15.990       95.085       63.560       49.148     9041.208     4039.925     2415.480        3.663        0.775      239.833       30.603        0.016      336.667        8.121      860.575
11/04/2013  14:59:00       31.644       77.631        0.958       48.747       43.256       28.915     2376.247     1871.048      836.050        0.606        0.254       83.832       20.520        0.060      336.674        8.134      860.582
11/04/2013  15:00:00      159.277       73.595       44.991       93.395       62.913       53.071     8722.617     3958.069     2816.564        2.415        0.775      175.458       53.166        0.092      336.837        8.404      860.583
11/04/2013  15:01:00      221.954      131.632       18.163       76.276       64.697       56.295     5818.035     4185.710     3169.168        4.004        0.659      258.052       29.525        0.013      336.783        8.313      860.590
11/04/2013  15:02:00      228.342      136.259       39.637       64.059       61.026       62.250     4103.500     3724.191     3875.005        4.199        0.585      265.907       32.595        0.015      336.700        8.174      860.607
11/04/2013  15:03:00      101.179       68.543       39.785       83.498       51.894       56.738     6971.964     2693.019     3219.159        1.470        0.644      122.211       43.799        0.128      336.771        8.296      860.626
11/04/2013  15:04:00      126.201       77.065       -3.727       73.773       58.066       23.347     5442.523     3371.639      545.095        1.562        0.468      147.871       16.715        0.013      336.637        8.072      860.653
11/04/2013  15:05:00       40.380       46.855        9.946       52.848       32.776       23.867     2792.889     1074.265      569.622        0.418        0.222       61.854       17.079        0.076      336.848        8.425      860.660
11/04/2013  15:06:00       65.387       69.497        3.142       70.669       41.108       28.394     4994.096     1689.837      806.203        0.830        0.375       95.422       35.018        0.135      336.649        8.094      860.683
11/04/2013  15:07:00       -0.912       35.934       28.553       37.401       23.436       21.500     1398.846      549.239      462.262        0.226        0.121       35.946       18.015        0.251      337.094        8.837      860.688
11/04/2013  15:08:00       63.993       39.399       30.205       30.385       26.273       39.329      923.265      690.279     1546.802        0.486        0.158       75.149       16.600        0.049      336.814        8.370      860.715
11/04/2013  15:09:00       53.860       45.145       61.053       57.935       54.064       50.525     3356.419     2922.936     2552.777        0.875        0.442       70.278       46.657        0.441      336.808        8.360      860.734
11/04/2013  15:10:00       75.312       27.602       11.400       26.126       38.537       26.829      682.546     1485.085      719.798        0.473        0.144       80.211       12.654        0.025      336.585        7.988      860.752
11/04/2013  15:11:00       37.401       25.376      -10.214       31.619       31.013       17.538      999.791      961.788      307.580        0.221        0.113       45.197       14.127        0.098      336.639        8.075      860.760
11/04/2013  15:12:00       -2.733       83.939      -31.268       19.859       26.759       15.954      394.392      716.042      254.521        0.470        0.068       83.983        7.512        0.008      336.731        8.231      860.749
11/04/2013  15:13:00       22.707       71.091       -5.711       33.365       42.405       29.840     1113.246     1798.225      890.426        0.470        0.190       74.629       23.455        0.099      336.875        8.471      860.723
11/04/2013  15:14:00       59.452       69.515       77.779       57.544       70.436       56.088     3311.323     4961.225     3145.877        1.292        0.571       91.471       56.332        0.379      336.837        8.405      860.709
11/04/2013  15:15:00       63.007       42.283       53.595       53.895       55.751       49.300     2904.713     3108.188     2430.530        0.854        0.422       75.880       43.266        0.325      336.758        8.274      860.712
11/04/2013  15:16:00      -47.737      -15.547       -9.200       67.066       27.562       22.241     4497.817      759.667      494.666        0.418        0.288       50.205       25.654        0.261      336.718        8.207      860.716
11/04/2013  15:17:00     -161.606      -20.530      -14.819       29.991       37.217       21.545      899.440     1385.072      464.205        1.475        0.137      162.905       17.984        0.012      336.699        8.178      860.693
11/04/2013  15:18:00      -68.372      -17.615       10.871       71.507       37.853       23.793     5113.278     1432.826      566.088        0.611        0.356       70.605       27.605        0.153      337.012        8.699      860.687
11/04/2013  15:19:00        7.250       -6.033       23.533       16.422       38.062       13.916      269.697     1448.732      193.650        0.128        0.096        9.431       19.130        4.114      337.080        8.813      860.690
11/04/2013  15:20:00       -8.750       16.861       33.359       15.481       26.082       25.651      239.667      680.282      657.976        0.153        0.079       18.996       15.984        0.708      337.180        8.979      860.674
11/04/2013  15:21:00       64.126       41.297       52.243       74.897       57.660       38.877     5609.493     3324.679     1511.387        0.949        0.522       76.273       27.423        0.129      336.976        8.637      860.652
11/04/2013  15:22:00       78.315       51.148       10.577       61.028       40.239       33.675     3724.372     1619.152     1134.005        0.767        0.324       93.538       21.915        0.055      336.699        8.177      860.657
11/04/2013  15:23:00       92.077       24.147       15.210       36.450       37.382       24.405     1328.621     1397.415      595.584        0.631        0.166       95.191       15.297        0.026      336.696        8.172      860.651
11/04/2013  15:24:00       41.107       14.018       38.327       29.757       33.244       29.111      885.460     1105.168      847.423        0.310        0.142       43.431       28.240        0.423      336.814        8.369      860.648
11/04/2013  15:25:00       69.577       47.950       20.027       26.252       19.431       29.008      689.183      377.569      841.440        0.472        0.095       84.500       12.261        0.021      336.681        8.146      860.650
11/04/2013  15:26:00      165.887       89.432       46.115       84.716       49.179       43.544     7176.718     2418.538     1896.107        2.457        0.575      188.459       34.120        0.033      336.789        8.325      860.641
11/04/2013  15:27:00       72.933       61.484       11.993       70.772       69.957       39.989     5008.740     4894.014     1599.129        1.037        0.575       95.391       37.602        0.155      336.860        8.445      860.648
11/04/2013  15:28:00      166.786      121.950       19.829       63.058       48.839       63.868     3976.303     2385.250     4079.180        2.676        0.522      206.614       30.601        0.022      336.828        8.389      860.660
11/04/2013  15:29:00      149.305      152.985        5.421       79.647       70.482       53.776     6343.722     4967.768     2891.805        2.996        0.710      213.767       43.217        0.041      336.681        8.145      860.689
11/04/2013  15:30:00       64.640       91.934       -0.420       59.915       56.579       44.217     3589.826     3201.197     1955.136        1.069        0.437      112.385       36.856        0.108      336.629        8.059      860.716
11/04/2013  15:31:00       77.669      100.858       -2.177       47.942       56.462       33.187     2298.459     3187.955     1101.382        1.140        0.329      127.298       33.712        0.070      336.636        8.071      860.723
11/04/2013  15:32:00      193.365      132.794       16.424      100.979       81.193       46.763    10196.747     6592.250     2186.741        3.713        0.949      234.572       43.107        0.034      336.678        8.140      860.716
11/04/2013  15:33:00      139.248      124.062        6.623       79.631       62.328       66.332     6341.160     3884.818     4399.929        2.472        0.731      186.498       39.953        0.046      336.786        8.319      860.713
11/04/2013  15:34:00       26.448       79.154       -2.935       75.571       54.979       50.423     5710.901     3022.740     2542.473        0.912        0.564       83.455       34.440        0.170      336.849        8.425      860.723
11/04/2013  15:35:00      109.891       83.122        9.897       62.797       31.477       22.311     3943.520      990.796      497.800        1.226        0.272      137.787        9.415        0.005      336.660        8.113      860.732
11/04/2013  15:36:00       29.928      114.431       -3.947       34.016       44.150       26.302     1157.102     1949.226      691.770        0.890        0.190      118.280       29.721        0.063      336.723        8.216      860.726
11/04/2013  15:37:00       46.847       81.201        7.321       57.328       65.664       43.255     3286.488     4311.765     1870.957        0.915        0.473       93.746       37.163        0.157      336.864        8.451      860.734
11/04/2013  15:38:00       65.212      173.252      -15.401       68.485       91.295       48.396     4690.252     8334.799     2342.161        2.493        0.768      185.119       49.214        0.071      336.872        8.462      860.763
11/04/2013  15:39:00       54.925      128.923       -2.053       61.833       74.384       42.939     3823.359     5532.943     1843.783        1.542        0.560      140.135       43.606        0.097      336.748        8.257      860.820
11/04/2013  15:40:00       29.373      147.941      -17.792       49.897       96.550       42.172     2489.701     9321.891     1778.514        1.833        0.680      150.828       48.385        0.103      336.760        8.278      860.866
11/04/2013  15:41:00       28.147      128.428       -5.084       59.700       85.451       51.555     3564.032     7301.921     2657.901        1.542        0.676      131.476       52.556        0.160      336.823        8.381      860.895
11/04/2013  15:42:00        1.637      133.538      -13.455       27.876       51.067       29.419      777.069     2607.847      865.502        1.113        0.213      133.548       27.381        0.042      336.822        8.382      860.901
11/04/2013  15:43:00       12.170      119.494      -17.090       35.278       48.869       21.891     1244.521     2388.132      479.213        0.941        0.206      120.112       13.933        0.013      336.823        8.383      860.905
11/04/2013  15:44:00       -0.364      153.724      -21.306       36.006       51.226       25.658     1296.455     2624.055      658.344        1.433        0.229      153.724       20.278        0.017      336.772        8.299      860.923
11/04/2013  15:45:00      -11.211      161.909      -24.080       42.835       35.642       21.652     1834.880     1270.352      468.793        1.525        0.179      162.296       11.634        0.005      336.842        8.415      860.938
11/04/2013  15:46:00        0.838      188.823      -30.968       45.430       75.840       26.725     2063.860     5751.635      714.234        2.257        0.426      188.825       36.622        0.038      336.755        8.268      860.937
11/04/2013  15:47:00       71.258      124.171       10.285       90.389       82.537       45.490     8170.165     6812.364     2069.382        1.882        0.853      143.165       45.765        0.102      336.807        8.355      860.949
11/04/2013  15:48:00      103.478       93.222        6.156       79.434       61.589       46.934     6309.687     3793.242     2202.798        1.587        0.615      139.277       39.034        0.079      336.639        8.076      860.979
11/04/2013  15:49:00       80.151       81.198       21.528       71.042       56.576       42.882     5046.953     3200.853     1838.899        1.178        0.504      114.094       37.026        0.105      336.680        8.145      860.993
11/04/2013  15:50:00       51.015       97.800       -7.777       57.339       80.734       40.659     3287.804     6517.908     1653.155        1.184        0.573      110.305       42.405        0.148      336.760        8.278      861.007
11/04/2013  15:51:00       33.619      178.187      -22.916       46.786       71.954       33.586     2188.924     5177.407     1128.016        2.095        0.425      181.331       36.980        0.042      336.644        8.083      861.024
11/04/2013  15:52:00       30.603       65.069       -1.598       52.257       44.890       26.856     2730.841     2015.145      721.230        0.532        0.273       71.907       23.403        0.106      336.691        8.164      861.027
11/04/2013  15:53:00      -47.854      116.729      -19.541       40.030       38.243       26.038     1602.417     1462.548      677.967        1.002        0.187      126.157       20.447        0.026      336.836        8.407      861.038
11/04/2013  15:54:00      -65.210      121.838      -21.831       45.195       48.679       27.162     2042.593     2369.652      737.753        1.236        0.257      138.191       29.994        0.047      336.798        8.342      861.049
11/04/2013  15:55:00        2.698      113.064       -7.626       46.058       41.598       27.502     2121.347     1730.363      756.357        0.873        0.230      113.096       21.450        0.036      336.768        8.293      861.070
11/04/2013  15:56:00      146.861       75.187       22.566       95.892       84.530       44.640     9195.365     7145.309     1992.686        2.303        0.917      164.989       35.974        0.048      336.692        8.164      861.099
11/04/2013  15:57:00      259.383      158.728       23.672      112.252       80.578       60.781    12600.531     6492.816     3694.278        5.791        1.139      304.096       46.806        0.024      336.629        8.056      861.094
11/04/2013  15:58:00      180.987      133.901       19.823       81.974       53.556       50.231     6719.798     2868.204     2523.199        3.159        0.606      225.135       34.333        0.023      336.604        8.016      861.122
11/04/2013  15:59:00      125.216       68.930        6.431       80.356       52.848       42.617     6457.125     2792.954     1816.171        1.577        0.553      142.935       27.436        0.037      336.701        8.179      861.127
11/04/2013  16:00:00       87.261       65.946       17.442       65.161       41.826       43.728     4245.990     1749.403     1912.152        1.009        0.395      109.377       15.163        0.019      336.655        8.105      861.143
11/04/2013  16:01:00      105.455       65.623        4.097       79.777       43.938       29.788     6364.383     1930.547      887.298        1.231        0.459      124.207       19.778        0.025      336.646        8.087      861.139
11/04/2013  16:02:00       77.246       67.282       68.838       58.396       54.045       53.489     3410.133     2920.864     2861.095        1.221        0.460      102.439       43.500        0.180      336.695        8.169      861.125
11/04/2013  16:03:00      236.972      146.010       47.245      113.398       71.380       65.962    12859.144     5095.141     4350.941        5.100        1.115      278.342       44.914        0.026      336.647        8.087      861.110
11/04/2013  16:04:00      132.558      105.890        1.314       79.200       57.832       55.562     6272.705     3344.503     3087.177        2.074        0.635      169.660       27.510        0.026      336.663        8.116      861.125
11/04/2013  16:05:00      170.820      104.849       11.878       54.671       51.643       45.684     2988.930     2667.015     2087.061        2.403        0.387      200.431       28.264        0.020      336.657        8.106      861.114
11/04/2013  16:06:00      146.094      122.046        6.514       77.553       62.423       57.817     6014.424     3896.575     3342.807        2.477        0.663      190.364       40.476        0.045      336.597        8.004      861.109
11/04/2013  16:07:00       91.098      128.095        6.086       58.563       71.167       54.603     3429.654     5064.714     2981.454        1.811        0.574      157.185       48.178        0.094      336.595        8.003      861.109
11/04/2013  16:08:00       20.153      181.784      -19.706       68.044       73.435       40.425     4629.920     5392.636     1634.194        2.275        0.583      182.897       40.267        0.048      336.648        8.089      861.113
11/04/2013  16:09:00       28.379      124.750       -9.677       45.351       68.690       39.474     2056.754     4718.359     1558.193        1.240        0.417      127.938       40.836        0.102      336.702        8.181      861.119
11/04/2013  16:10:00      106.396       71.243        2.797       74.144       36.564       38.048     5497.386     1336.952     1447.647        1.234        0.414      128.046       22.944        0.032      336.693        8.166      861.132
11/04/2013  16:11:00      -19.383       28.769       26.918       43.913       38.944       45.247     1928.354     1516.673     2047.272        0.371        0.275       34.689       39.247        1.280      336.773        8.302      861.118
11/04/2013  16:12:00       -9.382       31.508       23.930       15.436       29.800       23.061      238.262      888.017      531.826        0.166        0.083       32.875       10.035        0.093      336.736        8.237      861.119
11/04/2013  16:13:00       39.188       84.218      -11.498       39.972       46.466       28.207     1597.727     2159.122      795.650        0.666        0.228       92.889       26.535        0.082      336.644        8.085      861.126
11/04/2013  16:14:00      -10.196       72.293      -13.081       39.881       33.688       16.796     1590.490     1134.850      282.112        0.425        0.150       73.009       15.905        0.047      336.741        8.248      861.128
11/04/2013  16:15:00       15.367       31.594        0.534       21.499       24.942       24.160      462.204      622.112      583.704        0.145        0.083       35.133       14.283        0.165      336.724        8.219      861.138
11/04/2013  16:16:00       -2.360       53.167       -2.656       26.820       35.099       19.598      719.303     1231.962      384.095        0.259        0.117       53.219       17.909        0.113      336.740        8.244      861.143
11/04/2013  16:17:00       52.038      107.070       10.261       59.043       65.823       50.437     3486.059     4332.685     2543.923        1.232        0.518      119.046       36.398        0.093      336.660        8.112      861.143
11/04/2013  16:18:00      109.928       72.654       26.555       49.435       47.354       35.946     2443.824     2242.365     1292.109        1.202        0.299      131.768       25.939        0.039      336.623        8.050      861.146
11/04/2013  16:19:00      142.338       91.642       21.723       66.139       54.486       38.215     4374.348     2968.690     1460.408        1.897        0.440      169.288       20.898        0.015      336.649        8.093      861.143
11/04/2013  16:20:00      149.952       77.300       16.345       62.973       47.109       35.959     3965.600     2219.234     1293.060        1.810        0.374      168.703       20.485        0.015      336.627        8.056      861.158
11/04/2013  16:21:00      106.051       69.504        5.808       65.715       47.815       38.141     4318.515     2286.285     1454.765        1.208        0.403      126.798       21.140        0.028      336.586        7.989      861.174
11/04/2013  16:22:00      122.222       72.946       26.147       74.653       49.735       30.020     5573.086     2473.620      901.222        1.494        0.447      142.336       13.344        0.009      336.581        7.980      861.192
11/04/2013  16:23:00       99.138       74.094       31.620       48.250       44.883       38.186     2328.089     2014.497     1458.139        1.106        0.290      123.767       24.564        0.039      336.588        7.993      861.210
11/04/2013  16:24:00       63.935        0.273       30.266       66.848       52.399       38.094     4468.705     2745.696     1451.141        0.683        0.433       63.935       31.589        0.244      336.637        8.073      861.223
11/04/2013  16:25:00       34.501       10.699       17.196       52.842       26.866       21.119     2792.271      721.756      446.030        0.278        0.198       36.122       18.682        0.267      336.679        8.144      861.226
11/04/2013  16:26:00       87.663       48.564        9.593       37.866       41.751       27.927     1433.856     1743.113      779.900        0.705        0.198      100.216       14.455        0.021      336.587        7.988      861.232
11/04/2013  16:27:00      106.125       82.750       18.548       34.900       30.901       32.744     1218.012      954.876     1072.184        1.085        0.162      134.574        9.216        0.005      336.579        7.976      861.235
11/04/2013  16:28:00       68.236       51.891       14.583       48.684       43.654       42.341     2370.084     1905.651     1792.763        0.681        0.303       85.725       29.698        0.120      336.579        7.977      861.261
11/04/2013  16:29:00       54.437      134.390       -1.858       44.038       81.151       43.991     1939.326     6585.404     1935.219        1.574        0.523      144.997       48.881        0.114      336.559        7.942      861.289
11/04/2013  16:30:00       80.447       94.415        8.230       87.452       92.955       59.633     7647.858     8640.590     3556.096        1.765        0.992      124.040       50.379        0.165      336.510        7.859      861.310
11/04/2013  16:31:00       36.112      211.063      -11.333       64.237      109.111       56.748     4126.432    11905.290     3220.375        3.261        0.963      214.131       61.538        0.083      336.424        7.714      861.332
11/04/2013  16:32:00       42.050      141.459      -13.183       79.426       68.228       52.951     6308.496     4655.089     2803.851        1.786        0.688      147.577       44.575        0.091      336.417        7.702      861.339
11/04/2013  16:33:00       81.042      128.908       -9.758       93.697       74.171       52.829     8779.050     5501.397     2790.935        2.017        0.854      152.267       43.486        0.082      336.414        7.697      861.356
11/04/2013  16:34:00       44.024      164.376        2.590       69.999      145.904       59.408     4899.797    21287.870     3529.322        2.934        1.486      170.169       77.449        0.207      336.332        7.561      861.364
11/04/2013  16:35:00       60.241      158.743       -1.286       75.676      105.344       53.812     5726.875    11097.446     2895.727        2.427        0.986      169.789       56.557        0.111      336.301        7.507      861.377
11/04/2013  16:36:00       44.475      106.898       12.420       61.657       79.599       50.472     3801.591     6335.969     2547.468        1.312        0.634      115.780       54.631        0.223      336.267        7.453      861.383
11/04/2013  16:37:00       62.117      152.542       -4.470       75.315       86.357       50.596     5672.297     7457.604     2559.919        2.142        0.784      164.705       49.579        0.091      336.245        7.416      861.384
11/04/2013  16:38:00       37.894      213.546       -5.961       78.239      124.856       75.625     6121.316    15588.983     5719.107        3.725        1.371      216.882       79.529        0.134      336.198        7.337      861.392
11/04/2013  16:39:00       35.590      255.854      -29.694       61.384      144.660       67.875     3768.044    20926.522     4607.013        4.845        1.465      258.317       81.710        0.100      336.179        7.303      861.392
11/04/2013  16:40:00       21.745      256.035      -23.691       69.399      103.420       50.048     4816.227    10695.732     2504.840        4.230        0.901      256.957       52.752        0.042      336.145        7.245      861.391
11/04/2013  16:41:00       24.858      294.474      -36.267       60.072      128.259       60.333     3608.621    16450.320     3640.067        5.617        1.185      295.522       65.685        0.049      336.119        7.203      861.402
11/04/2013  16:42:00       -9.481      189.848      -26.174       49.415       78.823       40.153     2441.851     6213.069     1612.225        2.354        0.513      190.085       43.594        0.053      336.107        7.185      861.439
11/04/2013  16:43:00      -22.664      274.943      -36.318       61.140       86.507       38.496     3738.115     7483.384     1481.933        4.506        0.635      275.876       33.338        0.015      336.088        7.152      861.463
11/04/2013  16:44:00       23.485      295.068      -37.964       59.822       94.513       47.513     3578.726     8932.711     2257.455        5.191        0.738      296.001       51.729        0.031      336.074        7.129      861.486
11/04/2013  16:45:00      -37.609      208.683      -29.462       66.490       95.121       40.637     4420.912     9047.989     1651.362        3.047        0.756      212.045       36.692        0.030      336.114        7.194      861.521
11/04/2013  16:46:00       27.848      174.391       -8.307       79.540      114.827       60.280     6326.634    13185.202     3633.621        2.720        1.157      176.600       62.213        0.124      336.040        7.072      861.550
11/04/2013  16:47:00       18.611      236.855      -26.657       56.383       86.111       43.236     3179.008     7415.114     1869.315        3.481        0.623      237.585       39.042        0.027      336.029        7.054      861.571
11/04/2013  16:48:00        5.938      222.344      -30.141       48.002       78.428       38.977     2304.162     6150.974     1519.205        3.018        0.499      222.423       33.121        0.022      336.019        7.039      861.590
11/04/2013  16:49:00       23.868      163.725       -9.693       45.716      116.407       40.363     2089.964    13550.599     1629.167        2.237        0.863      165.456       59.243        0.128      335.981        6.975      861.606
11/04/2013  16:50:00       16.866      147.388       -9.752       48.608       88.692       43.279     2362.755     7866.336     1873.082        1.710        0.605      148.349       42.964        0.084      335.964        6.946      861.607
11/04/2013  16:51:00       20.858      147.986       -6.866       65.271       71.769       43.419     4260.262     5150.770     1885.244        1.684        0.565      149.449       39.036        0.068      335.986        6.984      861.615
11/04/2013  16:52:00       43.114      132.000       -8.444       51.179       91.675       52.163     2619.312     8404.246     2720.954        1.655        0.687      138.862       51.753        0.139      335.945        6.916      861.622
11/04/2013  16:53:00       38.589       83.203       11.736       59.431       74.656       40.492     3532.016     5573.560     1639.578        0.965        0.537       91.716       39.667        0.187      335.902        6.845      861.620
11/04/2013  16:54:00       36.309      205.036      -22.826       57.203      100.910       40.646     3272.161    10182.888     1652.064        2.949        0.755      208.227       50.200        0.058      335.920        6.871      861.617
11/04/2013  16:55:00       40.037      249.237      -40.072       57.105      108.730       41.760     3260.925    11822.230     1743.885        4.107        0.841      252.432       49.539        0.039      335.924        6.877      861.612
11/04/2013  16:56:00       48.198      176.921      -11.552       65.142       92.235       59.227     4243.514     8507.214     3507.857        2.501        0.813      183.369       59.009        0.104      335.886        6.816      861.617
11/04/2013  16:57:00       35.318      169.523      -17.131       38.148       70.645       46.591     1455.290     4990.696     2170.705        1.945        0.431      173.163       46.132        0.071      335.895        6.833      861.604
11/04/2013  16:58:00       32.072       34.722       15.788       54.997       52.560       33.324     3024.655     2762.594     1110.484        0.469        0.345       47.267       16.936        0.128      335.876        6.804      861.587
11/04/2013  16:59:00       16.050      153.146      -24.080       40.826       72.527       25.450     1666.793     5260.114      647.705        1.593        0.379      153.985       28.316        0.034      335.870        6.792      861.596
11/04/2013  17:00:00       29.820       85.047        9.828       49.089       52.627       37.771     2409.711     2769.641     1426.658        0.741        0.330       90.123       26.718        0.088      335.820        6.709      861.611
11/04/2013  17:01:00       18.914      175.001      -11.969       66.557      101.425       53.686     4429.845    10286.951     2882.236        2.436        0.880      176.021       58.226        0.109      335.829        6.720      861.630
11/04/2013  17:02:00      -22.776      146.008      -14.531       35.271       99.399       28.406     1244.033     9880.117      806.881        1.699        0.597      147.773       31.402        0.045      335.780        6.642      861.638
11/04/2013  17:03:00        4.031      236.632      -37.646       41.876       62.748       22.088     1753.602     3937.270      487.886        3.180        0.309      236.666       17.402        0.005      335.842        6.740      861.651
11/04/2013  17:04:00       13.616      112.791       -4.134       68.458       71.659       51.431     4686.474     5134.998     2645.160        1.269        0.623      113.610       43.746        0.148      335.790        6.658      861.654
11/04/2013  17:05:00       21.854      104.351        2.637       46.302       73.969       42.468     2143.837     5471.401     1803.573        1.039        0.471      106.614       42.250        0.157      335.765        6.617      861.656
11/04/2013  17:06:00        3.528       85.927       -1.198       39.123       55.439       29.164     1530.571     3073.524      850.523        0.643        0.273       86.000       20.797        0.058      335.790        6.658      861.682
11/04/2013  17:07:00        8.814      168.656      -13.270       62.155       80.113       41.545     3863.282     6418.136     1725.977        2.035        0.600      168.886       42.392        0.063      335.758        6.603      861.706
11/04/2013  17:08:00        4.978      137.817      -10.234       59.578       89.673       46.656     3549.595     8041.184     2176.744        1.644        0.688      137.907       46.647        0.114      335.710        6.524      861.721
11/04/2013  17:09:00       16.407      109.003       -2.755       39.648       55.154       27.643     1571.988     3041.961      764.154        0.877        0.269      110.231       28.555        0.067      335.753        6.597      861.740
11/04/2013  17:10:00       31.081      148.370      -24.325       43.185       45.582       31.037     1864.938     2077.705      963.306        1.424        0.245      151.590       25.713        0.029      335.740        6.575      861.757
11/04/2013  17:11:00      -26.150       99.522       -2.645       57.246       37.408       28.158     3277.133     1399.332      792.845        0.803        0.273      102.900       26.556        0.067      335.796        6.668      861.757
11/04/2013  17:12:00        3.015      123.643       -7.901       45.495       97.563       39.121     2069.799     9518.446     1530.480        1.424        0.656      123.680       54.121        0.191      335.731        6.559      861.766
11/04/2013  17:13:00      -42.123      173.602      -10.827       63.609       67.033       41.464     4046.064     4493.376     1719.234        2.114        0.513      178.639       39.178        0.048      335.756        6.600      861.758
11/04/2013  17:14:00        0.091      186.276      -24.625       55.763       64.489       40.747     3109.522     4158.889     1660.325        2.212        0.446      186.276       39.316        0.045      335.750        6.589      861.780
11/04/2013  17:15:00       -9.159      156.626      -15.738       55.366       63.278       37.888     3065.401     4004.131     1435.510        1.668        0.425      156.893       33.523        0.046      335.737        6.568      861.799
11/04/2013  17:16:00      -48.722      175.928      -22.409       48.499       71.992       28.378     2352.150     5182.821      805.300        2.108        0.417      182.550       30.882        0.029      335.786        6.651      861.817
11/04/2013  17:17:00      -49.886      187.682      -22.219       53.468       66.737       42.195     2858.860     4453.834     1780.409        2.365        0.455      194.199       35.799        0.034      335.734        6.563      861.833
11/04/2013  17:18:00      -30.786      160.480      -16.421       46.114       53.210       31.587     2126.474     2831.304      997.726        1.646        0.298      163.406       27.772        0.029      335.689        6.490      861.838
11/04/2013  17:19:00      -42.050      227.322      -25.250       53.463       77.638       36.733     2858.325     6027.681     1349.316        3.216        0.512      231.178       44.283        0.037      335.669        6.455      861.846
11/04/2013  17:20:00      -25.228      169.531      -17.318       54.077       78.187       36.617     2924.366     6113.154     1340.819        2.003        0.519      171.398       37.390        0.048      335.633        6.397      861.841
11/04/2013  17:21:00      -49.264      207.038      -25.210       47.083       58.606       32.155     2216.800     3434.632     1033.960        2.631        0.334      212.818       31.896        0.022      335.637        6.402      861.854
11/04/2013  17:22:00      -19.893      238.207      -31.693       57.947       92.850       38.465     3357.862     8621.076     1479.523        3.580        0.673      239.036       42.329        0.031      335.650        6.423      861.875
11/04/2013  17:23:00      -76.911      107.772      -20.439       60.263       64.526       28.817     3631.627     4163.627      830.392        1.329        0.431      132.402       11.671        0.008      335.713        6.530      861.888
11/04/2013  17:24:00      -40.990      165.921      -19.359       47.137       71.207       38.559     2221.897     5070.446     1486.811        1.918        0.439      170.909       42.173        0.061      335.657        6.436      861.901
11/04/2013  17:25:00      -36.259      169.000      -24.871       35.943       43.511       24.085     1291.904     1893.189      580.092        1.713        0.188      172.846       17.767        0.011      335.653        6.429      861.901
11/04/2013  17:26:00      -50.069      205.744      -29.313       48.241       38.366       25.972     2327.229     1471.912      674.524        2.508        0.224      211.749       18.576        0.008      335.666        6.450      861.914
11/04/2013  17:27:00      -20.561      161.853      -15.770       35.577       82.369       29.129     1265.700     6784.616      848.519        1.788        0.445      163.154       41.007        0.063      335.650        6.424      861.926
11/04/2013  17:28:00      -18.072       79.835       -5.043       40.324       46.831       27.814     1626.031     2193.122      773.633        0.566        0.230       81.855       26.524        0.105      335.633        6.397      861.943
11/04/2013  17:29:00      -23.539      159.717      -26.811       32.450       56.561       22.433     1053.032     3199.108      503.242        1.577        0.238      161.442       22.107        0.019      335.625        6.382      861.958
11/04/2013  17:30:00      -30.586      116.509       -5.138       40.554       44.077       26.357     1644.610     1942.825      694.670        0.941        0.214      120.457       23.235        0.037      335.643        6.413      861.967
11/04/2013  17:31:00      -35.394      149.894      -22.471       34.415       61.511       30.691     1184.426     3783.583      941.908        1.507        0.295      154.016       34.129        0.049      335.622        6.378      861.985
11/04/2013  17:32:00        9.738       64.545      -17.512       29.430       49.193       21.737      866.139     2419.919      472.496        0.416        0.188       65.276       19.333        0.088      335.568        6.289      861.990
11/04/2013  17:33:00      -24.423       85.763      -22.328       36.910       51.999       19.645     1362.316     2703.872      385.941        0.645        0.223       89.172       22.595        0.064      335.574        6.297      861.993
11/04/2013  17:34:00       19.891       78.069       -0.501       82.474       36.295       43.224     6801.984     1317.362     1868.355        0.824        0.499       80.564       39.024        0.235      335.563        6.281      861.997
11/04/2013  17:35:00       -0.476       30.819        9.670       38.854       43.937       22.384     1509.631     1930.455      501.038        0.249        0.197       30.823       14.912        0.234      335.471        6.127      862.006
11/04/2013  17:36:00      -73.722      -12.957       -3.642       16.422       22.102       13.502      269.693      488.481      182.311        0.328        0.047       74.852        5.157        0.005      335.740        6.576      862.031
11/04/2013  17:37:00      -47.393      -11.323       -5.066       26.205       22.232       13.690      686.712      494.279      187.418        0.188        0.068       48.727       15.053        0.095      335.631        6.394      862.052
11/04/2013  17:38:00       -4.011       -3.614        7.811       16.682       18.654       10.135      278.279      347.961      102.713        0.041        0.036        5.399        7.295        1.826      335.478        6.138      862.059
11/04/2013  17:39:00      -34.075      -25.337        5.407       34.139       18.519       20.852     1165.487      342.939      434.803        0.189        0.097       42.463       22.203        0.273      335.428        6.053      862.056
11/04/2013  17:40:00      -54.455        6.785      -19.883       29.966       43.377       14.127      897.948     1881.551      199.578        0.319        0.149       54.876       11.972        0.048      335.399        6.007      862.056
11/04/2013  17:41:00      -19.132      -18.754        6.411       26.219       46.089       25.884      687.442     2124.157      669.961        0.212        0.174       26.791       23.926        0.798      335.536        6.235      862.057
11/04/2013  17:42:00      -38.722       54.408       -5.886       30.248       45.230       22.425      914.946     2045.709      502.874        0.398        0.173       66.780       24.916        0.139      335.391        5.993      862.057
11/04/2013  17:43:00      -35.881        9.141        0.170       32.741       24.388       15.221     1071.998      594.751      231.681        0.163        0.095       37.027       17.981        0.236      335.326        5.886      862.060
11/04/2013  17:44:00     -171.729       53.323      -26.869       44.999       36.950       32.631     2024.917     1365.295     1064.775        1.875        0.223      179.817       27.334        0.023      335.243        5.746      862.071
11/04/2013  17:45:00      -88.027       18.423       -8.500       35.311       47.546       24.753     1246.849     2260.658      612.731        0.614        0.206       89.934       18.154        0.041      335.265        5.784      862.098
11/04/2013  17:46:00      -80.652       39.088       -3.391       26.559       36.045       26.343      705.369     1299.243      693.956        0.537        0.135       89.625       19.624        0.048      335.283        5.812      862.114
11/04/2013  17:47:00      -65.534      115.087      -23.686       60.742       36.214       18.961     3689.574     1311.426      359.532        1.173        0.268      132.438       22.593        0.029      335.341        5.909      862.138
11/04/2013  17:48:00       -0.597      100.555      -13.851       24.228       45.880       16.069      586.990     2104.959      258.198        0.663        0.148      100.557       13.621        0.018      335.298        5.837      862.160
11/04/2013  17:49:00        2.528       66.892       -6.577       33.026       37.477       17.280     1090.732     1404.558      298.593        0.366        0.140       66.940       13.620        0.041      335.291        5.827      862.171
11/04/2013  17:50:00       12.197       47.241      -10.012       19.911       26.773       12.199      396.464      716.776      148.822        0.187        0.063       48.790       13.377        0.075      335.255        5.765      862.185
11/04/2013  17:51:00       24.765       19.238        8.869       24.408       11.630       16.311      595.740      135.259      266.036        0.103        0.050       31.360       12.597        0.161      335.269        5.788      862.203
11/04/2013  17:52:00       46.087       25.836       -2.112       34.637       22.845       18.556     1199.720      521.900      344.316        0.243        0.103       52.834        8.833        0.028      335.252        5.760      862.207
11/04/2013  17:53:00       36.965       16.398        2.543       30.087       32.996       19.687      905.254     1088.709      387.591        0.201        0.119       40.439        6.773        0.028      335.241        5.742      862.211
11/04/2013  17:54:00       21.104       28.854       -6.083       21.996       28.308       17.029      483.824      801.332      289.975        0.144        0.079       35.748       17.505        0.240      335.187        5.654      862.210
11/04/2013  17:55:00       -1.076        6.375       -8.083       20.938       14.600       11.834      438.405      213.159      140.054        0.045        0.040        6.466       10.300        2.538      335.181        5.644      862.217
11/04/2013  17:56:00      -35.549       12.144       -0.148       20.453       20.485       10.462      418.307      419.631      109.462        0.118        0.047       37.566        7.292        0.038      335.286        5.819      862.207
11/04/2013  17:57:00       -5.675       42.887      -12.312       24.045       19.375       13.561      578.139      375.373      183.904        0.158        0.057       43.261       15.788        0.133      335.194        5.666      862.223
11/04/2013  17:58:00       -8.913       76.180      -15.700       19.979       22.563       11.448      399.154      509.108      131.047        0.358        0.052       76.700        6.837        0.008      335.242        5.746      862.234
11/04/2013  17:59:00        9.290       49.081      -14.334       26.838       22.163       12.941      720.303      491.195      167.469        0.204        0.069       49.952       12.305        0.061      335.225        5.716      862.260
11/04/2013  18:00:00       -3.368       37.204       -7.408       18.654       13.795        7.437      347.953      190.311       55.308        0.102        0.030       37.356        7.992        0.046      335.251        5.759      862.277
11/04/2013  18:01:00      -22.024       75.711       -4.008       27.572       33.319       21.589      760.234     1110.153      466.065        0.428        0.117       78.850       19.889        0.064      335.359        5.939      862.281
11/04/2013  18:02:00      -33.512       86.004      -16.107       17.504       22.321       15.091      306.375      498.209      227.750        0.491        0.052       92.302        8.983        0.009      335.404        6.013      862.295
11/04/2013  18:03:00      -15.330      120.589      -18.027       29.898       46.215       16.796      893.875     2135.835      282.111        0.921        0.166      121.560       24.002        0.039      335.334        5.898      862.292
11/04/2013  18:04:00      -72.361       78.324      -15.200       35.488       29.517       18.626     1259.418      871.281      346.921        0.704        0.124      106.634       17.904        0.028      335.295        5.833      862.287
11/04/2013  18:05:00      -55.704       81.574      -11.281       26.657       27.068       17.661      710.573      732.668      311.902        0.582        0.088       98.779       16.230        0.027      335.330        5.892      862.304
11/04/2013  18:06:00        8.549       86.219       -8.049       25.646       25.539       16.473      657.735      652.251      271.347        0.458        0.079       86.642       11.668        0.018      335.434        6.064      862.303
11/04/2013  18:07:00        7.284       53.959       -8.691       11.882       18.770        7.329      141.183      352.309       53.713        0.179        0.027       54.449        6.076        0.012      335.374        5.964      862.303
11/04/2013  18:08:00        5.304       19.641       -2.811        6.911       10.536        8.029       47.768      111.017       64.465        0.032        0.011       20.345        5.897        0.084      335.416        6.033      862.308
11/04/2013  18:09:00      -10.393       14.453       -3.444       20.519       13.623       10.055      421.014      185.580      101.094        0.052        0.035       17.802       10.785        0.367      335.336        5.898      862.306
11/04/2013  18:10:00      -55.404        8.632       -9.172       18.792       20.732       11.336      353.153      429.813      128.496        0.207        0.046       56.073        9.674        0.030      335.304        5.847      862.323
11/04/2013  18:11:00     -105.404        1.040       -5.656       45.535       30.222       23.424     2073.475      913.397      548.689        0.734        0.177      105.410       18.157        0.030      335.074        5.467      862.330
11/04/2013  18:12:00      -92.125        2.358      -13.858       25.968       28.135       12.990      674.333      791.564      168.751        0.516        0.082       92.155        6.444        0.005      335.049        5.425      862.334
11/04/2013  18:13:00     -146.652       46.554      -22.194       38.248       17.860       16.982     1462.876      318.997      288.384        1.312        0.104      153.864        9.314        0.004      334.956        5.271      862.346
11/04/2013  18:14:00     -157.913       18.249      -16.496       27.374       22.079       14.717      749.352      487.467      216.602        1.350        0.073      158.964       11.886        0.006      334.919        5.210      862.358
11/04/2013  18:15:00     -108.131      -34.961      -12.060       32.620       46.225       15.295     1064.082     2136.794      233.938        0.825        0.172      113.642        6.770        0.004      334.963        5.282      862.366
11/04/2013  18:16:00     -111.792      -10.112      -14.357       27.536       33.653       17.595      758.212     1132.534      309.598        0.750        0.110      112.249       13.793        0.015      334.944        5.250      862.372
11/04/2013  18:17:00     -150.490      -32.879      -23.957       31.844       35.489       19.384     1014.066     1259.473      375.752        1.348        0.132      154.040       13.603        0.008      334.936        5.237      862.388
11/04/2013  18:18:00     -107.245       11.916      -11.884       25.048       33.691       19.299      627.394     1135.058      372.443        0.696        0.107      107.905       12.169        0.013      334.926        5.222      862.399
11/04/2013  18:19:00     -128.792       56.215      -27.179       33.411       25.877       20.453     1116.299      669.625      418.325        1.134        0.110      140.526       15.254        0.012      334.991        5.328      862.406
11/04/2013  18:20:00     -142.160       58.735      -31.112       27.308       29.656       22.170      745.721      879.507      491.517        1.337        0.106      153.816       16.277        0.011      334.920        5.212      862.412
11/04/2013  18:21:00     -116.461       26.906      -13.540       33.569       28.837       16.954     1126.854      831.589      287.437        0.836        0.112      119.529       15.462        0.017      334.950        5.261      862.407
11/04/2013  18:22:00     -111.866       -9.702      -19.192       23.039       33.086       18.094      530.816     1094.675      327.408        0.746        0.098      112.286       15.144        0.018      335.006        5.354      862.394
11/04/2013  18:23:00      -84.845        3.079      -15.877       17.426       18.812       13.206      303.679      353.904      174.400        0.415        0.042       84.901        9.866        0.014      334.982        5.313      862.395
11/04/2013  18:24:00     -106.270      -47.235      -13.553       15.611       24.004       14.455      243.703      576.172      208.935        0.737        0.051      116.295        9.144        0.006      334.988        5.324      862.389
11/04/2013  18:25:00     -141.658       -9.566      -11.271       31.273       33.515       21.804      977.984     1123.227      475.412        1.143        0.129      141.981       20.883        0.022      334.980        5.312      862.373
11/04/2013  18:26:00     -112.507       20.160      -19.817       22.792       24.205       15.559      519.464      585.871      242.085        0.740        0.067      114.299        9.421        0.007      335.011        5.364      862.361
11/04/2013  18:27:00      -76.362      -30.477      -11.991       41.786       25.237       26.291     1746.074      636.917      691.191        0.499        0.154       82.219       24.262        0.087      334.963        5.283      862.357
11/04/2013  18:28:00      -91.830      -30.646       -6.756       31.007       30.903       18.147      961.440      954.996      329.297        0.583        0.112       96.809       13.170        0.019      334.902        5.183      862.351
11/04/2013  18:29:00     -144.610      -22.188      -17.975       27.145       25.984       16.511      736.829      675.189      272.613        1.171        0.084      146.302       14.689        0.010      334.883        5.151      862.350
11/04/2013  18:30:00      -85.258      -16.202       -5.104       24.999       37.601       17.517      624.948     1413.814      306.841        0.495        0.117       86.783        7.712        0.008      334.917        5.205      862.349
11/04/2013  18:31:00      -83.274      -31.158       -6.726       25.861       36.899       18.642      668.794     1361.568      347.523        0.516        0.119       88.912        7.693        0.007      334.934        5.233      862.346
11/04/2013  18:32:00      -39.115      -25.020       -7.107       46.377       19.483       14.337     2150.816      379.596      205.548        0.247        0.137       46.433       18.303        0.155      334.916        5.205      862.344
11/04/2013  18:33:00      -29.111      -14.778      -10.141       40.499       20.068       16.829     1640.199      402.737      283.214        0.175        0.116       32.647       11.223        0.118      334.902        5.181      862.353
11/04/2013  18:34:00      -63.290       80.307      -17.196       29.409       39.106       18.639      864.890     1529.314      347.417        0.675        0.137      102.249       18.770        0.034      334.975        5.303      862.365
11/04/2013  18:35:00      -57.960       59.358      -15.320       18.449       28.130       13.759      340.355      791.315      189.301        0.422        0.066       82.962        8.712        0.011      335.015        5.370      862.374
11/04/2013  18:36:00      -57.756       63.282      -14.938       15.569       26.440       12.562      242.397      699.076      157.793        0.433        0.055       85.676        7.620        0.008      335.025        5.386      862.366
11/04/2013  18:37:00      -57.158       58.490      -20.895       22.461       27.573       11.071      504.508      760.269      122.559        0.426        0.069       81.781       14.951        0.033      335.145        5.585      862.379
11/04/2013  18:38:00      -64.337       40.369      -14.144       19.490       26.158       15.135      379.859      684.258      229.065        0.363        0.065       75.954       15.573        0.042      335.096        5.505      862.389
11/04/2013  18:39:00       -4.819       46.636       -5.303       22.907       25.847       13.759      524.719      668.065      189.307        0.180        0.069       46.884       11.511        0.060      335.079        5.475      862.396
11/04/2013  18:40:00       10.915       75.413      -12.352       15.016       20.623        6.198      225.492      425.290       38.420        0.332        0.034       76.199        4.027        0.003      335.155        5.601      862.411
11/04/2013  18:41:00        4.883       62.333      -11.332        6.018       10.602        6.059       36.218      112.406       36.712        0.211        0.009       62.524        3.475        0.003      335.154        5.600      862.410
11/04/2013  18:42:00        6.887       82.190      -10.922        8.471       17.257       10.313       71.751      297.789      106.361        0.370        0.024       82.478        7.116        0.007      335.184        5.648      862.404
11/04/2013  18:43:00       17.236      101.316      -17.883       14.340       19.632        9.397      205.634      385.417       88.300        0.578        0.034      102.772        8.195        0.006      335.158        5.603      862.416
11/04/2013  18:44:00       19.708       84.299      -15.585       11.798       12.375        8.093      139.197      153.134       65.501        0.405        0.018       86.572        7.216        0.007      335.098        5.507      862.429
11/04/2013  18:45:00       20.914       69.816      -13.804       13.164       19.389       12.682      173.297      375.915      160.824        0.311        0.036       72.882       11.374        0.024      335.028        5.390      862.432
11/04/2013  18:46:00       -2.345       39.827      -10.300       13.642       16.338        8.485      186.106      266.946       71.997        0.111        0.026       39.896        5.359        0.018      335.168        5.623      862.440
11/04/2013  18:47:00      -36.525       12.145       -2.534       13.235       16.277        9.165      175.168      264.939       84.002        0.101        0.026       38.491        4.667        0.015      335.141        5.579      862.457
11/04/2013  18:48:00      -47.239       16.864       -4.058       15.225        8.370       10.416      231.815       70.054      108.487        0.147        0.021       50.159        7.182        0.021      335.141        5.579      862.484
11/04/2013  18:49:00      -53.976       26.868       -6.737       13.920       13.935       11.021      193.762      194.198      121.454        0.209        0.025       60.294        7.784        0.017      335.123        5.548      862.494
11/04/2013  18:50:00      -78.335       13.414      -14.513       14.390       16.041       10.578      207.079      257.302      111.895        0.355        0.029       79.475        5.227        0.004      334.923        5.216      862.503
11/04/2013  18:51:00      -78.708        3.086      -21.140       26.616       17.207       12.493      708.387      296.071      156.065        0.391        0.058       78.769        6.993        0.008      334.825        5.053      862.521
11/04/2013  18:52:00      -95.954        9.724      -21.603       16.741       26.562       14.280      280.249      705.521      203.911        0.548        0.059       96.445        4.669        0.002      334.806        5.022      862.540
11/04/2013  18:53:00     -112.254      -10.606      -13.667       25.275       25.074       18.598      638.802      628.728      345.888        0.726        0.081      112.754       12.607        0.013      334.713        4.866      862.547
11/04/2013  18:54:00      -56.580        8.237       -4.392       39.742       28.206       19.071     1579.407      795.593      363.714        0.301        0.137       57.176       20.438        0.128      334.644        4.753      862.550
11/04/2013  18:55:00      -65.648       17.661       -8.734       32.843       33.288       16.547     1078.641     1108.068      273.805        0.358        0.123       67.982       18.542        0.074      334.670        4.796      862.554
11/04/2013  18:56:00      -98.617       37.375      -16.728       29.268       17.504       16.339      856.639      306.385      266.948        0.642        0.071      105.462        6.345        0.004      334.733        4.899      862.537
11/04/2013  18:57:00     -101.873        6.962       -7.278       23.913       20.452       10.175      571.821      418.275      103.526        0.579        0.055      102.111        8.337        0.007      334.747        4.924      862.526
11/04/2013  18:58:00      -79.851       -9.475      -11.237       18.882       21.942       11.554      356.543      481.445      133.503        0.378        0.049       80.411        7.139        0.008      334.737        4.907      862.513
11/04/2013  18:59:00      -75.850        0.709      -15.777       17.350       16.913        9.051      301.022      286.039       81.928        0.334        0.033       75.853        6.614        0.008      334.688        4.827      862.504
11/04/2013  19:00:00      -91.409       13.427      -14.158       27.050       26.944       12.859      731.698      725.953      165.346        0.518        0.081       92.390       14.302        0.024      334.782        4.981      862.513
11/04/2013  19:01:00      -97.971        3.723       -9.933       16.912       19.806       12.145      286.009      392.263      147.495        0.527        0.041       98.042        7.893        0.006      334.732        4.898      862.538
11/04/2013  19:02:00      -95.247        8.418      -18.322       31.097       26.510       15.780      967.011      702.758      249.017        0.570        0.096       95.619       15.623        0.027      334.698        4.842      862.565
11/04/2013  19:03:00     -138.819       30.443      -16.251       23.763       31.447       17.453      564.692      988.910      304.616        1.116        0.093      142.118       12.551        0.008      334.810        5.028      862.576
11/04/2013  19:04:00     -109.983       14.050       -8.388       28.977       38.737       22.343      839.643     1500.558      499.228        0.760        0.142      110.876       18.843        0.029      334.777        4.973      862.591
11/04/2013  19:05:00      -98.404       21.635      -11.289       43.219       39.493       24.085     1867.886     1559.718      580.072        0.714        0.200      100.755       24.836        0.061      334.713        4.867      862.602
11/04/2013  19:06:00     -106.318       47.429      -21.738       38.248       31.695       25.148     1462.890     1004.583      632.427        0.856        0.155      116.417       16.499        0.020      334.717        4.873      862.611
11/04/2013  19:07:00     -119.791       36.155      -20.252       28.627       35.848       21.357      819.509     1285.111      456.127        0.931        0.128      125.128       16.744        0.018      334.739        4.910      862.611
11/04/2013  19:08:00     -105.198      -32.064       -3.993       26.164       20.077       19.936      684.561      403.090      397.460        0.680        0.074      109.976       11.470        0.011      334.745        4.920      862.603
11/04/2013  19:09:00     -119.585      -18.530      -21.437       31.968       32.527       16.984     1021.958     1058.018      288.461        0.874        0.118      121.012       16.861        0.019      334.698        4.842      862.610
11/04/2013  19:10:00     -128.246        1.771      -22.910       46.807       47.514       23.307     2190.872     2257.627      543.236        1.098        0.250      128.259       23.712        0.034      334.613        4.702      862.618
11/04/2013  19:11:00     -170.426      -13.539      -23.435       31.664       24.878       17.576     1002.638      618.911      308.925        1.585        0.097      170.963        9.753        0.003      334.625        4.721      862.620
11/04/2013  19:12:00     -170.046      -11.725      -19.493       30.546       23.621       20.545      933.069      557.969      422.083        1.567        0.096      170.450       14.968        0.008      334.563        4.618      862.625
11/04/2013  19:13:00     -142.478      -43.243      -18.701       39.723       30.382       22.699     1577.897      923.080      515.243        1.277        0.151      148.895       16.065        0.012      334.568        4.627      862.638
11/04/2013  19:14:00     -147.623      -35.066      -12.060       32.705       29.961       22.071     1069.618      897.638      487.149        1.281        0.123      151.731       17.414        0.013      334.543        4.585      862.639
11/04/2013  19:15:00     -177.468      -46.973      -20.262       27.925       27.576       14.809      779.778      760.457      219.319        1.794        0.088      183.579       11.628        0.004      334.500        4.512      862.639
11/04/2013  19:16:00     -126.498      -33.346      -12.375       41.114       36.541       22.591     1690.338     1335.262      510.347        1.040        0.177      130.820       11.932        0.008      334.536        4.573      862.643
11/04/2013  19:17:00     -134.146      -29.201      -11.554       37.099       48.110       28.486     1376.368     2314.538      811.453        1.174        0.225      137.287       21.107        0.024      334.463        4.452      862.658
11/04/2013  19:18:00     -119.975      -42.935       -1.466       74.871       41.355       27.711     5605.641     1710.274      767.927        1.216        0.404      127.426       25.019        0.039      334.389        4.329      862.677
11/04/2013  19:19:00     -152.897      -35.046      -11.306       45.118       46.891       23.799     2035.628     2198.786      566.388        1.477        0.240      156.862       14.670        0.009      334.332        4.235      862.692
11/04/2013  19:20:00     -108.157      -30.206      -12.196       43.404       76.242       29.114     1883.942     5812.781      847.637        1.065        0.427      112.296       20.980        0.035      334.334        4.239      862.704
11/04/2013  19:21:00     -125.462      -55.266      -15.534       45.450       44.866       28.298     2065.722     2013.002      800.776        1.196        0.244      137.095       18.588        0.018      334.313        4.201      862.735
11/04/2013  19:22:00     -106.575      -26.071       -7.886       35.943       36.544       23.166     1291.932     1335.465      536.674        0.763        0.158      109.718       19.431        0.031      334.284        4.156      862.754
11/04/2013  19:23:00     -106.634      -37.455      -15.236       41.102       30.342       20.481     1689.409      920.613      419.464        0.802        0.151      113.020       14.564        0.017      334.308        4.196      862.780
11/04/2013  19:24:00      -80.256      -53.593        2.960       61.073       36.588       30.695     3729.914     1338.671      942.202        0.767        0.301       96.505       30.477        0.100      334.255        4.109      862.808
11/04/2013  19:25:00      -19.997      -42.886        8.079       57.635       33.394       24.996     3321.765     1115.156      624.810        0.368        0.253       47.319       23.239        0.241      334.282        4.152      862.835
11/04/2013  19:26:00       -5.827      -25.747       -3.902       28.589       30.904       22.692      817.316      955.064      514.921        0.150        0.114       26.398       11.960        0.205      334.326        4.226      862.858
11/04/2013  19:27:00       -4.133      -44.088        0.483       29.772       26.987       20.701      886.387      728.282      428.511        0.200        0.102       44.281       14.345        0.105      334.329        4.232      862.891
11/04/2013  19:28:00       14.017      -29.988        7.970       25.594       31.157       19.507      655.074      970.738      380.517        0.158        0.100       33.103       15.382        0.216      334.335        4.241      862.935
11/04/2013  19:29:00      -10.134      -11.511       12.008       33.847       22.575       19.522     1145.616      509.611      381.095        0.121        0.102       15.336       18.400        1.439      334.250        4.097      862.971
11/04/2013  19:30:00      -12.890      -27.127       11.700       22.848       15.131       12.900      522.051      228.944      166.408        0.098        0.046       30.034       11.387        0.144      334.278        4.146      862.997
11/04/2013  19:31:00       -9.184      -12.073       10.557       27.333       17.123       14.917      747.079      293.182      222.518        0.080        0.063       15.169       16.032        1.117      334.284        4.154      863.019
11/04/2013  19:32:00      -19.187        7.901        8.924       17.934       13.057       14.608      321.631      170.475      213.400        0.061        0.035       20.750       10.727        0.267      334.289        4.165      863.047
11/04/2013  19:33:00       19.407        8.916       11.531       16.397       10.363        8.640      268.862      107.398       74.648        0.052        0.023       21.357        8.409        0.155      334.213        4.036      863.065
11/04/2013  19:34:00      -53.155      -30.183       -9.947       24.761       25.462        9.913      613.085      648.336       98.270        0.260        0.068       61.127        8.039        0.017      334.324        4.223      863.085
11/04/2013  19:35:00      -94.308       -1.917      -10.831       29.213       12.838       13.976      853.391      164.810      195.334        0.511        0.061       94.327       13.680        0.021      334.232        4.069      863.115
11/04/2013  19:36:00      -85.849      -22.066       -7.542       28.348       19.343       15.334      803.611      374.156      235.124        0.466        0.071       88.639       15.829        0.032      334.313        4.204      863.142
11/04/2013  19:37:00     -137.214      -17.935      -17.758       34.781       21.584       14.951     1209.707      465.863      223.540        1.068        0.095      138.381       15.010        0.012      334.163        3.954      863.156
11/04/2013  19:38:00     -103.860      -12.575      -11.199       24.262       30.662       14.008      588.622      940.174      196.222        0.640        0.086      104.618       15.498        0.022      334.097        3.846      863.179
11/04/2013  19:39:00     -134.771       -3.444      -19.708       19.145       20.525       11.935      366.543      421.296      142.445        0.975        0.047      134.815        8.477        0.004      334.108        3.863      863.210
11/04/2013  19:40:00     -137.051       -8.062      -18.723       19.325       23.225       13.157      373.455      539.419      173.105        1.014        0.054      137.288        7.757        0.003      334.049        3.765      863.244
11/04/2013  19:41:00     -168.310        3.817      -19.778       29.234       22.684       14.891      854.649      514.583      221.731        1.516        0.080      168.353        7.823        0.002      333.993        3.670      863.271
11/04/2013  19:42:00     -120.678       -4.648      -17.281       32.207       28.467       25.943     1037.315      810.361      673.053        0.870        0.126      120.767       19.821        0.027      334.024        3.724      863.301
11/04/2013  19:43:00     -107.196      -10.168      -15.918       31.851       29.752       15.292     1014.495      885.187      233.849        0.699        0.107      107.677       12.943        0.014      334.131        3.900      863.335
11/04/2013  19:44:00      -99.021        5.209      -19.850       26.274       28.674       16.748      690.316      822.181      280.501        0.601        0.090       99.158        2.883        0.001      334.078        3.813      863.360
11/04/2013  19:45:00      -99.384      -16.975      -18.154       27.067       32.867       19.730      732.600     1080.252      389.254        0.635        0.110      100.824        6.588        0.004      334.203        4.021      863.376
11/04/2013  19:46:00      -69.427      -18.519      -19.041       17.260       25.309       15.347      297.909      640.567      235.538        0.335        0.059       71.855        6.667        0.009      334.189        3.997      863.388
11/04/2013  19:47:00     -127.020       11.043      -15.875       19.776       21.094       13.404      391.102      444.965      179.662        0.876        0.051      127.500        8.905        0.005      334.345        4.257      863.405
11/04/2013  19:48:00      -88.098        3.862        2.752       51.439       59.399       31.796     2645.988     3528.240     1011.015        0.748        0.359       88.182       31.368        0.127      334.295        4.173      863.420
11/04/2013  19:49:00      -69.840       52.382      -12.472       36.779       34.355       23.042     1352.666     1180.282      530.932        0.542        0.153       87.301       21.106        0.058      334.255        4.108      863.434
11/04/2013  19:50:00      -71.452        2.187      -12.258       13.972       15.618       12.369      195.227      243.910      152.997        0.293        0.030       71.486        6.687        0.009      334.226        4.059      863.434
11/04/2013  19:51:00      -47.322      -21.593       -8.116       49.078       21.734       18.690     2408.602      472.370      349.303        0.300        0.162       52.016       16.857        0.105      334.217        4.044      863.432
11/04/2013  19:52:00      -48.449      -17.564       -1.668       24.219       14.827       13.879      586.571      219.839      192.634        0.183        0.050       51.534        6.121        0.014      334.137        3.909      863.437
11/04/2013  19:53:00      -12.907      -15.491       -0.597       38.337       16.174       17.626     1469.752      261.586      310.670        0.122        0.102       20.163       15.984        0.628      334.182        3.985      863.435
11/04/2013  19:54:00      -73.633      -29.325       -8.259       24.117       20.141       10.952      581.608      405.657      119.956        0.373        0.055       79.258        9.142        0.013      334.226        4.058      863.434
11/04/2013  19:55:00      -43.979      -18.380       -3.877       22.925       14.586       10.650      525.551      212.737      113.433        0.157        0.043       47.665        7.057        0.022      334.225        4.057      863.431
11/04/2013  19:56:00      -61.485       -1.344       -6.333       13.589       22.388       12.894      184.655      501.233      166.257        0.234        0.043       61.500       10.625        0.030      334.192        4.002      863.433
11/04/2013  19:57:00      -76.370       51.932      -20.693       40.233       57.306       31.595     1618.673     3283.971      998.216        0.743        0.295       92.355       27.854        0.091      334.255        4.106      863.426
11/04/2013  19:58:00      -66.971       33.426      -10.149       31.077       27.212       19.098      965.788      740.489      364.740        0.389        0.104       74.849       13.498        0.033      334.243        4.087      863.439
11/04/2013  19:59:00      -58.424       54.458       -7.747       49.743       33.370       21.624     2474.356     1113.535      467.578        0.525        0.203       79.869       26.696        0.112      334.264        4.122      863.454
11/04/2013  20:00:00     -104.845       55.666      -18.170       38.586       45.940       27.835     1488.905     2110.506      774.776        0.940        0.219      118.706       27.378        0.053      334.343        4.253      863.447
11/04/2013  20:01:00     -114.148       36.332      -12.913       42.945       38.435       22.205     1844.309     1477.263      493.062        0.916        0.191      119.791       19.138        0.026      334.315        4.206      863.436
11/04/2013  20:02:00      -47.552       27.757        1.040       38.729       38.042       21.694     1499.933     1447.212      470.613        0.322        0.171       55.060       23.793        0.187      334.254        4.105      863.429
11/04/2013  20:03:00      -86.671       47.984      -17.538       31.851       66.362       22.157     1014.455     4403.879      490.933        0.801        0.295       99.068       27.422        0.077      334.284        4.155      863.421
11/04/2013  20:04:00      -86.539       45.684       -3.666       34.338       45.952       23.576     1179.102     2111.558      555.813        0.672        0.192       97.857       23.282        0.057      334.256        4.108      863.415
11/04/2013  20:05:00     -123.303       80.269      -21.631       39.073       37.298       24.473     1526.716     1391.169      598.910        1.282        0.176      147.128       20.304        0.019      334.273        4.137      863.404
11/04/2013  20:06:00      -57.473       79.414      -18.142       26.575       36.430       22.622      706.214     1327.157      511.767        0.624        0.127       98.029       12.456        0.016      334.295        4.172      863.401
11/04/2013  20:07:00      -58.866       62.247       -9.998       33.566       45.303       20.893     1126.654     2052.328      436.502        0.553        0.181       85.673       16.335        0.036      334.303        4.187      863.413
11/04/2013  20:08:00     -104.102       64.229      -19.971       25.826       39.571       20.699      666.987     1565.829      428.448        0.901        0.133      122.321       12.578        0.011      334.384        4.322      863.425
11/04/2013  20:09:00     -123.007      138.520      -35.003       53.486       69.770       29.388     2860.746     4867.900      863.637        2.207        0.430      185.253       31.235        0.028      334.483        4.481      863.435
11/04/2013  20:10:00      -95.524       77.907      -25.761       45.857       37.688       19.612     2102.838     1420.379      384.634        0.988        0.195      123.266       22.116        0.032      334.490        4.497      863.452
11/04/2013  20:11:00     -113.099      128.953      -24.320       46.759       59.702       27.404     2186.378     3564.341      750.985        1.826        0.325      171.523       26.643        0.024      334.571        4.630      863.453
11/04/2013  20:12:00      -76.768      101.026      -20.062       33.564       43.478       24.156     1126.541     1890.353      583.519        1.005        0.180      126.884       17.064        0.018      334.601        4.681      863.466
11/04/2013  20:13:00      -75.936       45.712      -10.354       24.912       23.366       20.937      620.600      545.964      438.341        0.478        0.080       88.633        8.782        0.010      334.530        4.564      863.498
11/04/2013  20:14:00      -77.579       97.165      -28.395       32.183       56.372       21.245     1035.755     3177.838      451.344        1.046        0.233      124.336       24.876        0.040      334.556        4.606      863.516
11/04/2013  20:15:00      -70.019       70.246      -19.047       31.592       40.496       19.231      998.027     1639.921      369.843        0.660        0.150       99.182       16.333        0.027      334.527        4.558      863.542
11/04/2013  20:16:00      -46.733       59.593       -7.185       28.528       27.864       20.327      813.861      776.389      413.186        0.389        0.100       75.732       20.340        0.072      334.489        4.494      863.561
11/04/2013  20:17:00      -31.644       75.885      -10.504       33.991       27.072       17.117     1155.413      732.909      292.995        0.453        0.109       82.218       11.013        0.018      334.543        4.584      863.567
11/04/2013  20:18:00        4.698       20.922       -6.808       16.483       17.874        8.022      271.673      319.473       64.356        0.058        0.033       21.443        9.084        0.179      334.480        4.481      863.586
11/04/2013  20:19:00        5.783       33.320       -8.273       12.782       16.524        8.197      163.376      273.030       67.192        0.086        0.025       33.818        2.822        0.007      334.352        4.268      863.596
11/04/2013  20:20:00       10.734       31.560       -3.357       14.911       21.238        8.702      222.325      451.052       75.722        0.094        0.037       33.336        4.394        0.017      334.295        4.174      863.606
11/04/2013  20:21:00       26.141       26.950        2.198       17.501       16.249       13.374      306.293      264.044      178.871        0.108        0.037       37.545        8.273        0.049      334.217        4.046      863.620
11/04/2013  20:22:00       19.774       28.869       -8.960       12.541       20.191       12.990      157.284      407.662      168.734        0.102        0.037       34.992        6.653        0.036      334.187        3.996      863.637
11/04/2013  20:23:00       24.213       34.947        6.615       24.874       15.740       12.802      618.721      247.739      163.884        0.144        0.052       42.515       10.472        0.061      334.133        3.905      863.673
11/04/2013  20:24:00       39.452       30.583       -2.113       22.109       17.216       18.077      488.830      296.407      326.789        0.180        0.056       49.918       12.272        0.060      334.064        3.789      863.697
11/04/2013  20:25:00       40.445       50.635       -2.971       21.806       30.286       17.365      475.518      917.260      301.535        0.295        0.085       64.805       11.346        0.031      334.076        3.810      863.717
11/04/2013  20:26:00       28.087       25.078       -1.614       16.236       20.664       12.479      263.616      426.989      155.728        0.113        0.042       37.654       11.076        0.087      334.076        3.810      863.731
11/04/2013  20:27:00       13.516       40.012       -7.362       17.131       29.010       14.498      293.468      841.571      210.202        0.159        0.067       42.234       16.059        0.145      334.094        3.840      863.749
11/04/2013  20:28:00      -23.647       61.698       -9.996       33.292       35.954       17.550     1108.373     1292.701      308.002        0.359        0.135       66.074       17.062        0.067      334.201        4.017      863.775
11/04/2013  20:29:00        6.189       39.899        4.687       17.031       17.903       11.085      290.067      320.506      122.887        0.119        0.037       40.376       12.917        0.102      334.152        3.937      863.793
11/04/2013  20:30:00      -51.669        1.754       -1.204       19.235       29.661       18.687      369.981      879.783      349.193        0.214        0.080       51.699        6.899        0.018      334.408        4.361      863.817
11/04/2013  20:31:00      -47.566       -0.242        6.537       30.220       25.875       16.597      913.257      669.525      275.453        0.208        0.093       47.566        7.695        0.026      334.369        4.298      863.835
11/04/2013  20:32:00      -43.631       17.800       -1.922       25.551       17.840       13.253      652.857      318.269      175.629        0.169        0.057       47.122        9.640        0.042      334.308        4.195      863.852
11/04/2013  20:33:00      -22.266       34.348       -7.318       24.496       27.885       10.090      600.042      777.598      101.807        0.160        0.074       40.934        4.346        0.011      334.277        4.145      863.867
11/04/2013  20:34:00      -69.480       52.620      -18.250       33.807       27.823       20.499     1142.905      774.139      420.205        0.513        0.117       87.157        8.110        0.009      334.388        4.327      863.892
11/04/2013  20:35:00      -52.199       23.606      -15.429       30.439       54.798       19.960      926.505     3002.798      398.400        0.392        0.216       57.288       16.459        0.083      334.364        4.288      863.892
11/04/2013  20:36:00      -59.303       11.982       -9.176       21.986       45.971       20.822      483.405     2113.291      433.553        0.339        0.152       60.502       26.261        0.188      334.351        4.267      863.900
11/04/2013  20:37:00     -115.319       41.077      -23.147       29.916       69.761       25.877      894.938     4866.573      669.604        1.098        0.322      122.416       32.798        0.072      334.472        4.467      863.913
11/04/2013  20:38:00      -68.981        6.527        2.896       55.177       20.667       21.686     3044.551      427.140      470.274        0.437        0.197       69.289       17.639        0.065      334.319        4.215      863.933
11/04/2013  20:39:00      -51.604       10.120       -5.729       25.545       26.619       17.170      652.545      708.555      294.793        0.223        0.083       52.586       15.766        0.090      334.363        4.287      863.961
11/04/2013  20:40:00      -54.347       -1.230        3.896       40.173       50.423       28.608     1613.858     2542.437      818.427        0.397        0.249       54.361       24.174        0.198      334.391        4.333      863.988
11/04/2013  20:41:00      -67.668       55.135      -12.732       42.008       32.059       23.321     1764.681     1027.758      543.860        0.556        0.167       87.286       20.481        0.055      334.434        4.404      863.997
11/04/2013  20:42:00      -43.993       24.961      -17.114       25.127       44.641       16.870      631.347     1992.781      284.605        0.288        0.145       50.581       15.570        0.095      334.442        4.418      863.998
11/04/2013  20:43:00      -53.025       33.211      -13.235       21.513       30.133       15.938      462.789      908.008      254.025        0.286        0.081       62.566       12.138        0.038      334.371        4.300      864.013
11/04/2013  20:44:00      -66.367       21.825       -7.171       26.664       37.176       24.678      710.967     1382.019      608.991        0.382        0.135       69.864       23.488        0.113      334.388        4.327      864.007
11/04/2013  20:45:00      -77.580        4.975        0.333       38.123       43.705       20.705     1453.356     1910.163      428.689        0.492        0.190       77.739       15.951        0.042      334.337        4.244      864.008
11/04/2013  20:46:00      -57.180       27.482      -15.131       22.084       30.764       17.966      487.706      946.426      322.791        0.301        0.088       63.441       15.637        0.061      334.311        4.202      864.023
11/04/2013  20:47:00      -58.408        9.340       -7.084       19.381       23.059       16.340      375.608      531.717      266.995        0.236        0.059       59.150        5.823        0.010      334.340        4.249      864.027
11/04/2013  20:48:00      -72.223       59.223      -17.993       31.388       48.028       22.169      985.182     2306.678      491.459        0.641        0.189       93.400       18.956        0.041      334.314        4.204      864.033
11/04/2013  20:49:00      -65.940       20.296        0.637       27.830       18.599       16.837      774.506      345.914      283.481        0.308        0.070       68.993       13.504        0.038      334.303        4.187      864.048
11/04/2013  20:50:00      -30.590      -15.180        1.503       43.234       35.339       18.414     1869.145     1248.872      339.076        0.231        0.173       34.149       12.852        0.142      334.251        4.101      864.051
11/04/2013  20:51:00      -15.593      -21.904       -0.404       22.851       21.426       14.774      522.152      459.071      218.276        0.096        0.060       26.887       13.639        0.257      334.309        4.198      864.046
11/04/2013  20:52:00      -55.743       17.235      -13.332       47.339       29.381       17.950     2241.005      863.268      322.212        0.350        0.171       58.346       14.707        0.064      334.344        4.255      864.038
11/04/2013  20:53:00      -35.547      -21.018       -0.826       19.959       21.099       13.489      398.382      445.157      181.946        0.137        0.051       41.296       12.428        0.091      334.447        4.427      864.052
11/04/2013  20:54:00       14.135       19.154       12.164       18.514       16.480       15.871      342.756      271.575      251.893        0.079        0.043       23.805        5.612        0.056      334.185        3.992      864.055
11/04/2013  20:55:00       -2.166        0.348       19.984        7.281       11.317        9.173       53.007      128.077       84.141        0.033        0.013        2.194        8.574       15.274      334.036        3.743      864.077
11/04/2013  20:56:00       -5.114      -17.389        5.917       12.810       21.408       13.759      164.096      458.295      189.307        0.059        0.041       18.126       11.791        0.423      334.168        3.963      864.100
11/04/2013  20:57:00        0.997       -4.659        7.623       13.831       24.042       20.105      191.307      578.008      404.198        0.063        0.059        4.764       19.784       17.245      334.015        3.708      864.117
11/04/2013  20:58:00       -7.460       14.026       22.652        9.172       17.648       10.739       84.129      311.437      115.326        0.064        0.026       15.887       11.000        0.479      333.922        3.557      864.128
11/04/2013  20:59:00        0.977       29.690       37.501       12.712       14.190        9.798      161.592      201.362       96.001        0.137        0.023       29.706        6.255        0.044      333.836        3.413      864.145
11/04/2013  21:00:00       23.604       40.708       27.637       16.856       12.745       15.069      284.138      162.448      227.078        0.183        0.034       47.057       11.851        0.063      333.877        3.480      864.152
11/04/2013  21:01:00       19.608       32.206       21.741       22.580       18.013       22.094      509.856      324.483      488.140        0.161        0.066       37.706       15.128        0.161      333.877        3.481      864.154
11/04/2013  21:02:00       -2.502       -2.165       30.924       11.679       31.294       20.151      136.392      979.332      406.052        0.124        0.076        3.309       22.216       45.086      333.812        3.371      864.156
11/04/2013  21:03:00        7.729       19.475       42.753       19.268       33.052       20.022      371.272     1092.453      400.868        0.207        0.093       20.953       20.728        0.979      333.777        3.314      864.167
11/04/2013  21:04:00       11.737       36.569       26.141       28.946       23.273       38.505      837.855      541.644     1482.597        0.251        0.143       38.406       21.436        0.312      333.945        3.593      864.157
11/04/2013  21:05:00      -28.934       -6.424      -13.066       18.154       12.502       10.848      329.567      156.309      117.677        0.083        0.030       29.638       10.429        0.124      334.135        3.907      864.137
11/04/2013  21:06:00        5.497       -7.061        2.284        7.946        9.503        7.071       63.147       90.304       49.996        0.014        0.010        8.948        5.844        0.427      334.115        3.875      864.125
11/04/2013  21:07:00      -33.363       -1.392       -5.578       17.385        6.439        6.000      302.228       41.465       35.997        0.076        0.019       33.393        7.412        0.049      333.974        3.641      864.105
11/04/2013  21:08:00      -48.927      -24.177       -2.845       16.988       13.419       11.022      288.587      180.068      121.493        0.179        0.030       54.575       10.739        0.039      333.846        3.429      864.114
11/04/2013  21:09:00      -39.826      -13.556        1.856       13.623       14.269        8.901      185.581      203.607       79.225        0.112        0.023       42.070        8.447        0.040      333.719        3.218      864.121
11/04/2013  21:10:00       -2.994       -5.420       -4.381        5.271        5.632        5.483       27.781       31.720       30.060        0.007        0.004        6.192        3.831        0.383      333.759        3.285      864.127
11/04/2013  21:11:00       -0.879       -1.195       -1.307        5.039        6.239        4.176       25.388       38.931       17.437        0.004        0.004        1.484        3.515        5.613      333.851        3.438      864.147
11/04/2013  21:12:00       -0.780        2.802       -0.074       10.364        4.717        4.615      107.404       22.250       21.302        0.008        0.008        2.908        2.236        0.591      333.823        3.394      864.163
11/04/2013  21:13:00      -28.562       12.239       -2.689        6.732       10.871        7.530       45.320      118.189       56.705        0.060        0.011       31.074        6.149        0.039      333.852        3.437      864.172
11/04/2013  21:14:00      -42.357       27.386       -1.478       15.122       14.895       10.584      228.674      221.874      112.026        0.155        0.028       50.439        2.910        0.003      333.682        3.157      864.192
11/04/2013  21:15:00      -21.142        5.942       -5.680       10.761       12.587        7.754      115.791      158.432       60.132        0.042        0.017       21.961        6.179        0.079      333.730        3.237      864.212
11/04/2013  21:16:00      -15.425       -3.293       -2.901       19.561       18.446       14.261      382.646      340.242      203.381        0.059        0.046       15.773        9.547        0.366      333.727        3.230      864.232
11/04/2013  21:17:00      -10.125      -36.260       -1.534       32.042       21.115       16.159     1026.667      445.846      261.108        0.158        0.087       37.647       10.075        0.072      333.659        3.119      864.252
11/04/2013  21:18:00      -77.060      -86.199      -12.681       33.704       36.757       20.669     1135.976     1351.083      427.222        0.822        0.146      115.622       16.413        0.020      333.556        2.948      864.271
11/04/2013  21:19:00      -15.813      -57.898       11.327       36.927       38.292       21.919     1363.600     1466.309      480.423        0.352        0.166       60.019       12.691        0.045      333.585        2.996      864.281
11/04/2013  21:20:00      -27.113      -52.580        1.735       36.860       42.515       20.420     1358.664     1807.529      416.962        0.354        0.179       59.159       20.272        0.117      333.560        2.955      864.297
11/04/2013  21:21:00      -32.458      -63.113        2.033       32.206       46.087       19.749     1037.258     2124.054      390.017        0.430        0.178       70.970       17.922        0.064      333.538        2.917      864.307
11/04/2013  21:22:00      -51.867      -91.881        1.341       53.515       46.130       29.363     2863.879     2127.965      862.175        0.849        0.293      105.509       28.797        0.074      333.450        2.773      864.305
11/04/2013  21:23:00     -116.878     -113.611      -16.472       56.473       37.067       25.595     3189.149     1373.944      655.127        1.603        0.261      162.997       20.404        0.016      333.393        2.677      864.305
11/04/2013  21:24:00      -78.359      -66.755       -1.258       55.189       35.903       29.285     3045.777     1289.056      857.606        0.789        0.260      102.939       27.041        0.069      333.405        2.699      864.306
11/04/2013  21:25:00      -99.330     -103.973       -2.602       63.226       39.120       25.262     3997.569     1530.361      638.153        1.342        0.308      143.794       32.475        0.051      333.375        2.649      864.304
11/04/2013  21:26:00      -82.961      -66.891        8.109       54.630       32.801       24.783     2984.466     1075.910      614.196        0.805        0.234      106.569       25.258        0.056      333.439        2.753      864.309
11/04/2013  21:27:00      -96.421      -97.362       -2.234       46.664       33.423       25.506     2177.504     1117.102      650.547        1.136        0.197      137.027       18.532        0.018      333.392        2.675      864.326
11/04/2013  21:28:00      -97.074      -95.308       -3.056       36.023       52.031       23.981     1297.668     2707.231      575.090        1.155        0.229      136.040       20.569        0.023      333.490        2.836      864.325
11/04/2013  21:29:00      -99.927     -111.439       -5.684       34.426       29.251       21.712     1185.121      855.635      471.423        1.247        0.126      149.680       21.437        0.021      333.496        2.846      864.322
11/04/2013  21:30:00      -93.249      -93.830       -7.206       30.358       27.513       19.812      921.636      756.988      392.511        0.981        0.104      132.286       17.202        0.017      333.511        2.872      864.326
11/04/2013  21:31:00      -67.239      -76.018       -0.631       28.770       28.596       17.099      827.691      817.740      292.380        0.612        0.097      101.488       13.863        0.019      333.558        2.951      864.329
11/04/2013  21:32:00      -23.839      -25.939        2.353       33.691       22.566       14.915     1135.111      509.206      222.449        0.156        0.093       35.230        8.401        0.057      333.552        2.941      864.342
11/04/2013  21:33:00      -31.261      -42.600        2.402       23.581       31.810       16.545      556.060     1011.848      273.745        0.232        0.092       52.839       17.819        0.114      333.467        2.799      864.343
11/04/2013  21:34:00      -57.234      -50.430       -6.712       13.720       22.868       12.987      188.246      522.942      168.651        0.337        0.044       76.282       11.764        0.024      333.483        2.827      864.333
11/04/2013  21:35:00      -67.323      -32.998       -6.410       14.663       12.207        8.916      214.994      149.017       79.500        0.305        0.022       74.975        3.438        0.002      333.393        2.679      864.342
11/04/2013  21:36:00      -33.881      -37.685        0.615       33.325       30.137       17.003     1110.564      908.260      289.092        0.244        0.115       50.676       16.513        0.106      333.341        2.593      864.342
11/04/2013  21:37:00      -76.970      -80.056       -2.891       35.536       28.003       22.946     1262.774      784.176      526.528        0.746        0.129      111.055       23.735        0.046      333.374        2.647      864.339
11/04/2013  21:38:00      -86.650      -66.098       -1.521       55.248       33.277       28.655     3052.378     1107.335      821.133        0.843        0.249      108.983       32.637        0.090      333.360        2.623      864.344
11/04/2013  21:39:00     -112.314     -107.702       -2.759       42.157       32.629       21.058     1777.220     1064.662      443.451        1.375        0.164      155.609       15.225        0.010      333.390        2.673      864.346
11/04/2013  21:40:00     -103.971      -63.672        7.440       38.537       39.671       25.989     1485.138     1573.825      675.434        0.933        0.187      121.919       19.531        0.026      333.361        2.625      864.340
11/04/2013  21:41:00      -81.045      -37.216        6.663       44.713       26.760       22.221     1999.263      716.084      493.765        0.560        0.160       89.182       23.486        0.069      333.252        2.445      864.330
11/04/2013  21:42:00     -111.177      -44.474       -3.338       24.315       25.811       16.961      591.207      666.203      287.686        0.795        0.077      119.743       14.559        0.015      333.206        2.367      864.334
11/04/2013  21:43:00      -90.376      -31.520       -3.521       35.196       24.659       21.078     1238.736      608.086      444.273        0.573        0.115       95.715       18.113        0.036      333.140        2.261      864.314
11/04/2013  21:44:00     -128.251      -14.699       -7.905       27.031       25.935       17.892      730.662      672.599      320.116        0.922        0.086      129.090       11.827        0.008      333.064        2.133      864.320
11/04/2013  21:45:00      -94.956      -21.975        1.837       32.813       22.464       17.079     1076.725      504.621      291.690        0.569        0.094       97.466       15.329        0.025      332.991        2.012      864.336
11/04/2013  21:46:00     -117.465      -14.965       -2.306       41.630       24.401       21.350     1733.054      595.408      455.839        0.841        0.139      118.414       21.673        0.033      332.932        1.917      864.359
11/04/2013  21:47:00     -120.517      -19.149       -6.675       26.985       28.903       17.969      728.186      835.395      322.901        0.841        0.094      122.029       11.511        0.009      332.935        1.921      864.387
11/04/2013  21:48:00      -91.920       -9.431       -2.186       44.431       39.244       22.540     1974.102     1540.120      508.056        0.628        0.201       92.402       19.510        0.045      332.915        1.888      864.425
11/04/2013  21:49:00      -81.154      -21.431       -5.329       54.796       29.352       20.243     3002.549      861.557      409.760        0.567        0.214       83.936       24.180        0.083      332.861        1.800      864.452
11/04/2013  21:50:00     -135.294      -10.334      -13.660       32.258       29.599       20.917     1040.548      876.075      437.527        1.048        0.118      135.688       16.747        0.015      332.866        1.808      864.482
11/04/2013  21:51:00     -147.398       26.193      -17.953       47.154       39.361       29.207     2223.527     1549.280      853.032        1.368        0.231      149.708       16.548        0.012      332.770        1.649      864.519
11/04/2013  21:52:00     -146.618        9.853      -20.991       38.574       45.758       22.976     1487.948     2093.785      527.903        1.307        0.205      146.949       10.128        0.005      332.782        1.668      864.533
11/04/2013  21:53:00     -127.887      -45.906       -5.358       53.252       45.390       27.806     2835.752     2060.257      773.198        1.208        0.283      135.877       23.869        0.031      332.679        1.498      864.533
11/04/2013  21:54:00     -146.305      -34.502      -16.977       31.923       34.689       20.676     1019.072     1203.355      427.511        1.277        0.132      150.318       16.424        0.012      332.741        1.601      864.526
11/04/2013  21:55:00     -134.857       -4.137       -8.234       43.063       56.817       26.921     1854.427     3228.179      724.764        1.204        0.290      134.920       20.414        0.023      332.730        1.585      864.504
11/04/2013  21:56:00     -148.266      -23.715      -15.189       37.253       42.046       30.820     1387.818     1767.879      949.855        1.344        0.205      150.151       26.356        0.031      332.704        1.541      864.491
11/04/2013  21:57:00     -121.390       18.244      -14.011       36.166       37.935       26.135     1307.973     1439.028      683.049        0.935        0.172      122.753       22.464        0.033      332.735        1.591      864.474
11/04/2013  21:58:00     -114.676       27.101      -19.455       48.262       38.258       23.618     2329.184     1463.702      557.789        0.931        0.218      117.835       23.666        0.040      332.716        1.558      864.458
11/04/2013  21:59:00     -120.188       -2.918      -10.586       37.703       31.318       21.687     1421.546      980.831      470.323        0.872        0.144      120.223       19.892        0.027      332.733        1.588      864.466
11/04/2013  22:00:00     -137.292       21.153      -10.204       31.128       29.773       20.315      968.921      886.444      412.689        1.083        0.113      138.912       15.785        0.013      332.760        1.632      864.462
11/04/2013  22:01:00     -129.154       -5.004      -17.513       36.484       34.293       18.574     1331.057     1175.989      345.012        0.993        0.143      129.251       13.196        0.010      332.728        1.579      864.464
11/04/2013  22:02:00     -105.799       -3.535      -14.407       44.960       36.433       19.004     2021.407     1327.346      361.146        0.756        0.185      105.858       11.141        0.011      332.719        1.566      864.475
11/04/2013  22:03:00      -58.495      -12.381        0.447       40.238       28.540       20.083     1619.058      814.528      403.347        0.321        0.142       59.791       19.973        0.112      332.696        1.525      864.469
11/04/2013  22:04:00      -29.435      -14.787       -4.107       34.876       23.222       15.210     1216.317      539.270      231.339        0.154        0.099       32.940       14.046        0.182      332.720        1.566      864.465
11/04/2013  22:05:00      -63.525        2.385      -13.881       20.547       22.356       12.640      422.186      499.770      159.774        0.266        0.054       63.570        5.754        0.008      332.801        1.700      864.456
11/04/2013  22:06:00      -68.521      -22.152       -3.597       30.623       31.240       14.215      937.792      975.936      202.066        0.366        0.106       72.013        8.080        0.013      332.773        1.655      864.455
11/04/2013  22:07:00      -79.273      -23.992      -12.251       33.930       23.458       15.708     1151.213      550.270      246.728        0.448        0.097       82.824       14.362        0.030      332.735        1.591      864.450
11/04/2013  22:08:00      -63.761      -31.163       -3.579       39.808       40.334       18.785     1584.688     1626.816      352.877        0.431        0.178       70.969       18.923        0.071      332.751        1.618      864.463
11/04/2013  22:09:00      -31.048      -35.677       -4.733       35.783       30.905       15.721     1280.390      955.107      247.147        0.237        0.124       47.295       14.140        0.089      332.767        1.645      864.492
11/04/2013  22:10:00      -47.745      -23.740       -0.515       27.244       22.144       15.678      742.216      490.346      245.789        0.216        0.074       53.321       12.118        0.052      332.641        1.436      864.497
11/04/2013  22:11:00      -42.207      -11.407       -1.562       20.963       18.694       22.871      439.455      349.460      523.061        0.161        0.066       43.721       14.641        0.112      332.622        1.406      864.517
11/04/2013  22:12:00      -24.200      -17.538        1.663       16.748       19.957       15.390      280.501      398.289      236.848        0.091        0.046       29.886        9.381        0.099      332.651        1.453      864.516
11/04/2013  22:13:00      -18.650      -12.582       -7.499       22.313       15.475       11.127      497.866      239.462      123.811        0.071        0.043       22.497        7.815        0.121      332.609        1.383      864.523
11/04/2013  22:14:00      -13.250      -20.549       -3.093       28.347       16.154       23.145      803.553      260.964      535.698        0.110        0.080       24.450       21.578        0.779      332.625        1.408      864.526
11/04/2013  22:15:00      -12.621       -6.996       -2.544       21.444       15.191       14.374      459.837      230.766      206.616        0.056        0.045       14.430        7.966        0.305      332.632        1.421      864.524
11/04/2013  22:16:00      -62.038      -23.372       -9.222       27.035       22.022       17.984      730.896      484.972      323.428        0.301        0.077       66.295       15.389        0.054      332.622        1.402      864.525
11/04/2013  22:17:00      -45.388       -9.633        3.521       25.398       20.343       17.560      645.059      413.822      308.349        0.177        0.068       46.399       14.645        0.100      332.578        1.331      864.517
11/04/2013  22:18:00      -66.708      -10.015      -17.837       14.156       16.448       14.709      200.399      270.522      216.351        0.278        0.034       67.456        6.046        0.008      332.601        1.369      864.509
11/04/2013  22:19:00      -60.056      -15.002      -12.973       19.444       16.609       11.726      378.060      275.866      137.502        0.240        0.040       61.902        5.815        0.009      332.567        1.314      864.504
11/04/2013  22:20:00      -65.583      -23.033      -10.194       12.142       14.409       17.011      147.440      207.620      289.363        0.279        0.032       69.510       10.946        0.025      332.614        1.392      864.484
11/04/2013  22:21:00      -66.317      -24.366      -11.610       12.533       19.940       14.816      157.072      397.587      219.505        0.295        0.039       70.652       10.517        0.022      332.724        1.573      864.472
11/04/2013  22:22:00      -71.755      -12.595       -5.042       12.478       12.889       11.821      155.712      166.126      139.730        0.290        0.023       72.852        5.879        0.007      332.653        1.455      864.486
11/04/2013  22:23:00      -76.509       -6.804      -14.707       13.597       13.177        9.620      184.868      173.642       92.535        0.328        0.023       76.810        7.687        0.010      332.644        1.441      864.496
11/04/2013  22:24:00      -74.585      -21.938      -13.263       10.430       10.943        9.084      108.783      119.759       82.517        0.327        0.016       77.744        4.690        0.004      332.635        1.426      864.516
11/04/2013  22:25:00      -77.499      -11.223      -11.008       15.170       15.982       10.065      230.128      255.421      101.305        0.342        0.029       78.308        8.302        0.011      332.631        1.421      864.545
11/04/2013  22:26:00      -94.417       -6.085      -12.564       20.569       18.153       12.295      423.088      329.519      151.167        0.501        0.045       94.613       10.075        0.011      332.647        1.445      864.559
11/04/2013  22:27:00      -74.832        4.925       -8.141       27.685       22.842       25.747      766.442      521.777      662.885        0.382        0.098       74.994       19.557        0.068      332.626        1.411      864.565
11/04/2013  22:28:00      -74.374       -8.630      -17.230       28.279       21.766       16.158      799.714      473.749      261.067        0.372        0.077       74.873       17.336        0.054      332.600        1.367      864.581
11/04/2013  22:29:00      -70.281       -5.182      -14.509       22.450       19.788       13.708      503.989      391.583      187.915        0.313        0.054       70.472       12.921        0.034      332.593        1.356      864.602
11/04/2013  22:30:00      -85.864       -9.596      -16.620       20.821       19.416       11.817      433.517      376.976      139.641        0.435        0.048       86.398        8.250        0.009      332.569        1.316      864.619
11/04/2013  22:31:00     -101.347       -5.241      -20.953       26.837       19.884       14.065      720.203      395.357      197.834        0.603        0.066      101.483        7.149        0.005      332.518        1.231      864.643
11/04/2013  22:32:00      -58.282       -9.812      -11.062       29.690       32.239       15.839      881.517     1039.352      250.861        0.289        0.109       59.102       13.726        0.054      332.502        1.206      864.670
11/04/2013  22:33:00      -90.113      -18.016       -5.580       33.947       35.464       22.562     1152.381     1257.697      509.045        0.570        0.146       91.896       15.939        0.030      332.277        0.834      864.684
11/04/2013  22:34:00     -111.763        1.986      -12.980       24.696       25.836       25.808      609.884      667.497      666.033        0.730        0.097      111.780       17.052        0.023      332.267        0.819      864.686
11/04/2013  22:35:00      -10.237      -26.334       10.204       52.129       29.100       23.732     2717.452      846.808      563.198        0.251        0.206       28.254       22.214        0.618      332.279        0.838      864.700
11/04/2013  22:36:00        3.116      -56.792       -6.458       21.769       29.946       17.554      473.890      896.744      308.126        0.248        0.084       56.878       10.407        0.033      332.279        0.839      864.689
11/04/2013  22:37:00      -33.145      -25.083        3.593       41.762       23.969       27.820     1744.042      574.503      773.971        0.242        0.155       41.566       28.748        0.478      332.260        0.808      864.673
11/04/2013  22:38:00      -54.038      -42.892      -14.873       34.255       22.462       20.391     1173.411      504.536      415.789        0.354        0.105       68.992       19.727        0.082      332.324        0.911      864.663
11/04/2013  22:39:00      -75.424      -67.488      -19.330       22.006       23.122       20.178      484.248      534.630      407.141        0.602        0.071      101.209       12.131        0.014      332.319        0.906      864.637
11/04/2013  22:40:00     -100.906      -58.465      -15.446       26.422       18.264       15.778      698.127      333.559      248.939        0.756        0.064      116.620       12.914        0.012      332.248        0.789      864.604
11/04/2013  22:41:00     -114.496      -46.264      -13.066       25.827       31.963       17.375      667.028     1021.641      301.876        0.871        0.100      123.490        4.200        0.001      332.280        0.840      864.586
11/04/2013  22:42:00     -114.142      -24.998      -10.442       27.928       19.148       17.116      780.000      366.655      292.946        0.760        0.072      116.847       16.441        0.020      332.292        0.860      864.566
11/04/2013  22:43:00      -88.860      -22.581       -1.923       24.038       19.927       14.622      577.828      397.085      213.809        0.480        0.059       91.684       10.471        0.013      332.353        0.959      864.548
11/04/2013  22:44:00     -101.971      -44.987      -10.520       16.964       19.461       14.950      287.783      378.716      223.488        0.671        0.044      111.453        9.255        0.007      332.399        1.036      864.560
11/04/2013  22:45:00      -89.532      -14.444      -12.487       22.122       16.585       15.113      489.364      275.050      228.406        0.469        0.050       90.690       12.763        0.020      332.398        1.036      864.573
11/04/2013  22:46:00      -78.313      -35.109      -11.361       19.578       15.345       16.384      383.286      235.468      268.429        0.419        0.044       85.823       13.005        0.023      332.430        1.088      864.589
11/04/2013  22:47:00      -48.284      -30.114       -8.042       13.213       10.286        8.284      174.575      105.811       68.618        0.183        0.017       56.905        7.508        0.017      332.389        1.019      864.616
11/04/2013  22:48:00      -36.603      -10.292       -5.451       13.209       14.672       10.969      174.475      215.269      120.318        0.099        0.026       38.023        6.262        0.027      332.342        0.942      864.639
11/04/2013  22:49:00       -0.481       -5.991        0.437        4.187        7.358        5.513       17.534       54.139       30.397        0.007        0.005        6.010        2.722        0.205      332.327        0.917      864.654
11/04/2013  22:50:00      -18.133      -10.343        5.245       24.185       11.803        9.227      584.930      139.302       85.131        0.064        0.040       20.875       10.371        0.247      332.386        1.014      864.690
11/04/2013  22:51:00      -56.061      -16.230      -12.089       15.136        9.722        7.452      229.100       94.508       55.536        0.197        0.019       58.363        3.803        0.004      332.370        0.989      864.715
11/04/2013  22:52:00      -58.082      -24.949        0.356       23.741       14.910       12.089      563.639      222.316      146.136        0.246        0.047       63.213        7.477        0.014      332.357        0.967      864.722
11/04/2013  22:53:00      -33.359      -24.920        8.780       32.682       14.051       16.779     1068.110      197.421      281.538        0.168        0.077       41.639       16.100        0.150      332.342        0.943      864.711
11/04/2013  22:54:00      -16.759      -22.866        9.844       33.952       15.749       20.698     1152.758      248.030      428.400        0.136        0.091       28.350       18.811        0.440      332.336        0.933      864.691
11/04/2013  22:55:00        3.937      -37.013       20.090       33.596       29.685       20.130     1128.683      881.210      405.197        0.210        0.121       37.222       14.873        0.160      332.471        1.154      864.666
11/04/2013  22:56:00      -10.389       -6.796       10.005       21.050       23.393       16.688      443.098      547.241      278.487        0.076        0.063       12.414       12.039        0.940      332.420        1.070      864.659
11/04/2013  22:57:00      -25.742      -39.872       -9.110       49.384       31.473       25.751     2438.779      990.534      663.100        0.321        0.205       47.460       16.939        0.127      332.551        1.288      864.674
11/04/2013  22:58:00      -66.807      -83.996       -5.306       52.225       41.626       31.169     2727.421     1732.694      971.515        0.849        0.272      107.324       15.810        0.022      332.469        1.152      864.698
11/04/2013  22:59:00     -105.279      -88.694       -6.696       43.577       42.189       27.692     1898.983     1779.901      766.831        1.172        0.222      137.660       19.134        0.019      332.348        0.952      864.723
11/04/2013  23:00:00     -122.764      -69.968        5.383       68.936       36.387       33.864     4752.134     1324.013     1146.762        1.361        0.361      141.303       29.768        0.044      332.261        0.809      864.743
11/04/2013  23:01:00      -72.617      -70.120        5.148       58.700       51.528       31.098     3445.721     2655.102      967.073        0.864        0.353      100.945       29.765        0.087      332.258        0.804      864.771
11/04/2013  23:02:00      -72.800      -86.912        8.432       43.470       41.718       25.717     1889.641     1740.370      661.361        0.861        0.215      113.374       26.533        0.055      332.289        0.853      864.765
11/04/2013  23:03:00      -30.843      -47.072       18.814       51.329       38.363       30.624     2634.632     1471.711      937.815        0.428        0.252       56.276       32.426        0.332      332.319        0.905      864.738
11/04/2013  23:04:00      -48.668      -46.378        8.078       50.669       41.093       24.383     2567.347     1688.648      594.520        0.472        0.243       67.227       27.195        0.164      332.262        0.811      864.702
11/04/2013  23:05:00      -68.112      -76.208        5.330       52.495       38.780       23.805     2755.746     1503.857      566.691        0.765        0.241      102.210       31.093        0.093      332.266        0.817      864.669
11/04/2013  23:06:00      -40.676      -48.477       14.449       37.009       27.946       22.727     1369.644      780.999      516.539        0.344        0.133       63.282       16.374        0.067      332.324        0.913      864.668
11/04/2013  23:07:00      -88.642      -63.607        2.849       43.429       25.624       17.874     1886.057      656.573      319.489        0.739        0.143      109.103       20.136        0.034      332.300        0.872      864.669
11/04/2013  23:08:00      -86.767      -53.085       -0.817       42.543       27.355       19.216     1809.886      748.272      369.241        0.664        0.146      101.718       13.573        0.018      332.277        0.835      864.667
11/04/2013  23:09:00      -98.426      -26.480       -9.407       34.783       23.816       16.648     1209.891      567.226      277.149        0.627        0.103      101.926       16.521        0.026      332.129        0.592      864.671
11/04/2013  23:10:00     -118.502      -28.413      -10.471       26.077       34.084       15.203      679.993     1161.690      231.132        0.852        0.104      121.860       11.781        0.009      332.029        0.425      864.690
11/04/2013  23:11:00      -85.039      -26.606        2.112       23.425       30.210       16.154      548.734      912.634      260.964        0.483        0.086       89.104       11.853        0.018      332.031        0.428      864.710
11/04/2013  23:12:00      -96.161      -26.821       -2.354       37.287       22.106       15.860     1390.344      488.694      251.535        0.605        0.107       99.831       15.760        0.025      332.022        0.414      864.736
11/04/2013  23:13:00     -104.180      -31.401       -3.054       24.694       25.532       17.465      609.815      651.906      305.010        0.671        0.078      108.809       14.323        0.017      332.076        0.503      864.764
11/04/2013  23:14:00      -80.368      -33.639        2.202       34.374       31.756       18.774     1181.589     1008.453      352.475        0.507        0.127       87.124       18.389        0.045      332.097        0.538      864.800
11/04/2013  23:15:00      -99.197      -18.243       -2.934       32.261       23.180       17.564     1040.746      537.333      308.483        0.603        0.094      100.861       16.818        0.028      332.007        0.390      864.837
11/04/2013  23:16:00     -107.830      -19.378       -0.538       38.341       25.792       22.025     1469.994      665.219      485.084        0.731        0.131      109.557       20.965        0.037      331.993        0.366      864.863
11/04/2013  23:17:00     -118.280      -28.177       -3.688       32.386       30.103       18.601     1048.827      906.173      345.998        0.855        0.115      121.590       18.047        0.022      331.948        0.293      864.892
11/04/2013  23:18:00     -120.862      -34.569      -14.275       24.914       25.654       16.150      620.695      658.127      260.812        0.877        0.077      125.709       12.671        0.010      331.961        0.313      864.931
11/04/2013  23:19:00     -106.655      -36.578       -5.593       32.095       22.525       15.667     1030.088      507.367      245.455        0.726        0.089      112.753       15.009        0.018      331.937        0.273      864.957
11/04/2013  23:20:00     -127.848      -52.383       -6.423       26.446       29.704       14.567      699.387      882.355      212.189        1.046        0.090      138.163       11.457        0.007      331.941        0.281      864.960
11/04/2013  23:21:00      -92.144      -42.942       -7.720       41.111       45.257       21.300     1690.142     2048.186      453.674        0.729        0.210      101.658       15.813        0.024      331.897        0.208      864.942
11/04/2013  23:22:00     -122.910      -18.996      -12.966       49.806       43.137       28.382     2480.600     1860.769      805.533        1.039        0.257      124.369       28.137        0.051      331.818        0.078      864.918
11/04/2013  23:23:00     -112.752      -23.674       -6.294       50.573       42.115       26.693     2557.656     1773.699      712.518        0.918        0.252      115.210       24.514        0.045      331.753       -0.028      864.884
11/04/2013  23:24:00     -107.602      -24.255       -3.874       51.410       58.512       24.567     2642.979     3423.609      603.529        0.942        0.334      110.302       21.997        0.040      331.708       -0.102      864.867
11/04/2013  23:25:00      -94.269      -25.109       -6.653       34.432       37.226       25.830     1185.571     1385.752      667.185        0.640        0.162       97.556       18.334        0.035      331.763       -0.013      864.867
11/04/2013  23:26:00     -148.462        4.455      -13.050       50.826       47.767       30.691     2583.313     2281.731      941.953        1.402        0.290      148.529       24.239        0.027      331.813        0.070      864.879
11/04/2013  23:27:00     -118.789       11.875       -6.802       37.567       41.185       26.371     1411.266     1696.216      695.441        0.905        0.190      119.381       20.602        0.030      331.783        0.021      864.911
11/04/2013  23:28:00     -148.551       27.596      -11.067       58.524       38.704       28.061     3425.100     1498.035      787.432        1.433        0.286      151.092       21.870        0.021      331.762       -0.014      864.948
11/04/2013  23:29:00     -200.909       51.302      -14.558       61.646       41.331       29.067     3800.241     1708.232      844.882        2.478        0.318      207.355       21.645        0.011      331.783        0.019      864.991
11/04/2013  23:30:00     -186.782       41.351      -14.358       43.460       35.372       27.491     1888.757     1251.160      755.735        2.035        0.195      191.304       21.473        0.013      331.805        0.056      865.022
11/04/2013  23:31:00     -190.183       25.597      -21.373       45.765       32.254       24.772     2094.407     1040.309      613.651        2.051        0.187      191.898       20.207        0.011      331.833        0.103      865.013
11/04/2013  23:32:00     -116.951        8.237      -15.349       63.977       40.803       23.824     4093.045     1664.874      567.607        1.015        0.316      117.240       13.039        0.012      331.784        0.022      864.978
11/04/2013  23:33:00      -94.847      -27.008       -4.339       47.919       50.432       26.199     2296.191     2543.337      686.388        0.763        0.276       98.617       19.857        0.041      331.827        0.092      864.962
11/04/2013  23:34:00      -87.672      -30.914       -8.205       46.456       31.764       18.932     2158.119     1008.943      358.439        0.612        0.176       92.962       12.241        0.017      331.819        0.080      864.933
11/04/2013  23:35:00      -58.564      -31.036      -10.696       31.211       22.288       18.385      974.142      496.745      338.001        0.316        0.090       66.279        9.558        0.021      331.799        0.046      864.916
11/04/2013  23:36:00      -82.334      -28.892      -12.369       35.403       35.267       16.658     1253.384     1243.756      277.494        0.527        0.139       87.257       14.359        0.027      331.794        0.039      864.913
11/04/2013  23:37:00      -36.353      -22.928       -3.410       41.876       29.558       21.803     1753.606      873.694      475.378        0.248        0.155       42.979       26.046        0.367      331.719       -0.084      864.909
11/04/2013  23:38:00      -63.270      -12.988       -6.305       36.493       36.983       18.830     1331.703     1367.758      354.553        0.363        0.153       64.590       13.740        0.045      331.709       -0.099      864.908
11/04/2013  23:39:00      -73.616      -23.590      -10.512       22.834       29.052       16.493      521.374      844.033      272.027        0.386        0.082       77.303       13.198        0.029      331.760       -0.017      864.896
11/04/2013  23:40:00      -78.336      -15.250       -2.888       30.440       27.487       18.145      926.581      755.545      329.246        0.419        0.101       79.806       14.390        0.033      331.726       -0.073      864.879
11/04/2013  23:41:00      -73.473       -2.021       -5.955       26.063       26.255       19.096      679.271      689.309      364.675        0.359        0.087       73.501       16.905        0.053      331.607       -0.269      864.883
11/04/2013  23:42:00      -94.740      -17.770      -19.684       19.454       21.282       14.291      378.471      452.907      204.235        0.536        0.052       96.392        9.368        0.009      331.734       -0.059      864.890
11/04/2013  23:43:00      -93.389      -24.601      -11.202       23.411       25.578       15.301      548.067      654.251      234.113        0.544        0.072       96.575       10.383        0.012      331.698       -0.119      864.886
11/04/2013  23:44:00      -94.666      -48.133      -15.552       34.041       24.017       18.364     1158.765      576.824      337.246        0.680        0.104      106.200       14.463        0.019      331.690       -0.132      864.902
11/04/2013  23:45:00      -54.523      -36.534       -7.071       31.865       34.751       25.233     1015.399     1207.630      636.718        0.361        0.143       65.631       19.911        0.092      331.710       -0.098      864.902
11/04/2013  23:46:00      -66.401      -17.620       -6.319       28.457       21.287       20.387      809.796      453.148      415.626        0.322        0.084       68.699       14.374        0.044      331.794        0.039      864.921
11/04/2013  23:47:00      -24.983      -15.953       -0.891       25.620       15.884       11.379      656.401      252.295      129.487        0.096        0.052       29.642        9.334        0.099      331.812        0.068      864.943
11/04/2013  23:48:00      -21.288       -6.256       -9.592       11.795       13.232        6.838      139.121      175.081       46.759        0.047        0.018       22.188        5.658        0.065      331.850        0.130      864.942
11/04/2013  23:49:00      -56.415      -12.535      -12.506       13.576       22.698       11.992      184.312      515.208      143.812        0.217        0.042       57.791        8.064        0.019      331.935        0.270      864.934
11/04/2013  23:50:00      -81.234      -15.562      -17.788       17.709       13.875       12.149      313.609      192.502      147.589        0.391        0.033       82.711        5.569        0.005      331.868        0.161      864.939
11/04/2013  23:51:00      -69.937      -19.785       -8.826       19.523       16.186       11.916      381.138      261.990      141.982        0.307        0.039       72.681       10.963        0.023      331.850        0.130      864.947
11/04/2013  23:52:00      -61.807      -16.618       -6.514       19.656       18.481       11.911      386.370      341.546      141.867        0.250        0.043       64.003        3.432        0.003      331.837        0.109      864.972
11/04/2013  23:53:00      -66.286       -4.248       -8.795       21.290       16.096       12.266      453.255      259.077      150.454        0.268        0.043       66.422       11.038        0.028      331.855        0.138      865.006
11/04/2013  23:54:00      -44.493      -24.767       -7.788       19.172       17.545        9.526      367.581      307.830       90.742        0.171        0.038       50.922        4.492        0.008      331.841        0.116      865.029
11/04/2013  23:55:00      -39.074      -17.676       -6.581       18.682       12.181       13.113      349.019      148.367      171.955        0.128        0.033       42.886       12.328        0.083      331.836        0.108      865.056
11/04/2013  23:56:00      -88.737      -25.826       -9.316       16.160       14.805       10.310      261.161      219.177      106.294        0.461        0.029       92.419        9.456        0.010      331.809        0.064      865.087
11/04/2013  23:57:00      -89.511      -28.777      -10.560       12.364       10.825        9.247      152.864      117.182       85.514        0.465        0.018       94.023        6.128        0.004      331.804        0.055      865.105
11/04/2013  23:58:00      -93.842      -31.379      -16.217       14.041       10.339       10.579      197.163      106.898      111.924        0.523        0.021       98.949        5.469        0.003      331.787        0.027      865.131
11/04/2013  23:59:00     -106.736      -26.590      -20.160       10.026       12.646       10.528      100.526      159.913      110.839        0.644        0.019      109.998        2.198        0.000      331.742       -0.046      865.165
